     2              OBSERVATION DATA    GPS                 RINEX VERSION / TYPE
teqc 1998Mar9 19981006 18:26:43UTC                          PGM / RUN BY / DATE
                                                            COMMENT
Original Marker Name: HECT                                  COMMENT
Campaign Name: HPGN 1998                                    COMMENT
4-Character Station Name: HECT                              COMMENT
6-Character Antenna Code: TRMCMP                            COMMENT
Vertical Measurement Point: BPA                             COMMENT
Vertical Offset to Rinex Ref. Point: 0.0000                 COMMENT
Radial Measurement Point: RRP                               COMMENT
Radial Offset to Rinex Ref. Point: 0.0000                   COMMENT
Antenna Height from Field Measurement: 2.0000 m             COMMENT
Original XYZ: -2333616.6931 -4696775.6141 3618649.2119      COMMENT
New XYZ position is based on association with SCEC monument COMMENT
E1F2T3H9+0011. Position of that monument is believed to be  COMMENT
valid to within 1 m horizontally; vertical accuracy         COMMENT
should be no worse than 3-times this value.                 COMMENT
                                                            COMMENT
Revised Rinex header created by UCSD GPS archive for        COMMENT
GSAC on 16-Apr-1999 (1999:106) 03:27:43 GMT                 COMMENT
For assistance contact dagnew@ucsd.edu or hjohnson@ucsd.edu COMMENT
                                                            COMMENT
HECTOR 2                                                    MARKER NAME
unknown CALIF DEPT TRANSPORTATION                           OBSERVER / AGENCY
16905 TRIMBLE 4000 SSI NP 7.26; SP 3.07                     REC # / TYPE / VERS
22008 TR GEOD L1/L2 GP                                      ANT # / TYPE
 -2333615.0000 -4696774.0000  3618642.0000                  APPROX POSITION XYZ
        2.0000        0.0000        0.0000                  ANTENNA: DELTA H/E/N
     1     1     0                                          WAVELENGTH FACT L1/2
     7    L1    L2    C1    P2    P1    D1    D2            # / TYPES OF OBSERV
     0                                                      INTERVAL
  1998     6    17    15    38   45.000000                  TIME OF FIRST OBS
  1998     6    17    21    15   30.000000                  TIME OF LAST OBS
                                                            END OF HEADER
 98  6 17 15 38 45.0000000  0  7G 2G 4G 5G 7G 8G 9G24
     36724.42456     28619.27956  23664674.1644   23664683.0864
     -2640.0944      -2057.2164
     -1531.46258     -1189.67457  20760899.2814   20760905.0594
        90.2504         70.3254
    -36109.55156                  22995204.2504
      2564.7974
     32322.11857     25188.66656  22627325.8754   22627333.6024
     -2324.1564      -1811.0314
    -34825.55956    -27132.66456  22955872.1094   22955879.4734
      2470.2504       1924.8704
     -1385.57958     -1075.40757  21529186.5944   21529193.0164
        80.1414         62.4474
    -32096.30258                  21424317.6804
      2275.2814
 98  6 17 15 39  0.0000000  0  7G 2G 4G 5G 7G 8G 9G24
     76563.96346     59663.00646  23672255.8284   23672264.8554
     -2672.6094      -2082.5534
     -2607.00648     -2027.77147  20760694.6414   20760700.3594
        52.4064         40.8364
    -74372.47646     -5935.50956  22987922.8984   22987929.6724
      2536.1414       1976.2134
     67398.30947     52520.73646  22634001.0864   22634008.8484
     -2353.4374      -1833.8474
    -71625.65646    -55808.05146  22948869.2974   22948877.0704
      2435.6564       1897.9144
     -2314.64148     -1799.36147  21529009.7344   21529016.2504
        42.9384         33.4584
    -65972.07648    -17554.24157  21417871.2504   21417879.0004
      2240.7504       1746.0394
 98  6 17 15 39 15.0000000  0  7G 2G 4G 5G 7G 8G 9G24
    116876.53846     91075.35946  23679926.9924   23679936.0084
     -2702.2974      -2105.6864
     -3129.10648     -2434.61147  20760595.1804   20760600.7934
        17.3594         13.5274
   -112218.17046    -35425.62746  22980721.3054   22980728.1024
      2510.0784       1955.9054
    102897.65247     80182.54246  22640756.4064   22640763.8874
     -2379.5474      -1854.1924
   -107919.34346    -84088.83346  22941963.1414   22941970.7384
      2403.5944       1872.9304
     -2699.79448     -2099.49247  21528936.4534   21528943.0044
         8.5944          6.6964
    -99343.19548    -43557.69747  21411520.8834   21411528.4454
      2208.8594       1721.1894
 98  6 17 15 39 30.0000000  0  7G 2G 4G 5G 7G 8G 9G24
    157616.17646    122820.46746  23687679.4304   23687689.2774
     -2730.4374      -2127.6144
     -3144.73148     -2446.79047  20760592.1254   20760597.6454
       -16.0784        -12.5284
   -149690.18846    -64624.60146  22973590.9144   22973597.4534
      2485.4064       1936.6804
    138768.55047    108133.87146  22647581.8984   22647589.2974
     -2404.0474      -1873.2834
   -143748.21346   -112007.42646  22935144.8444   22935152.4534
      2372.8444       1848.9694
     -2589.76648     -2013.76847  21528957.2974   21528963.8364
       -24.0314        -18.7264
   -132254.35148    -69202.75247  21405258.2584   21405265.8324
      2178.5004       1697.5324
 98  6 17 15 39 45.0000000  0  7G 2G 4G 5G 7G 8G 9G24
    198770.43046    154888.64746  23695510.9144   23695519.8834
     -2757.7974      -2148.9334
     -2666.10048     -2073.83747  20760683.5004   20760689.1604
       -48.7344        -37.9754
   -186799.89446    -93541.25146  22966528.7974   22966535.6684
      2461.6094       1918.1374
    174998.68747    136365.11546  22654476.1334   22654483.7194
     -2427.5944      -1891.6314
   -179123.26246   -139572.39246  22928413.0394   22928420.2034
      2342.8284       1825.5804
     -1998.44448     -1553.00447  21529069.8134   21529076.2464
       -55.7664        -43.4544
   -164717.22548    -94498.49347  21399080.7424   21399088.2704
      2148.8914       1674.4604
 98  6 17 15 40  0.0000000  0  7G 2G 4G 5G 7G 8G 9G24
    240309.13646    187256.38846  23703415.3054   23703425.2584
     -2781.9534      -2167.7564
     -1723.65548     -1339.46847  20760862.6644   20760868.3714
       -78.1724        -60.9134
   -223578.61646   -122199.98846  22959530.2584   22959537.1994
      2440.9064       1902.0054
    211555.02247    164850.55146  22661432.9224   22661440.6724
     -2447.8124      -1907.3864
   -214072.64946   -166805.67446  22921762.7974   22921770.4304
      2315.7504       1804.4814
      -957.07048      -741.55447  21529268.0314   21529274.5594
       -84.3754        -65.7474
   -196759.54848   -119466.52447  21392983.1334   21392990.8014
      2122.1564       1653.6284
 98  6 17 15 40 15.0000000  0  7G 2G 4G 5G 7G 8G 9G24
    282216.22946    219911.22346  23711390.4144   23711399.6414
     -2805.2194      -2185.8854
      -334.47248      -256.99547  20761127.1484   20761133.0204
      -106.6094        -83.0724
   -260038.09946   -150609.96246  22952592.6024   22952600.0124
      2420.8134       1886.3474
    248419.80947    193576.33946  22668447.9694   22668455.8594
     -2467.0474      -1922.3744
   -248607.44846   -193715.89346  22915191.1024   22915198.8524
      2289.3284       1783.8924
       522.20248       411.11447  21529549.4694   21529556.0434
      -112.4694        -87.6384
   -228393.86748   -144116.63847  21386963.3834   21386971.0864
      2096.1414       1633.3564
 98  6 17 15 40 30.0000000  0  7G 2G 4G 5G 7G 8G 9G24
    324476.12246    252840.95246  23719432.1024   23719441.5044
     -2828.8754      -2204.3184
      1487.87748      1163.00847  20761474.0084   20761479.8204
      -135.9534       -105.9374
   -296189.60146   -178779.95646  22945713.2114   22945720.3524
      2399.8594       1870.0204
    285578.43747    222531.08246  22675519.0314   22675526.4414
     -2486.9374      -1937.8734
   -282740.36746   -220312.97046  22908696.0084   22908703.0784
      2262.2504       1762.7924
      2428.30148      1896.37947  21529912.1414   21529918.5274
      -141.1874       -110.0164
   -259631.53948   -168457.67547  21381018.9384   21381026.5824
      2069.3754       1612.5004
 98  6 17 15 40 45.0000000  0  7G 2G 4G 5G 7G 8G 9G24
    367078.34346    286037.42446  23727538.7584   23727547.4344
     -2850.3914      -2221.0844
      3742.04548      2919.50247  20761902.6174   20761908.2544
      -163.6254       -127.5004
   -332037.60746   -206713.46246  22938891.5084   22938898.3524
      2380.9224       1855.2644
    323025.06447    251710.25246  22682644.9694   22682652.2034
     -2504.9534      -1951.9124
   -316478.61946   -246602.51246  22902275.6954   22902282.5164
      2237.2194       1743.2874
      4752.79648      3707.66347  21530354.5084   21530360.9304
      -167.7034       -130.6784
   -290478.62348   -192494.35447  21375149.0474   21375156.7034
      2044.5784       1593.1784
 98  6 17 15 41  0.0000000  0  7G 2G 4G 5G 7G 8G 9G24
    410004.64946    319486.42546  23735707.4144   23735716.6414
     -2873.3124      -2238.9454
      6413.66748      5001.28247  20762411.2734   20762416.7814
      -192.8444       -150.2684
   -367600.75946   -234425.00846  22932123.8674   22932130.8094
      2360.5474       1839.3874
    360743.52947    281101.22946  22689822.6884   22689830.3794
     -2524.4064      -1967.0704
   -349838.89846   -272597.53146  22895927.4614   22895934.6604
      2210.5634       1722.5164
      7476.41948      5829.95747  21530872.8984   21530879.3324
      -195.6564       -152.4594
   -320952.94148   -216240.57347  21369350.1484   21369357.6764
      2018.4224       1572.7964
 98  6 17 15 41 15.0000000  0  7G 2G 4G 5G 7G 8G 9G24
    453263.55746    353194.61546  23743939.9924   23743949.6644
     -2893.3754      -2254.5784
      9512.67848      7416.08847  20763000.8674   20763006.5164
      -219.1414       -170.7594
   -402867.72846   -261905.75546  22925412.7114   22925419.8874
      2342.8594       1825.6054
    398743.49547    310711.56346  22697053.5784   22697061.1644
     -2541.0784      -1980.0614
   -382808.74546   -298288.31246  22889653.5554   22889660.7774
      2186.5474       1703.8034
     10608.53948      8270.55747  21531468.7894   21531475.0124
      -220.8444       -172.0864
   -351045.56248   -239689.35947  21363623.4144   21363630.9654
      1995.0634       1554.5944
 98  6 17 15 41 30.0000000  0  7G 2G 4G 5G 7G 8G 9G24
    496811.39246    387127.93846  23752226.6884   23752236.6764
     -2913.1094      -2269.9554
     12992.47448     10127.61247  20763663.3674   20763669.2734
      -244.8914       -190.8244
   -437881.49646   -289189.20346  22918749.5394   22918756.2304
      2325.6094       1812.1634
    436981.28747    340507.21846  22704329.9614   22704337.6884
     -2557.4534      -1992.8214
   -415429.28546   -323706.90846  22883445.9384   22883453.3014
      2162.8284       1685.3214
     14106.47748     10996.21347  21532134.5234   21532140.9344
      -245.6564       -191.4204
   -380799.43848   -262874.19547  21357961.5634   21357968.9384
      1972.0474       1536.6604
 98  6 17 15 41 45.0000000  0  7G 2G 4G 5G 7G 8G 9G24
    540637.49646    421278.08546  23760566.2194   23760575.5514
     -2931.5164      -2284.2984
     16840.18148     13125.85547  20764395.3204   20764400.8754
      -269.3284       -209.8664
   -472655.10946   -316285.51646  22912132.7034   22912139.5124
      2309.7504       1799.8054
    475452.41447    370484.69546  22711650.8204   22711658.6174
     -2573.2034      -2005.0934
   -447712.79246   -348862.87646  22877302.2734   22877309.3204
      2140.5314       1667.9464
     17960.31148     13999.16247  21532867.8984   21532874.4844
      -269.4224       -209.9394
   -410225.65148   -285803.70747  21352362.0084   21352369.4774
      1950.2664       1519.6884
 98  6 17 15 42  0.0000000  0  7G 2G 4G 5G 7G 8G 9G24
    584749.81946    455651.25546  23768960.6884   23768969.7624
     -2951.0474      -2299.5174
     21066.03748     16418.67747  20765199.2814   20765204.8014
      -294.9694       -229.8464
   -507180.57146   -343188.46046  22905562.7034   22905569.6804
      2292.7504       1786.5584
    514170.08047    400654.27346  22719018.6334   22719026.7814
     -2590.0164      -2018.1944
   -479651.86346   -373750.46346  22871224.8054   22871231.8164
      2117.1094       1649.6964
     22182.82448     17289.46847  21533671.1644   21533678.4574
      -294.4694       -229.4564
   -439313.82948   -308469.81947  21346826.6094   21346833.9734
      1927.3444       1501.8264
 98  6 17 15 42 15.0000000  0  7G 2G 4G 5G 7G 8G 9G24
    629152.00946    490250.30046  23777410.5474   23777419.1414
     -2969.4064      -2313.8234
     25670.62248     20006.64947  20766075.7194   20766081.1804
      -319.0784       -248.6324
   -541453.82946   -369894.89646  22899040.5554   22899047.5904
      2276.8914       1774.2004
    553136.25347    431017.49646  22726433.9614   22726441.5234
     -2605.5944      -2030.3334
   -511242.84046   -398366.79846  22865213.2114   22865220.4224
      2094.9384       1632.4194
     26778.40948     20870.44747  21534545.8284   21534552.4964
      -318.4224       -248.1214
   -468062.45048   -330871.33847  21341355.8134   21341363.2344
      1905.7504       1485.0004
 98  6 17 15 42 30.0000000  0  7G 2G 4G 5G 7G 8G 9G24
    673831.91646    525065.75246  23785912.4614   23785921.6884
     -2987.5474      -2327.9594
     30635.92148     23875.72247  20767020.5554   20767026.1564
      -342.6414       -266.9934
   -575490.34046   -396416.84846  22892563.7034   22892570.8324
      2261.6724       1762.3424
    592336.90147    461563.43446  22733893.3834   22733901.0394
     -2620.8594      -2042.2284
   -542502.89646   -422725.27646  22859264.6954   22859272.0704
      2073.4224       1615.6534
     31732.59148     24730.81947  21535488.5784   21535494.9884
      -341.7504       -266.2994
   -496487.22848   -353020.50747  21335946.6884   21335953.9924
      1884.6094       1468.5274
 98  6 17 15 42 45.0000000  0  7G 2G 4G 5G 7G 8G 9G24
    718764.29045    560077.94146  23794462.7504   23794472.3164
     -3002.7664      -2339.8174
     35936.69548     28006.19747  20768029.3594   20768035.1724
      -363.4064       -283.1744
   -609317.63346   -422775.76746  22886126.6174   22886133.4884
      2249.3134       1752.7114
    631748.51247    492273.74946  22741393.2114   22741400.9264
     -2633.3124      -2051.9324
   -573458.77146   -446846.73446  22853374.2194   22853381.3834
      2054.7034       1601.0674
     37016.82848     28848.39847  21536494.2504   21536500.6844
      -362.0944       -282.1514
   -524613.78948   -374937.30247  21330594.4224   21330601.7974
      1866.2504       1454.2214
 98  6 17 15 43  0.0000000  0  7G 2G 4G 5G 7G 8G 9G24
    763932.57746    595273.94646  23803058.9064   23803068.7894
     -3019.7504      -2353.0524
     41551.26848     32381.16747  20769097.6094   20769103.4344
      -385.2664       -300.2074
   -642953.64446   -448985.64046  22879725.5784   22879732.4964
      2235.4064       1741.8754
    671352.20847    523133.75846  22748929.5944   22748937.0744
     -2647.2664      -2062.8044
   -604126.81246   -470743.90046  22847537.7194   22847544.8954
      2034.2664       1585.1424
     42612.11348     33208.35947  21537559.1174   21537565.6214
      -384.0784       -299.2824
   -552457.83348   -396633.95947  21325295.9774   21325303.3284
      1846.1414       1438.5514
 98  6 17 15 43 15.0000000  0  7G 2G 4G 5G 7G 8G 9G24
    809363.17646    630674.37146  23811703.9694   23811712.9144
     -3037.3444      -2366.7614
     47499.81648     37016.41147  20770229.8134   20770235.4144
      -407.5944       -317.6064
   -676371.47346   -475025.49746  22873366.7584   22873374.0164
      2220.5634       1730.3084
    711171.70847    554161.91946  22756507.0004   22756514.5394
     -2661.7034      -2074.0544
   -634478.90646   -494394.87046  22841761.9224   22841769.0984
      2012.9694       1568.5474
     48546.29248     37832.36847  21538688.1564   21538694.7894
      -406.8754       -317.0454
   -579991.60448   -418088.84247  21320056.4844   21320063.8244
      1825.3134       1422.3214
 98  6 17 15 43 30.0000000  0  7G 2G 4G 5G 7G 8G 9G24
    855049.32546    666273.89446  23820397.0084   23820405.8014
     -3053.0784      -2379.0224
     53776.38148     41907.19346  20771424.2274   20771429.7234
      -428.2194       -333.6774
   -709573.74846   -500897.39646  22867048.4694   22867055.2894
      2207.4384       1720.0814
    751200.44647    585353.12446  22764124.3444   22764131.8484
     -2674.4064      -2083.9534
   -664520.07246   -517803.56846  22836045.9694   22836053.0864
      1993.6254       1553.4744
     54817.14648     42718.79146  21539881.5394   21539888.3984
      -428.1564       -333.6284
   -607219.33248   -439305.24947  21314875.2034   21314882.4734
      1806.1414       1407.3824
 98  6 17 15 43 45.0000000  0  7G 2G 4G 5G 7G 8G 9G24
    900959.93146    702048.32946  23829134.3754   23829143.8714
     -3069.0314      -2391.4534
     60352.11448                  20772675.2664
      -449.2974
   -742590.12046   -526624.43246  22860765.6644   22860772.4264
      2194.0944       1709.6834
    791408.09847    616683.74346  22771775.5704   22771783.1094
     -2687.2814      -2093.9854
   -694284.49346   -540996.61546  22830381.4384   22830388.7194
      1974.2814       1538.4014
     61394.23348                  21541133.1484
      -449.4694
   -634171.26348   -460306.75147  21309746.5704   21309753.7584
      1786.7664       1392.2854
 98  6 17 15 44  0.0000000  0  7G 2G 4G 5G 7G 8G 9G24
    947131.65546    738026.25046  23837920.5084   23837929.9344
     -3086.1254      -2404.7734
     67267.91148                  20773991.4224
      -471.7664
   -775383.19446   -552177.46646  22854525.3524   22854532.1484
      2179.3594       1698.2024
    831829.83347    648181.17546  22779467.5864   22779475.2304
     -2701.0784      -2104.7364
   -723735.78646   -563945.66446  22824776.8984   22824783.7304
      1953.6414       1522.3174
     68313.48748                  21542450.0084
      -472.0164
   -660809.29048   -481063.64747  21304677.4694   21304684.6914
      1766.0944       1376.1774
 98  6 17 15 44 15.0010000  0  7G 2G 4G 5G 7G 8G 9G24
    993547.25646    774194.18446  23846752.5054   23846761.8374
     -3101.5474      -2416.7904
     74504.55048                  20775368.8254
      -492.3284
   -807972.82346   -577571.97646  22848323.7864   22848330.4784
      2166.3444       1688.0604
    872440.65747    679825.95146  22787195.5284   22787203.1854
     -2712.6254      -2113.7344
   -752896.77046   -586668.50646  22819227.9274   22819235.0794
      1934.9224       1507.7314
     75554.25648                  21543827.6464
      -492.6094
   -687157.22248   -501594.49247  21299663.5364   21299670.7354
      1747.4224       1361.6274
 98  6 17 15 44 30.0010000  0  7G 2G 4G 5G 7G 8G 9G24
   1040189.81346    810538.96846  23855628.4974   23855638.3214
     -3117.3594      -2429.1114
     82048.24148      4334.27757  20776804.3564   20776809.7944
      -513.4844       -400.1184
   -840366.37046   -602813.69146  22842159.5604   22842166.5604
      2152.9064       1677.5894
    913221.34847    711603.09346  22794956.1464   22794963.7434
     -2724.7194      -2123.1574
   -781777.66146   -609173.09246  22813732.2864   22813739.2164
      1916.0004       1492.9874
     83101.26648      4336.23157  21545263.6384   21545270.1304
      -513.5784       -400.1914
   -713223.93248   -521906.20247  21294703.3804   21294710.5214
      1728.2194       1346.6644
 98  6 17 15 44 45.0010000  0  7G 2G 4G 5G 7G 8G 9G24
   1087073.85346    847071.93046  23864550.3494   23864559.9744
     -3132.7814      -2441.1284
     89917.23148     10465.93247  20778301.6064   20778307.2554
      -534.7344       -416.6764
   -872553.79446   -627894.79246  22836034.1924   22836041.2864
      2139.7344       1667.3254
    954189.43347    743526.25346  22802752.0054   22802759.4384
     -2736.6564      -2132.4594
   -810369.89746   -631452.75046  22808291.0834   22808297.9274
      1897.3284       1478.4384
     90966.77648     10465.20847  21546760.4664   21546767.3374
      -534.1564       -416.2264
   -738996.92748   -541989.04547  21289798.8644   21289806.0634
      1709.2344       1331.8714
 98  6 17 15 45  0.0010000  0  7G 2G 4G 5G 7G 8G 9G24
   1134179.14846    883777.31046  23873514.2634   23873524.0994
     -3147.2344      -2452.3904
     98097.43048     16840.07447  20779858.1384   20779863.5524
      -555.2814       -432.6874
   -904551.76846   -652828.27046  22829945.6064   22829952.3684
      2127.3444       1657.6704
    995327.18547    775581.62046  22810580.3334   22810587.8134
     -2747.7034      -2141.0674
   -838691.16346   -653521.27046  22802901.7084   22802908.8724
      1879.5314       1464.5704
     99133.61848     16829.00547  21548314.8254   21548321.5174
      -554.0624       -431.7374
   -764494.42248   -561857.21847  21284946.9354   21284954.0284
      1691.1094       1317.7484
 98  6 17 15 45 15.0010000  0  7G 2G 4G 5G 7G 8G 9G24
   1181505.25246    920654.73046  23882520.3804   23882530.0754
     -3162.4534      -2464.2494
    106589.21748     23457.06047  20781474.0364   20781479.8724
      -576.6564       -449.3434
   -936361.72246   -677615.23946  22823891.9354   22823898.9704
      2114.3914       1647.5774
   1036633.71047    807768.50446  22818440.6304   22818448.3804
     -2759.4534      -2150.2234
   -866742.45046   -675379.40046  22797563.8334   22797570.5484
      1861.0164       1450.1424
    107602.66048     23428.24447  21549926.2004   21549932.5524
      -574.7344       -447.8454
   -789719.05348   -581512.76247  21280146.6924   21280153.9154
      1672.5944       1303.3204
 98  6 17 15 45 30.0010000  0  7G 2G 4G 5G 7G 8G 9G24
   1229047.71746    957700.74546  23891567.2864   23891576.3964
     -3176.5624      -2475.2444
    115394.29548     30318.14647  20783149.5754   20783155.4704
      -597.4224       -465.5244
   -967988.25646   -702259.28046  22817873.5214   22817880.4974
      2102.5004       1638.3124
   1078106.53847    840084.97146  22826332.5994   22826339.9274
     -2770.2974      -2158.6734
   -894527.69846   -697030.24346  22792276.6774   22792283.4154
      1843.6414       1436.6034
    116369.96148     30259.90547  21551594.6304   21551601.0284
      -594.2664       -463.0644
   -814678.08748   -600961.35147  21275397.2084   21275404.4784
      1655.2344       1289.7934
 98  6 17 15 45 45.0010000  0  7G 2G 4G 5G 7G 8G 9G24
   1276806.91446    994915.65846  23900655.6384   23900664.6184
     -3191.2194      -2486.6644
    124516.46748     37426.33347  20784885.6144   20784891.3214
      -618.6724       -482.0824
   -999433.90046   -726762.36946  22811889.9584   22811896.8764
      2090.4224       1628.9004
   1119746.68347    872531.81246  22834256.4974   22834264.0604
     -2781.5314      -2167.4274
   -922047.50046   -718474.24246  22787039.9114   22787046.7944
      1825.7664       1422.6754
    125434.41648     37323.10247  21553319.5914   21553325.9544
      -614.0784       -478.5024
   -839371.45148   -620202.92847  21270698.2944   21270705.4464
      1637.3594       1275.8644
 98  6 17 15 46  0.0010000  0  7G 2G 4G 5G 7G 8G 9G24
   1324778.47746   1032296.02546  23909784.6534   23909793.9504
     -3204.4844      -2497.0014
    133948.67648     44776.10047  20786680.5674   20786686.2744
      -638.4224       -497.4724
  -1030707.78346   -751131.62346  22805938.5444   22805945.7204
      2079.9844       1620.7674
   1161545.51646    905102.30846  22842210.5524   22842218.4894
     -2791.1414      -2174.9154
   -949305.57446   -739714.28546  22781852.4194   22781859.7474
      1809.1564       1409.7324
    134785.82048     44609.89947  21555099.2634   21555105.6964
      -632.2814       -492.6874
   -863803.92948   -639241.22247  21266048.8024   21266055.9544
      1620.8284       1262.9834
 98  6 17 15 46 15.0010000  0  7G 2G 4G 5G 7G 8G 9G24
   1372966.91546   1069845.40746  23918954.1774   23918963.8844
     -3219.2664      -2508.5194
    143692.52048     52368.70647  20788534.5834   20788540.3374
      -659.3754       -513.7994
  -1061807.13046   -775364.86746  22800020.8254   22800027.7904
      2067.9534       1611.3924
   1203507.01746    937799.55946  22850195.3804   22850203.2824
     -2802.3594      -2183.6574
   -976297.79146   -760747.18246  22776716.0284   22776723.0754
      1791.1884       1395.7314
    144429.56348     52124.49547  21556934.5134   21556940.8534
      -652.1874       -508.1984
   -887971.51248   -658073.10047  21261450.0524   21261457.2164
      1602.8914       1249.0064
 98  6 17 15 46 30.0010000  0  7G 2G 4G 5G 7G 8G 9G24
   1421358.14646   1107552.78146  23928162.7784   23928172.4854
     -3232.9224      -2519.1604
    153731.71648     60191.45547  20790445.0754   20790450.8414
      -679.2194       -529.2614
  -1092745.22646   -799472.46646  22794133.3884   22794140.0674
      2057.0784       1602.9184
   1245619.43146    970614.39946  22858208.8494   22858216.5404
     -2812.6724      -2191.6924
  -1003040.48246   -781585.63746  22771627.2244   22771634.0954
      1774.4224       1382.6664
    154352.69348     59856.79347  21558822.5444   21558828.9074
      -670.9064       -522.7844
   -911887.74748   -676709.11747  21256898.7944   21256905.9704
      1585.8594       1235.7354
 98  6 17 15 46 45.0010000  0  7G 2G 4G 5G 7G 8G 9G24
   1469954.53346   1145420.05446  23937411.0444   23937420.7634
     -3246.0314      -2529.3754
    164070.13148     68247.35547  20792412.2784   20792418.1854
      -698.6414       -544.3954
  -1123517.81746   -823451.10146  22788277.5054   22788284.3884
      2046.5164       1594.6884
   1287888.86846   1003551.60246  22866252.8024   22866260.4584
     -2822.6724      -2199.4854
  -1029529.11146   -802226.11846  22766586.5214   22766593.5914
      1757.8754       1369.7734
    164557.45148     67808.54247  21560764.6774   21560770.9464
      -689.1564       -537.0054
   -935547.53448   -695145.30447  21252396.4814   21252403.6464
      1569.3444       1222.8654
 98  6 17 15 47  0.0010000  0  7G 2G 4G 5G 7G 8G 9G24
   1518747.31445   1183440.34446  23946695.3644   23946704.4274
     -3259.4064      -2539.7974
    174698.72248     76529.37347  20794434.8884   20794440.6534
      -718.1874       -559.6274
  -1154131.59746   -847305.99146  22782451.7244   22782458.4274
      2035.5634       1586.1534
   1330307.36946   1036604.95946  22874325.1144   22874333.0524
     -2832.8124      -2207.3864
  -1055767.18246   -822671.36346  22761593.3964   22761600.1694
      1740.7814       1356.4534
    175035.96848     75973.60847  21562758.7164   21562765.0444
      -707.7194       -551.4694
   -958959.77648   -713388.60447  21247941.2554   21247948.4074
      1552.6254       1209.8384
 98  6 17 15 47 15.0010000  0  7G 2G 4G 5G 7G 8G 9G24
   1567738.49345   1221615.21946  23956017.7394   23956027.7044
     -3272.7344      -2550.1834
    185617.88148     85037.80747  20796512.8024   20796518.3924
      -737.6254       -574.7734
  -1184582.09146   -871033.64246  22776657.3644   22776664.3994
      2024.5314       1577.5574
   1372874.32847   1069773.99846  22882425.2314   22882432.6424
     -2842.7194      -2215.1064
  -1081749.49646   -842917.31646  22756649.2944   22756655.9744
      1723.5314       1343.0114
    185792.55348     84355.35647  21564805.4504   21564811.8134
      -726.4534       -566.0674
   -982122.72848   -731437.64747  21243533.5914   21243540.7204
      1535.8134       1196.7374
 98  6 17 15 47 30.0010000  0  7G 2G 4G 5G 7G 8G 9G24
   1616928.88645   1259945.33546  23965379.1384   23965389.1384
     -3286.0004      -2560.5194
    196825.02948     93770.64847  20798645.5134   20798650.9854
      -756.7344       -589.6634
  -1214869.43546   -894634.16146  22770893.8174   22770900.5444
      2013.7034       1569.1194
   1415587.00347   1103056.58046  22890553.1304   22890560.5754
     -2852.3754      -2222.6304
  -1107474.81946   -862963.01946  22751753.5444   22751760.4274
      1706.4694       1329.7164
    196828.36748     92954.68147  21566905.4814   21566911.8104
      -745.0474       -580.5564
  -1005034.88148   -749291.26147  21239173.5214   21239180.7084
      1519.0164       1183.6494
 98  6 17 15 47 45.0010000  0  7G 2G 4G 5G 7G 8G 9G24
   1666317.60245   1298429.99846  23974777.4424   23974788.1924
     -3299.1254      -2570.7474
    208317.39248    102725.73247  20800832.3644   20800837.9894
      -775.4064       -604.2134
  -1244994.48046   -918108.21846  22765161.0054   22765168.0054
      2003.0634       1560.8284
   1458444.22346   1136451.79146  22898708.4584   22898716.1384
     -2861.8124      -2229.9844
  -1132944.94646   -882809.86146  22746907.2944   22746914.5994
      1689.6254       1316.5914
    208142.82948    101771.13647  21569058.4274   21569064.6734
      -763.4694       -594.9114
  -1027694.24248   -766947.89747  21234861.6224   21234868.8214
      1502.3284       1170.6454
 98  6 17 15 48  0.0010000  0  7G 2G 4G 5G 7G 8G 9G24
   1715892.94746   1337060.06546  23984211.5134   23984220.9034
     -3311.1874      -2580.1464
    220076.46748    111888.64547  20803070.1304   20803076.0134
      -792.7194       -617.7034
  -1274970.14146   -941465.87046  22759457.1384   22759464.1494
      1993.3914       1553.2914
   1501431.24547   1169948.15246  22906888.8884   22906896.4624
     -2870.0784      -2236.4254
  -1158173.20546   -902468.23646  22742106.2784   22742113.2784
      1673.9384       1304.3674
    219723.34048    110794.90147  21571262.1464   21571268.4034
      -780.8754       -608.4744
  -1050115.14548   -784418.71547  21230594.8564   21230602.1614
      1486.8754       1158.6044
 98  6 17 15 48 15.0010000  0  7G 2G 4G 5G 7G 8G 9G24
   1765658.77245   1375838.59246  23993681.4354   23993691.3884
     -3323.4064      -2589.6674
    232105.68348    121262.06047  20805359.1144   20805365.0094
      -810.3284       -631.4254
  -1304789.74846   -964701.91946  22753782.7394   22753789.8104
      1983.4384       1545.5364
   1544554.29647   1203550.51146  22915094.9114   22915102.0174
     -2878.8754      -2243.2794
  -1183157.76046   -921936.71346  22737351.6924   22737358.4784
      1658.2034       1292.1064
    231576.55948    120031.16347  21573518.1144   21573524.4194
      -798.7504       -622.4034
  -1072295.65148   -801702.21247  21226374.1774   21226381.3884
      1471.4064       1146.5504
 98  6 17 15 48 30.0010000  0  7G 2G 4G 5G 7G 8G 9G24
   1815602.96045   1414756.07445  24003185.0054   24003194.7244
     -3334.4534      -2598.2754
    244394.89648    130838.06847  20807697.6694   20807703.5524
      -826.9694       -644.3914
  -1334464.08946   -987824.77346  22748135.5994   22748142.7284
      1974.5314       1538.5964
   1587806.13747   1237253.22146  22923325.6224   22923333.2204
     -2886.7194      -2249.3914
  -1207909.78246   -941223.99046  22732641.6924   22732648.8104
      1643.3754       1280.5524
    243694.37148    129473.60747  21575824.1614   21575830.6064
      -815.5624       -635.5034
  -1094248.18548   -818808.06347  21222196.8104   21222204.0094
      1456.9694       1135.3004
 98  6 17 15 48 45.0010000  0  7G 2G 4G 5G 7G 8G 9G24
   1865716.15346   1453805.23546  24012722.3644   24012731.3684
     -3346.4844      -2607.6504
    256938.85248    140612.57747  20810084.8104   20810090.6104
      -844.7194       -658.2224
  -1364002.93146  -1010842.04546  22742514.3254   22742522.0054
      1964.7814       1530.9984
   1631179.92447   1271050.95946  22931579.2244   22931586.2714
     -2895.6564      -2256.3564
  -1232432.73146   -960332.77646  22727975.2314   22727982.1734
      1627.1254       1267.8904
    256067.16148    139114.73547  21578178.4894   21578184.8644
      -833.3594       -649.3714
  -1115981.04748   -835742.74647  21218061.1144   21218068.2434
      1441.5784       1123.3084
 98  6 17 15 49  0.0010000  0  7G 2G 4G 5G 7G 8G 9G24
   1916011.79545   1492996.60846  24022292.8644   24022302.6184
     -3359.0004      -2617.4034
    269749.55648    150594.94547  20812522.4974   20812528.2044
      -862.8284       -672.3344
  -1393394.03746  -1033744.19046  22736921.5994   22736928.8924
      1954.5944       1523.0604
   1674689.51247   1304954.51046  22939858.9354   22939866.2744
     -2905.0474      -2263.6734
  -1256708.47046   -979248.93146  22723355.6924   22723362.2904
      1610.2194       1254.7164
    268709.11848    148965.60047  21580583.9974   21580590.3374
      -851.7194       -663.6774
  -1137482.32948   -852496.97847  21213969.4894   21213976.4784
      1425.7814       1110.9984
 98  6 17 15 49 15.0010000  0  7G 2G 4G 5G 7G 8G 9G24
   1966492.31745   1532331.99045  24031898.4584   24031907.6854
     -3371.7504      -2627.3384
    282830.82848    160788.13847  20815011.7164   20815017.4934
      -881.3124       -686.7374
  -1422635.18546  -1056529.49446  22731357.0524   22731364.2044
      1944.2504       1515.0004
   1718336.44846   1338965.08446  22948164.4424   22948171.9584
     -2914.5784      -2271.1004
  -1280733.57346   -997969.79146  22718783.5914   22718790.7434
      1593.1564       1241.4204
    281625.39248    159030.22047  21583041.8964   21583048.3534
      -870.4694       -678.2874
  -1158747.30148   -869067.07047  21209923.1694   21209930.3334
      1409.5314       1098.3364
 98  6 17 15 49 30.0010000  0  7G 2G 4G 5G 7G 8G 9G24
   2017153.22446   1571807.96645  24041539.8804   24041549.2944
     -3383.4844      -2636.4814
    296176.53348    171187.38647  20817551.4114   20817557.1304
      -898.5784       -700.1914
  -1451733.43146  -1079203.44646  22725820.0754   22725827.3334
      1935.1254       1507.8904
   1762116.55546   1373079.43746  22956495.7394   22956503.1494
     -2923.2664      -2277.8694
  -1304514.46246  -1016500.34146  22714258.4814   22714265.4704
      1577.1564       1228.9534
    294811.22148    169304.88247  21585551.0834   21585557.5524
      -888.0164       -691.9604
  -1179778.08048   -885454.67747  21205921.0284   21205928.3334
      1394.1414       1086.3434
 98  6 17 15 49 45.0010000  0  7G 2G 4G 5G 7G 8G 9G24
   2067989.26946   1611420.42746  24051213.8884   24051222.5284
     -3395.0624      -2645.5034
    309780.47148    181787.85547  20820140.1534   20820145.7674
      -915.7974       -713.6084
  -1480697.32446  -1101772.70646  22720308.2554   22720315.1614
      1926.2194       1500.9504
   1806027.51946   1407295.75046  22964851.5134   22964859.2864
     -2931.9694      -2284.6514
  -1328055.92646  -1034844.33046  22709778.6774   22709785.4154
      1561.2814       1216.5834
    308256.15148    179781.44247  21588109.6854   21588116.0954
      -905.0784       -705.2564
  -1200579.61648   -901663.65547  21201962.3414   21201969.7514
      1379.0004       1074.5454
 98  6 17 15 50  0.0010000  0  7G 2G 4G 5G 7G 8G 9G24
   2118996.14645   1651165.99145  24060919.3104   24060928.9464
     -3406.0944      -2654.0994
    323642.37848    192589.34147  20822777.9274   20822783.6574
      -932.7194       -726.7944
  -1509527.93546  -1124238.10846  22714821.8804   22714828.8804
      1917.5944       1494.2294
   1850067.37346   1441612.48946  22973232.4114   22973240.1964
     -2940.2974      -2291.1404
  -1351361.35146  -1053004.39746  22705343.8724   22705350.8024
      1545.7664       1204.4934
    321955.22848    190456.04047  21590716.6144   21590723.0364
      -921.7814       -718.2714
  -1221157.48548   -917698.34247  21198046.6144   21198054.0714
      1364.4064       1063.1744
 98  6 17 15 50 15.0010000  0  7G 2G 4G 5G 7G 8G 9G24
   2170170.28845   1691041.84345  24070657.8104   24070666.6144
     -3416.8444      -2662.4764
    337763.35148    203592.69847  20825464.9424   20825470.8134
      -949.8124       -740.1144
  -1538224.70846  -1146599.22046  22709361.1614   22709368.2784
      1908.8914       1487.4474
   1894236.26646   1476029.79046  22981637.4974   22981645.6464
     -2948.6094      -2297.6184
  -1374428.45846  -1070978.75246  22700953.9504   22700960.9744
      1530.0784       1192.2694
    335909.39848    201329.40947  21593371.9664   21593378.2474
      -938.5004       -731.2994
  -1241510.82648   -933558.07247  21194173.3884   21194180.7164
      1349.6094       1051.6444
 98  6 17 15 50 30.0010000  0  7G 2G 4G 5G 7G 8G 9G24
   2221496.97545   1731036.62445  24080425.4194   24080433.9664
     -3425.8914      -2669.5254
    352131.78348    214788.87547  20828199.3644   20828205.2594
      -965.1724       -752.0824
  -1566800.02646  -1168865.69446  22703923.6304   22703930.7354
      1901.9694       1482.0544
   1938521.63346   1510537.84446  22990064.4744   22990072.1884
     -2955.1874      -2302.7444
  -1397267.51546  -1088775.41346  22696608.0364   22696615.4114
      1515.9224       1181.2384
    350104.73748    212390.70247  21596072.9814   21596079.2744
      -953.3594       -742.8774
  -1261649.30448   -949250.37947  21190341.2314   21190348.3024
      1336.2974       1041.2704
 98  6 17 15 50 45.0010000  0  7G 2G 4G 5G 7G 8G 9G24
   2272970.24045   1771145.61245  24090219.8414   24090228.8214
     -3437.3284      -2678.4374
    366742.38348    226173.75447  20830979.6694   20830985.5284
      -983.0474       -766.0114
  -1595258.21346  -1191040.89746  22698508.2554   22698515.3844
      1892.3284       1474.5414
   1982914.34546   1545129.55346  22998512.0524   22998519.7204
     -2963.8754      -2309.5134
  -1419882.42146  -1106397.41246  22692304.6534   22692311.6884
      1499.2974       1168.2834
    364532.49848    223633.10347  21598818.6534   21598824.8994
      -970.4224       -756.1734
  -1281575.64248   -964777.38547  21186549.3494   21186556.3724
      1320.5164       1028.9734
 98  6 17 15 51  0.0010000  0  7G 2G 4G 5G 7G 8G 9G24
   2324603.65445   1811379.35445  24100045.6614   24100054.8414
     -3447.0314      -2685.9984
    381608.57048    237757.79647  20833808.6064   20833814.4544
      -998.9534       -778.4054
  -1623582.88346  -1213112.05346  22693117.9034   22693124.7984
      1884.4064       1468.3694
   2027422.78546   1579811.42746  23006981.6384   23006989.5284
     -2970.4064      -2314.6024
  -1442260.06446  -1123834.52646  22688046.2554   22688053.0994
      1484.5474       1156.7904
    379203.56248    235065.09447  21601610.3494   21601616.6184
      -985.5944       -767.9954
  -1301278.34148   -980130.12447  21182799.8884   21182807.0174
      1306.6094       1018.1374
 98  6 17 15 51 15.0010000  0  7G 2G 4G 5G 7G 8G 9G24
   2376396.50646   1851737.36145  24109901.6774   24109910.5174
     -3458.8754      -2695.2274
    396726.92348    249538.32447  20836685.6224   20836691.4234
     -1017.0474       -792.5044
  -1651775.01946  -1235079.93946  22687753.0914   22687760.2784
      1874.3444       1460.5284
   2072042.44246   1614579.96846  23015472.7474   23015480.5914
     -2979.0784      -2321.3604
  -1464404.93246  -1141090.26146  22683832.2864   22683839.4974
      1467.9384       1143.8474
    394114.92748    246684.32347  21604448.0834   21604454.3994
     -1002.7664       -781.3764
  -1320757.74748   -995308.87547  21179093.1384   21179100.3374
      1290.4534       1005.5484
 98  6 17 15 51 30.0010000  0  7G 2G 4G 5G 7G 8G 9G24
   2428362.05645   1892229.95545  24119790.2554   24119799.6464
     -3469.3594      -2703.3974
    412111.17548    261526.05147  20839613.1534   20839618.8724
     -1033.5944       -805.3984
  -1679822.19946  -1256934.88146  22682416.0674   22682423.0324
      1865.8444       1453.9044
   2116787.70446   1649446.37646  23023987.4504   23023995.0484
     -2986.4374      -2327.0944
  -1486307.68946  -1158157.33946  22679664.1304   22679671.1774
      1452.9694       1132.1834
    409277.93548    258499.64947  21607333.4974   21607339.8254
     -1018.3914       -793.5514
  -1340000.39048  -1010303.13547  21175431.6064   21175438.6534
      1275.7814        994.1154
 98  6 17 15 51 45.0010000  0  7G 2G 4G 5G 7G 8G 9G24
   2480483.00545   1932843.62245  24129708.4814   24129718.9974
     -3479.9224      -2711.6274
    427741.82648    273705.77247  20842587.3964   20842593.0094
     -1050.4064       -818.4984
  -1707743.12546  -1278691.43746  22677102.7394   22677109.7394
      1857.0634       1447.0624
   2161642.33146   1684398.02346  23032522.7714   23032531.0014
     -2994.0314      -2333.0114
  -1507988.00546  -1175051.08546  22675538.4664   22675545.5954
      1437.8594       1120.4104
    424672.68148    270495.54647  21610263.2004   21610269.5284
     -1034.1414       -805.8244
  -1359026.29148  -1025128.50247  21171810.9274   21171817.9384
      1261.2034        982.7564
 98  6 17 15 52  0.0010000  0  7G 2G 4G 5G 7G 8G 9G24
   2532750.25445   1973571.27245  24139654.9664   24139665.4354
     -3489.4844      -2719.0794
    443613.55448    286073.35247  20845607.6614   20845613.3104
     -1066.2504       -830.8444
  -1735543.19646  -1300353.82046  22671812.7864   22671819.7984
      1849.0634       1440.8284
   2206597.61446   1719428.08646  23041077.3724   23041085.6144
     -3000.4694      -2338.0284
  -1529454.15346  -1191777.94846  22671453.5524   22671460.8564
      1423.8284       1109.4764
    440293.53848    282667.63147  21613235.2314   21613241.5714
     -1049.1724       -817.5374
  -1377847.80148  -1039794.60647  21168229.4274   21168236.5324
      1247.8754        972.3704
 98  6 17 15 52 15.0010000  0  7G 2G 4G 5G 7G 8G 9G24
   2585165.86545   2014414.55145  24149628.6304   24149639.2394
     -3499.7504      -2727.0784
    459727.36648    298629.56847  20848674.1774   20848679.7434
     -1082.6414       -843.6164
  -1763216.22646  -1321917.21146  22666546.4814   22666553.4934
      1840.3284       1434.0224
   2251655.38446   1754538.01246  23049651.7474   23049659.8374
     -3007.6254      -2343.6044
  -1550703.58746  -1208335.94546  22667410.2164   22667417.5674
      1408.9844       1097.9104
    456147.28448    295021.19147  21616252.2864   21616258.5564
     -1065.0314       -829.8944
  -1396462.13948  -1054299.27347  21164687.1144   21164694.1734
      1233.5944        961.2424
 98  6 17 15 52 30.0010000  0  7G 2G 4G 5G 7G 8G 9G24
   2637738.59245   2055380.24645  24159633.4034   24159642.9464
     -3510.2504      -2735.2604
    476087.74448    311377.90847  20851787.2864   20851792.9814
     -1098.9694       -856.3394
  -1790757.64646  -1343378.05046  22661305.7164   22661312.4314
      1831.6414       1427.2524
   2296820.46246   1789731.55646  23058246.4274   23058254.5634
     -3014.6254      -2349.0584
  -1571730.01946  -1224720.17646  22663408.6854   22663416.1304
      1394.3134       1086.4774
    472237.81248    307559.25747  21619314.3884   21619320.6104
     -1080.5624       -841.9974
  -1414860.74648  -1068635.84047  21161185.8644   21161192.8414
      1219.3594        950.1504
 98  6 17 15 52 45.0010000  0  7G 2G 4G 5G 7G 8G 9G24
   2690472.01645   2096471.18145  24169668.2634   24169678.2394
     -3520.6564      -2743.3694
    492693.44248    324317.41447  20854947.3104   20854952.9704
     -1114.9844       -868.8194
  -1818169.29246  -1364737.77446  22656089.2784   22656096.4314
      1823.4534       1420.8734
   2342091.44846   1825007.62646  23066861.5214   23066869.7394
     -3021.3444      -2354.2944
  -1592537.58546  -1240933.85346  22659449.2714   22659456.3764
      1380.2344       1075.5074
    488561.56248    320279.04947  21622420.5604   21622426.9354
     -1095.7344       -853.8194
  -1433045.70048  -1082805.92647  21157725.4814   21157732.4464
      1205.5004        939.3514
 98  6 17 15 53  0.0010000  0  7G 2G 4G 5G 7G 8G 9G24
   2743363.66545   2137685.35545  24179733.5604   24179742.7864
     -3530.8594      -2751.3194
    509543.02148    337446.95447  20858153.7864   20858159.5054
     -1130.8754       -881.2014
  -1845456.19446  -1386000.28746  22650896.9034   22650903.5244
      1815.5784       1414.7364
   2387466.96346   1860365.14546  23075496.1064   23075504.2434
     -3028.0164      -2359.4934
  -1613131.16746  -1256980.80246  22655530.4114   22655537.5054
      1366.2974       1064.6474
    505116.27248    333178.81647  21625570.9274   21625577.3134
     -1110.8284       -865.5804
  -1451021.13548  -1096812.74847  21154304.8564   21154311.7514
      1191.9534        928.7954
 98  6 17 15 53 15.0010000  0  7G 2G 4G 5G 7G 8G 9G24
   2796403.08945   2179014.75645  24189826.7164   24189836.1064
     -3541.1564      -2759.3434
    526622.38848    350755.55447  20861403.9814   20861409.7714
     -1146.4844       -893.3644
  -1872633.93946  -1407177.74346  22645725.4814   22645732.1964
      1807.9694       1408.8074
   2432937.85246   1895796.97846  23084148.8804   23084156.9934
     -3034.9694      -2364.9114
  -1633523.07846  -1272870.58446  22651650.2784   22651657.5484
      1352.5164       1053.9084
    521891.39048    346250.33047  21628763.0674   21628769.4074
     -1126.0314       -877.4274
  -1468798.84948  -1110665.49647  21150921.8254   21150928.6104
      1178.2344        918.1054
 98  6 17 15 53 30.0010000  0  7G 2G 4G 5G 7G 8G 9G24
   2849593.51845   2220461.75645  24199948.4424   24199957.7164
     -3550.8284      -2766.8794
    543933.62748    364244.83447  20864698.1384   20864703.9034
     -1161.6414       -905.1754
  -1899699.08446  -1428267.45546  22640574.9814   22640581.7784
      1800.7344       1403.1704
   2478512.75246   1931309.86446  23092821.6924   23092829.7714
     -3041.5624      -2370.0494
  -1653711.83546  -1288602.08246  22647808.2784   22647815.4544
      1339.3594       1043.6574
    538891.92148    359497.48947  21631998.2084   21632004.6424
     -1140.6724       -888.8354
  -1486373.04448  -1124359.66247  21147577.6774   21147584.6774
      1165.0634        907.8414
 98  6 17 15 53 45.0010000  0  7G 2G 4G 5G 7G 8G 9G24
   2902941.18845   2262031.34345  24210099.9974   24210110.4194
     -3561.6414      -2775.3044
    561484.33948    377920.71147  20868037.7864   20868043.6344
     -1177.9224       -917.8614
  -1926642.53046  -1449262.34446  22635447.4274   22635454.2124
      1792.2504       1396.5584
   2524196.34346   1966907.44946  23101514.9274   23101522.6774
     -3048.9844      -2375.8324
  -1673689.87546  -1304169.38246  22644006.5214   22644013.3644
      1324.8594       1032.3584
    556125.07548    372925.90747  21635277.4894   21635283.7824
     -1156.5474       -901.2054
  -1503737.92848  -1137890.72647  21144273.2474   21144280.3294
      1150.7664        896.7004
 98  6 17 15 54  0.0010000  0  7G 2G 4G 5G 7G 8G 9G24
   2956447.22845   2303724.26445  24220282.1144   24220292.0324
     -3572.1874      -2783.5234
    579275.74448    391784.14247  20871423.3884   20871429.2594
     -1193.9374       -930.3414
  -1953461.21746  -1470160.01546  22630344.2004   22630351.0604
      1783.8754       1390.0324
   2569985.28746   2002587.11646  23110228.2474   23110235.9624
     -3055.8444      -2381.1774
  -1693453.26046  -1319569.41246  22640245.7784   22640252.9314
      1310.5314       1021.1934
    573591.75148    386536.29047  21638601.4504   21638607.8024
     -1172.0474       -913.2834
  -1520892.23348  -1151257.70147  21141008.9584   21141015.9934
      1136.7974        885.8164
 98  6 17 15 54 15.0010000  0  7G 2G 4G 5G 7G 8G 9G24
   3010112.22445   2345541.09245  24230493.8104   24230503.7634
     -3582.8444      -2791.8264
    597305.61048    405833.39247  20874854.3104   20874860.1344
     -1209.7814       -942.6874
  -1980154.67247  -1490960.10346  22625264.6924   22625271.2204
      1775.5164       1383.5194
   2615875.00246   2038345.31646  23118960.7714   23118968.8374
     -3062.5004      -2386.3644
  -1713002.06746  -1334802.24846  22636525.2554   22636532.2314
      1296.1884       1010.0164
    591289.52248    400326.74847  21641969.1384   21641975.5364
     -1187.3444       -925.2034
  -1537836.41248  -1164460.94647  21137784.4584   21137791.4934
      1122.6414        874.7854
 98  6 17 15 54 30.0010000  0  7G 2G 4G 5G 7G 8G 9G24
   3063926.91545   2387474.55945  24240734.2474   24240744.2944
     -3592.5004      -2799.3514
    615564.05648    420060.75247  20878328.9194   20878334.7314
     -1224.7504       -954.3514
  -2006734.65246  -1511671.76346  22620206.3804   22620213.0244
      1768.4534       1378.0154
   2661854.58846   2074173.53346  23127710.0834   23127718.1734
     -3068.1564      -2390.7714
  -1732346.22146  -1349875.61046  22632844.5054   22632851.8104
      1282.9534        999.7044
    609205.10848    414286.93147  21645378.4584   21645384.8454
     -1201.4374       -936.1854
  -1554575.94148  -1177504.72247  21134598.9664   21134605.9784
      1109.2664        864.3634
 98  6 17 15 54 45.0010000  0  7G 2G 4G 5G 7G 8G 9G24
   3117886.27545   2429520.72945  24251002.7244   24251011.7394
     -3602.2814      -2806.9724
    634047.89448    434463.74547  20881846.3024   20881851.9274
     -1239.9844       -966.2224
  -2033208.67347  -1532300.86146  22615168.8104   22615175.6924
      1761.2034       1372.3664
   2707920.10246   2110068.72046  23136476.4034   23136483.9194
     -3074.1254      -2395.4224
  -1751491.35346  -1364793.89046  22629201.4194   22629208.5604
      1269.4844        989.2094
    627332.61348    428412.25247  21648827.8104   21648834.2314
     -1215.8284       -947.3994
  -1571115.34748  -1190392.55547  21131451.6534   21131458.5244
      1095.7344        853.8194
 98  6 17 15 55  0.0010000  0  7G 2G 4G 5G 7G 8G 9G24
   3171996.02945   2471684.13645  24261299.6534   24261309.0214
     -3611.8754      -2814.4484
    652764.67948    449048.25347  20885407.9504   20885413.7394
     -1255.1564       -978.0444
  -2059568.56047  -1552841.03246  22610152.6224   22610159.4074
      1753.8754       1366.6564
   2754080.24146   2146037.63046  23145260.3884   23145268.1734
     -3080.1414      -2400.1104
  -1770428.06846  -1379549.76346  22625597.9894   22625604.9544
      1255.7974        978.5434
    645682.49848    442710.84747  21652319.8564   21652326.3374
     -1230.4064       -958.7584
  -1587446.05548  -1203117.77347  21128343.9584   21128350.7434
      1082.1414        843.2264
 98  6 17 15 55 15.0010000  0  7G 2G 4G 5G 7G 8G 9G24
   3226253.92645   2513962.94145  24271624.5054   24271634.2004
     -3621.6414      -2822.0584
    671714.14848    463814.07347  20889013.8494   20889019.5914
     -1270.5474       -990.0374
  -2085810.81547  -1573289.53046  22605158.8964   22605165.6224
      1745.8914       1360.4344
   2800336.23246   2182081.23046  23154062.6464   23154070.4194
     -3086.4694      -2405.0414
  -1789151.60346  -1394139.51946  22622034.7864   22622041.7164
      1241.5164        967.4154
    664256.27748    457183.91147  21655854.3804   21655860.6034
     -1245.2194       -970.3004
  -1603567.74748  -1215680.11147  21125275.9974   21125282.7354
      1068.2504        832.4034
 98  6 17 15 55 30.0010000  0  8G 2G 4G 5G 7G 8G 9G16G24
   3280643.85545   2556344.64845  24281974.9814   24281985.2864
     -3630.3754      -2828.8644
    690880.08948    478748.57247  20892661.0134   20892666.7434
     -1284.9844      -1001.2874
  -2111944.42547  -1593653.37346  22600185.8174   22600192.6264
      1738.5314       1354.7004
   2846673.56146   2218188.21846  23162880.4584   23162888.5014
     -3091.8284      -2409.2174
  -1807673.93646  -1408572.50046  22618510.1064   22618517.0954
      1228.0944        956.9564
    683038.39748    471819.32047  21659428.3724   21659434.5134
     -1259.0944       -981.1124
      1847.34355                  24800671.5364
      -371.8914
  -1619494.18948  -1228090.31147  21122245.2714   21122252.3174
      1055.2664        822.2854
 98  6 17 15 55 45.0010000  0  8G 2G 4G 5G 7G 8G 9G16G24
   3335173.01545   2598834.84645  24292351.3644   24292361.6224
     -3639.7034      -2836.1324
    710271.48648    493858.75247  20896351.0134   20896356.7434
     -1300.1094      -1013.0724
  -2137959.56347  -1613924.89646  22595235.2244   22595242.0444
      1730.6414       1348.5514
   2893096.96546   2254362.26446  23171714.5444   23171722.3884
     -3097.4694      -2413.6124
  -1825986.36946  -1422841.92246  22615025.4584   22615032.4814
      1214.0004        945.9744
    702035.46448    486622.21447  21663043.5444   21663049.7784
     -1273.4224       -992.2774
      7526.27645                  24801751.9034
      -384.8284
  -1635218.90148  -1240343.31747  21119252.8564   21119260.0324
      1041.8134        811.8024
 98  6 17 15 56  0.0010000  0  8G 2G 4G 5G 7G 8G 9G16G24
   3389830.38145   2641424.91645  24302752.7944   24302762.5244
     -3649.2974      -2843.6084
    729878.61848    509137.03647  20900082.2784   20900088.1964
     -1315.5164      -1025.0774
  -2163868.39647  -1634113.59046  22590305.1534   22590311.8334
      1722.5314       1342.2324
   2939593.50546   2290593.31746  23180562.9424   23180571.1034
     -3103.4844      -2418.3004
  -1844096.76746  -1436953.91346  22611579.4424   22611586.1574
      1199.3914        934.5904
    721237.91648    501585.15547  21666697.4974   21666703.9784
     -1288.2504      -1003.8314
     13388.79545                  24802867.5994
      -398.1874
  -1650753.20848  -1252447.95047  21116296.8174   21116304.0994
      1028.0164        801.0514
 98  6 17 15 56 15.0010000  0  8G 2G 4G 5G 7G 8G 9G16G24
   3444640.21345   2684133.82745  24313182.2314   24313192.5714
     -3658.4694      -2850.7554
    749725.24448    524601.93947  20903858.8104   20903864.7044
     -1330.5004      -1036.7534
  -2189647.27647  -1654201.01246  22585399.4974   22585406.4274
      1714.9064       1336.2914
   2986191.40246   2326903.33546  23189429.7314   23189437.9854
     -3109.4064      -2422.9144
  -1861980.45846  -1450889.25846  22608176.0994   22608182.5564
      1185.2504        923.5714
    740672.28248    516728.80647  21670395.7714   21670402.1694
     -1302.8284      -1015.1914
     19459.42245                  24804022.8964
      -411.0784
  -1666070.23848  -1264383.28147  21113382.2394   21113389.3214
      1014.4694        790.4954
 98  6 17 15 56 30.0010000  0  8G 2G 4G 5G 7G 8G 9G16G24
   3499585.08145   2726947.92145  24323638.5214   24323648.0754
     -3667.3124      -2857.6464
    769794.97648    540240.68947  20907678.0754   20907683.9814
     -1345.3444      -1048.3204
  -2215314.72947  -1674201.62246  22580514.9424   22580521.6924
      1707.6094       1330.6054
   3032878.23246   2363282.64846  23198314.2784   23198322.2984
     -3115.4224      -2427.6014
  -1879653.65846  -1464660.57746  22604813.1384   22604819.6884
      1171.2814        912.6874
    760324.34148    532042.08647  21674135.7554   21674142.1304
     -1317.3444      -1026.5024
     25722.38345      2295.22555  24805215.0364   24805224.4854
      -423.8754       -330.2924
  -1681185.09948  -1276161.07947  21110505.8724   21110512.8604
      1000.9694        779.9764
 98  6 17 15 56 45.0010000  0  8G 2G 4G 5G 7G 8G 9G16G24
   3554660.54545   2769863.82245  24334118.9424   24334129.6344
     -3676.3124      -2864.6594
    790085.88348    556051.78547  20911539.3494   20911545.0214
     -1360.2974      -1059.9724
  -2240874.26447  -1694118.13046  22575651.2634   22575658.0244
      1700.0474       1324.7124
   3079655.01946   2399732.07446  23207215.1774   23207223.5014
     -3121.6874      -2432.4844
  -1897117.88746  -1478269.06246  22601489.6854   22601496.4814
      1157.0474        901.5954
    780193.28648    547524.36847  21677916.5994   21677922.8924
     -1332.0944      -1037.9954
     32176.25245      7324.20545  24806442.7004   24806450.5094
      -436.8914       -340.4344
  -1696098.65248  -1287782.01347  21107668.0834   21107674.8684
       987.3594        769.3714
 98  6 17 15 57  0.0010000  0  8G 2G 4G 5G 7G 8G 9G16G24
   3609866.32645   2812881.23445  24344624.1064   24344634.0954
     -3683.9224      -2870.5884
    810595.95648    572033.66147  20915442.2244   20915447.8494
     -1373.8594      -1070.5404
  -2266322.36847  -1713947.81646  22570808.5754   22570815.1614
      1693.5314       1319.6354
   3126521.03546   2436251.01846  23216133.4894   23216141.5914
     -3126.5004      -2436.2344
  -1914371.99146  -1491713.81346  22598206.3414   22598213.0214
      1144.0634        891.4774
    800280.64848    563176.84447  21681739.0054   21681745.3214
     -1345.6874      -1048.5884
     38821.72145     12502.52145  24807707.6464   24807716.6614
      -448.6564       -349.6024
  -1710814.59348  -1299248.96047  21104867.6224   21104874.3844
       975.2814        759.9594
 98  6 17 15 57 15.0010000  0  8G 2G 4G 5G 7G 8G 9G16G24
   3665195.98045   2855995.19445  24355153.0214   24355163.5364
     -3692.8284      -2877.5284
    831320.36848    588182.55547  20919385.8964   20919391.7674
     -1388.9064      -1082.2654
  -2291661.36247  -1733692.47346  22565986.6144   22565993.3414
      1685.5314       1313.4014
   3173468.21446   2472833.21546  23225067.5834   23225075.1924
     -3132.5474      -2440.9464
  -1931420.50646  -1504998.36746  22594961.9114   22594968.7314
      1129.5944        880.2034
    820581.57948    578995.73847  21685602.1924   21685608.4624
     -1360.5624      -1060.1794
     45655.96845     17827.92945  24809007.3964   24809015.8604
      -462.1414       -360.1104
  -1725339.69848  -1310567.20147  21102103.4504   21102110.2594
       961.9694        749.5864
 98  6 17 15 57 30.0010000  0  8G 2G 4G 5G 7G 8G 9G16G24
   3720657.86945   2899212.17045  24365707.2394   24365715.7164
     -3701.9534      -2884.6394
    852268.82948    604506.02847  20923372.1224   20923377.7824
     -1404.0784      -1094.0874
  -2316882.97347  -1753345.66946  22561187.1694   22561193.9894
      1677.5634       1307.1924
   3220502.51546   2509483.29246  23234017.5754   23234025.6534
     -3138.5004      -2445.5844
  -1948256.23646  -1518117.10746  22591758.1774   22591765.0834
      1115.3594        869.1114
    841102.76048    594986.25747  21689507.4424   21689513.7714
     -1375.5164      -1071.8304
     52691.25745     23309.95645  24810346.2864   24810355.2434
      -475.7194       -370.6904
  -1739668.17148  -1321732.22547  21099376.6614   21099383.4814
       948.5944        739.1644
 98  6 17 15 57 45.0010000  0  8G 2G 4G 5G 7G 8G 9G16G24
   3776250.83945   2942531.31445  24376286.1304   24376296.5054
     -3710.8754      -2891.5914
    873438.33648    621001.74547  20927400.6304   20927406.3254
     -1418.9064      -1105.6414
  -2341994.38847  -1772913.00346  22556408.6534   22556415.4034
      1670.2814       1301.5184
   3267617.97546   2546196.60146  23242983.7084   23242991.5284
     -3143.9224      -2449.8094
  -1964886.09246  -1531075.42946  22588593.7084   22588600.6384
      1101.5314        858.3364
    861842.58248    611147.14547  21693453.9664   21693460.2124
     -1390.2034      -1083.2754
     59922.34345     28944.58445  24811723.3104   24811733.1224
      -488.8754       -380.9424
  -1753801.94848  -1332745.54047  21096687.1064   21096694.2244
       935.4844        728.9494
 98  6 17 15 58  0.0010000  0  8G 2G 4G 5G 7G 8G 9G16G24
   3831972.41945   2985950.66245  24386889.3724   24386899.8644
     -3719.2194      -2898.0934
    894825.25248    637666.87347  20931470.4744   20931476.2984
     -1433.2974      -1116.8554
  -2367002.49247  -1792399.83046  22551649.8174   22551656.6614
      1663.4844       1296.2224
   3314809.63746   2582969.30446  23251963.8564   23251971.7354
     -3148.9374      -2453.7184
  -1981312.76446  -1543875.42546  22585468.0754   22585475.1924
      1088.0784        847.8534
    882797.77248    627475.85547  21697441.3104   21697447.6264
     -1404.4374      -1094.3674
     67347.89745     34730.72845  24813135.5834   24813144.2474
      -501.8284       -391.0354
  -1767742.24148  -1343608.08847  21094034.4814   21094041.5054
       922.5634        718.8804
 98  6 17 15 58 15.0010000  0  8G 2G 4G 5G 7G 8G 9G16G24
   3887819.42345   3029467.72245  24397517.0994   24397527.4274
     -3727.5004      -2904.5454
    916428.66348    654500.70347  20935581.4274   20935586.9584
     -1447.6094      -1128.0074
  -2391907.43347  -1811806.26346  22546910.4584   22546917.3644
      1656.7194       1290.9504
   3362077.82846   2619801.62846  23260959.3804   23260967.3414
     -3153.9374      -2457.6144
  -1997536.79346  -1556517.52046  22582380.5604   22582387.6884
      1074.7344        837.4554
    903967.61948    643971.82447  21701469.9194   21701476.1534
     -1418.5944      -1105.3984
     74969.84045     40669.91045  24814586.8414   24814595.6464
      -514.8444       -401.1774
  -1781487.84648  -1354318.93247  21091418.7394   21091425.7164
       909.7504        708.8964
 98  6 17 15 58 30.0010000  0  8G 2G 4G 5G 7G 8G 9G16G24
   3943794.20945   3073084.39145  24408168.7714   24408179.7674
     -3735.5944      -2910.8524
    938251.77948    671505.72647  20939734.2784   20939740.1384
     -1461.9534      -1139.1844
  -2416706.45247  -1831130.17046  22542191.5604   22542198.2394
      1649.9534       1285.6784
   3409425.23046   2656695.68346  23269968.9894   23269976.7864
     -3158.8444      -2461.4374
  -2013556.95646  -1569000.76346  22579331.8334   22579338.7284
      1061.3914        827.0584
    925352.85748    660635.63447  21705539.7394   21705545.9974
     -1432.5314      -1116.2584
     82790.73446     46764.14545  24816074.9114   24816083.5054
      -527.8124       -411.2824
  -1795038.12448  -1364877.57447  21088840.2164   21088847.2284
       897.1884        699.1074
 98  6 17 15 58 45.0010000  0  8G 2G 4G 5G 7G 8G 9G16G24
   3999890.06245   3116795.39845  24418843.8884   24418855.4704
     -3743.4064      -2916.9404
    960290.86348    688679.03747  20943928.1854   20943934.0324
     -1476.1874      -1150.2764
  -2441401.30047  -1850372.89946  22537492.1144   22537498.9974
      1643.1254       1280.3574
   3456845.35046   2693646.40646  23278992.3564   23279000.0244
     -3163.4224      -2465.0044
  -2029375.51446  -1581326.89846  22576321.6924   22576328.7634
      1048.1724        816.7574
    946945.88248    677461.35547  21709648.5754   21709654.9504
     -1446.1254      -1126.8514
     90806.75745     53010.38045  24817600.4034   24817609.8994
      -540.5784       -421.2304
  -1808399.74248  -1375289.20547  21086297.5994   21086304.5524
       884.7664        689.4284
 98  6 17 15 59  0.0010000  0  8G 2G 4G 5G 7G 8G 9G16G24
   4056103.21945   3160597.77345  24429539.9354   24429550.3684
     -3750.9844      -2922.8454
    982543.41448    706018.68747  20948162.6694   20948168.5404
     -1490.0944      -1161.1124
  -2465993.57547  -1869535.70146  22532812.3564   22532818.9314
      1636.5944       1275.2684
   3504332.81246   2730649.58546  23288029.0364   23288037.1614
     -3167.5164      -2468.1944
  -2044996.33046  -1593498.96046  22573349.3254   22573356.6654
      1035.3134        806.7374
    968742.92248    694446.05347  21713796.4584   21713803.0324
     -1459.4064      -1137.2004
     99014.81845     59406.27745  24819162.3254   24819171.8564
      -553.0944       -430.9824
  -1821575.44748  -1385555.97047  21083790.1694   21083797.1814
       872.7194        680.0414
 98  6 17 15 59 15.0010000  0  8G 2G 4G 5G 7G 8G 9G16G24
   4112421.64245   3204482.18845  24440258.4274   24440268.6964
     -3758.9844      -2929.0794
   1004995.59248    723513.89147  20952435.1924   20952441.1814
     -1504.3444      -1172.2164
  -2490498.13547  -1888630.15446  22528149.2164   22528156.0604
      1629.9064       1270.0574
   3551873.79946   2767694.48646  23297075.8254   23297083.9624
     -3172.1254      -2471.7864
  -2060432.13746  -1605526.85246  22570411.7314   22570418.7204
      1022.0004        796.3644
    990730.01748    711578.84147  21717980.5054   21717986.9744
     -1472.9844      -1147.7804
    107401.45345     65941.31745  24820757.8104   24820768.2084
      -565.9224       -440.9784
  -1834578.00448  -1395687.81347  21081315.8644   21081322.8294
       860.1254        670.2274
 98  6 17 15 59 30.0010000  0  8G 2G 4G 5G 7G 8G 9G16G24
   4168858.42545   3248458.85945  24450997.1924   24451006.6184
     -3766.0784      -2934.6064
   1027658.54548    741173.33347  20956747.7474   20956753.5954
     -1517.4844      -1182.4554
  -2514906.69647  -1907649.80046  22523504.4034   22523511.0244
      1624.5164       1265.8564
   3599483.23946   2804792.73246  23306135.7474   23306144.1884
     -3175.9534      -2474.7694
  -2075670.74446  -1617401.08446  22567511.9504   22567519.0094
      1009.7504        786.8184
   1012916.61148    728867.07747  21722202.4974   21722208.8134
     -1485.3594      -1157.4234
    115977.34445     72623.81545  24822389.9584   24822400.1574
      -577.6094       -450.0854
  -1847392.78148  -1405673.33847  21078877.5834   21078884.5714
       848.4384        661.1204
 98  6 17 15 59 45.0010000  0  8G 2G 4G 5G 7G 8G 9G16G24
   4225409.22345   3292524.33045  24461759.0284   24461769.4974
     -3774.3444      -2941.0474
   1050524.01848    758990.58347  20961098.8804   20961104.7164
     -1531.5784      -1193.4374
  -2539228.14847  -1926601.57446  22518876.3564   22518883.0954
      1618.0004       1260.7794
   3647158.36546   2841942.14746  23315207.4274   23315215.7284
     -3181.1254      -2478.7994
  -2090718.84746  -1629126.87746  22564648.6694   22564655.7284
       996.2814        776.3234
   1035296.25348    746305.74547  21726461.1694   21726467.5444
     -1498.9694      -1168.0284
    124732.20745     79445.79545  24824055.7004   24824064.9034
      -590.0314       -459.7654
  -1860023.16648  -1415515.18147  21076473.8564   21076480.9034
       835.2344        650.8324
 98  6 17 16  0  0.0010000  0  8G 2G 4G 5G 7G 8G 9G16G24
   4282086.59045   3336688.47445  24472544.1694   24472553.6424
     -3782.5624      -2947.4514
   1073603.57448    776974.65147  20965490.7634   20965496.7284
     -1545.6564      -1204.4074
  -2563447.18747  -1945473.54246  22514267.5754   22514274.1854
      1611.2194       1255.4954
   3694916.55046   2879156.28946  23324296.1224   23324303.8844
     -3186.6094      -2483.0724
  -2105559.37746  -1640690.91546  22561824.3254   22561831.1464
       982.5164        765.5974
   1057883.71748    763906.35347  21730759.3884   21730765.8684
     -1512.6254      -1178.6694
    133678.20545     86416.70745  24825758.4744   24825767.7944
      -602.7504       -469.6754
  -1872451.60348  -1425199.65847  21074108.8724   21074115.8494
       821.9694        640.4954
 98  6 17 16  0 15.0010000  0  8G 2G 4G 5G 7G 8G 9G16G24
   4338870.56845   3380935.65845  24483349.6614   24483360.4934
     -3789.4694      -2952.8334
   1096879.84248    795112.00447  20969920.2394   20969925.8994
     -1558.6564      -1214.5374
  -2587578.97147  -1964277.51846  22509675.4894   22509682.0994
      1605.5004       1251.0394
   3742742.06046   2916422.90346  23333397.1464   23333404.9074
     -3190.9694      -2486.4694
  -2120209.06846  -1652106.25646  22559036.5524   22559043.3724
       969.9694        755.8204
   1080660.30448    781654.33047  21735093.7474   21735100.1694
     -1525.0944      -1188.3854
    142797.49045     93522.65545  24827493.2474   24827502.0054
      -613.9374       -478.3934
  -1884698.41848  -1434742.60747  21071778.3494   21071785.3134
       810.1564        631.2914
 98  6 17 16  0 30.0010000  0  8G 2G 4G 5G 7G 8G 9G16G24
   4395769.70045   3425272.56345  24494176.6464   24494186.8334
     -3797.3754      -2958.9944
   1120360.05048    813408.26847  20974388.2714   20974393.9314
     -1572.3594      -1225.2154
  -2611614.92747  -1983006.82546  22505101.5914   22505108.1774
      1599.0004       1245.9744
   3790643.82246   2953748.92146  23342512.3104   23342520.0714
     -3196.2814      -2490.6094
  -2134661.70146  -1663368.05046  22556286.3024   22556293.4894
       956.7344        745.5074
   1103634.61448    799556.37747  21739465.5364   21739471.9114
     -1538.4064      -1198.7584
    152092.47345    100765.48845  24829262.3724   24829273.6734
      -625.7344       -487.5854
  -1896759.45648  -1444140.80547  21069483.1224   21069490.0874
       797.6724        621.5634
 98  6 17 16  0 45.0010000  0  8G 2G 4G 5G 7G 8G 9G16G24
   4452779.02545   3469695.36645  24505025.7004   24505035.6064
     -3803.6724      -2963.9004
   1144036.86648    831857.72947  20978893.9354   20978899.5714
     -1584.2814      -1234.5054
  -2635561.54947  -2001666.52346  22500544.5444   22500551.1184
      1594.0784       1242.1394
   3838617.67646   2991131.12546  23351641.4114   23351649.6534
     -3199.9694      -2493.4824
  -2148922.74946  -1674480.54546  22553572.3884   22553579.4464
       944.9224        736.3034
   1126799.79448    817607.15147  21743873.8254   21743880.0834
     -1550.0624      -1207.8414
    161556.90145    108140.36945  24831063.1064   24831073.5634
      -635.9844       -495.5724
  -1908640.95048  -1453399.09947  21067222.2164   21067229.2284
       786.7194        613.0284
 98  6 17 16  1  0.0010000  0  8G 2G 4G 5G 7G 8G 9G16G24
   4509891.41345   3514198.50345  24515894.0214   24515903.7284
     -3811.4374      -2969.9514
   1167897.76048    850450.63347  20983434.3884   20983440.1654
     -1597.2814      -1244.6354
  -2659427.62047  -2020263.45246  22496003.0914   22496009.5834
      1588.0314       1237.4274
   3886653.51546   3028561.63046  23360782.3724   23360790.3104
     -3204.9374      -2497.3544
  -2163000.79946  -1685450.45346  22550893.7084   22550900.6964
       932.0944        726.3074
   1150147.16248    835799.89547  21748316.7314   21748323.1774
     -1563.0314      -1217.9464
    171182.72445    115641.01845  24832895.1924   24832905.0754
      -647.6254       -504.6434
  -1920349.62148  -1462522.72347  21064994.0364   21065001.0134
       774.3594        603.3974
 98  6 17 16  1 15.0010000  0  8G 2G 4G 5G 7G 8G 9G16G24
   4567130.31745   3558800.14245  24526786.3804   24526796.1694
     -3820.5004      -2977.0134
   1191960.39748    869200.73847  20988013.4354   20988019.3294
     -1611.1724      -1255.4594
  -2683195.82447  -2038784.11946  22491480.1924   22491486.7084
      1580.9224       1231.8874
   3934771.66046   3066056.26046  23369939.2554   23369947.3454
     -3210.9224      -2502.0174
  -2176880.22546  -1696265.58546  22548252.2554   22548259.1264
       918.3444        715.5934
   1173696.12448    854149.71947  21752797.8494   21752804.3294
     -1576.9374      -1228.7824
    180991.80345    123284.47145  24834761.4354   24834771.0954
      -660.3914       -514.5904
  -1931868.31248  -1471498.31047  21062802.0834   21062809.1184
       761.3754        593.2794
 98  6 17 16  1 30.0010000  0  8G 2G 4G 5G 7G 8G 9G16G24
   4624498.59645   3603502.64945  24537702.6064   24537712.6064
     -3828.2974      -2983.0884
   1216226.61548    888109.47647  20992631.2944   20992637.0714
     -1624.1094      -1265.5404
  -2706860.41347  -2057224.04746  22486976.8964   22486982.9664
      1574.6254       1226.9814
   3982974.01746   3103616.50546  23379111.7634   23379120.1224
     -3215.7344      -2505.7674
  -2190557.39546  -1706923.11246  22545649.5604   22545656.2634
       905.5944        705.6574
   1197448.85448    872658.32947  21757317.8644   21757324.4034
     -1589.8284      -1238.8274
    190988.29245    131073.95145  24836663.4744   24836673.0994
      -672.2194       -523.8074
  -1943197.29648  -1480326.07247  21060646.4114   21060653.5874
       749.4844        584.0144
 98  6 17 16  1 45.0010000  0  8G 2G 4G 5G 7G 8G 9G16G24
   4681989.99745   3648301.07645  24548644.2084   24548653.2244
     -3836.9064      -2989.7974
   1240695.27748    907175.96547  20997287.4354   20997293.3644
     -1638.0944      -1276.4374
  -2730422.22147  -2075583.89346  22482493.2714   22482499.9384
      1567.1884       1221.1854
   4031254.75946   3141237.84446  23388299.2714   23388306.8564
     -3221.3594      -2510.1504
  -2204037.75546  -1717427.28646  22543084.5054   22543091.0444
       892.0634        695.1144
   1221402.77448    891323.70847  21761876.0444   21761882.4424
     -1603.7974      -1249.7124
    201170.52245    139008.13045  24838601.1064   24838610.6964
      -685.1874       -533.9124
  -1954340.86748  -1489009.35747  21058525.8494   21058532.7784
       736.6414        574.0064
 98  6 17 16  2  0.0010000  0  8G 2G 4G 5G 7G 8G 9G16G24
   4739602.63645   3693193.97445  24559606.4354   24559616.1534
     -3844.7344      -2995.8974
   1265366.84948    926400.56547  21001982.2164   21001988.0524
     -1651.4534      -1286.8474
  -2753876.83447  -2093860.20946  22478029.9974   22478036.5604
      1560.0944       1215.6574
   4079612.17746   3178918.93346  23397501.5604   23397509.3214
     -3226.2344      -2513.9494
  -2217320.66546  -1727777.60046  22540557.0214   22540563.8534
       879.0164        684.9474
   1245560.72348    910148.06847  21766473.2084   21766479.5014
     -1617.2194      -1260.1704
    211541.89145    147089.71845  24840574.6534   24840584.8294
      -697.6724       -543.6404
  -1965299.11048  -1497548.23447  21056440.7164   21056447.6924
       724.5634        564.5944
 98  6 17 16  2 15.0010000  0  8G 2G 4G 5G 7G 8G 9G16G24
   4797328.66445   3738175.26245  24570591.3024   24570602.0754
     -3852.9374      -3002.2894
   1290235.03548    945778.36747  21006714.5284   21006720.4704
     -1665.1724      -1297.5374
  -2777229.15147  -2112056.81346  22473586.2394   22473592.9894
      1552.7664       1209.9474
   4128036.49846   3216652.13246  23406716.2784   23406724.3564
     -3231.1254      -2517.7604
  -2230412.45746  -1737978.98846  22538065.6144   22538072.7204
       865.7664        674.6234
   1269914.55348    929125.06547  21771107.4114   21771113.7284
     -1630.7664      -1270.7264
    222096.81645    155314.35745  24842583.3334   24842593.5214
      -710.4534       -553.6004
  -1976083.39948  -1505951.56547  21054388.4814   21054395.4234
       712.5164        555.2074
 98  6 17 16  2 30.0010000  0  8G 2G 4G 5G 7G 8G 9G16G24
   4855186.49745   3783259.21545  24581602.1464   24581612.3684
     -3860.8444      -3008.4504
   1315316.40848    965322.29347  21011487.2784   21011493.1144
     -1678.3914      -1307.8374
  -2800465.48247  -2130163.03346  22469164.5754   22469171.1854
      1546.0314       1204.7004
   4176540.21946   3254447.20846  23415946.2084   23415954.1224
     -3235.4534      -2521.1324
  -2243298.60046  -1748020.13346  22535613.2634   22535620.1344
       853.0004        664.6754
   1294478.34748    948265.67247  21775781.9354   21775788.2864
     -1643.7814      -1280.8694
    232849.96945    163693.41945  24844629.3334   24844639.1574
      -722.7664       -563.1944
  -1986679.71348  -1514208.41747  21052371.8494   21052378.7554
       700.8754        546.1364
 98  6 17 16  2 45.0010000  0  8G 2G 4G 5G 7G 8G 9G16G24
   4913166.96545   3828438.75445  24592635.3804   24592645.8254
     -3869.2974      -3015.0374
   1340599.76748    985023.61047  21016298.5284   21016304.4234
     -1692.1874      -1318.5884
  -2823596.99047  -2148187.58046  22464762.7864   22464769.2904
      1538.7504       1199.0264
   4225112.56746   3292295.76546  23425188.8254   23425197.3604
     -3240.2504      -2524.8704
  -2255989.85846  -1757909.41446  22533198.3564   22533205.3804
       839.7034        654.3144
   1319240.87448    967561.13447  21780494.0444   21780500.3964
     -1657.3124      -1291.4124
    243794.32945    172221.53545  24846712.0054   24846721.7354
      -736.0004       -573.5064
  -1997095.26148  -1522324.41147  21050389.8174   21050396.8644
       688.4384        536.4454
 98  6 17 16  3  0.0010000  0  8G 2G 4G 5G 7G 8G 9G16G24
   4971266.85945   3873711.32545  24603691.5214   24603702.7394
     -3877.7504      -3021.6234
   1366083.36348   1004880.95447  21021147.9744   21021153.7164
     -1705.9694      -1329.3264
  -2846625.96547  -2166132.23146  22460380.3414   22460387.0324
      1531.4384       1193.3284
   4273748.21046   3330193.63446  23434444.1464   23434452.6104
     -3244.8444      -2528.4504
  -2268487.77046  -1767648.04346  22530820.2084   22530827.1854
       826.3134        643.8804
   1344199.99348    987009.78747  21785243.4354   21785249.8804
     -1670.9064      -1302.0054
    254932.14845    180900.35045  24848832.2784   24848842.5484
      -749.3754       -583.9294
  -2007330.49348  -1530299.89747  21048442.1774   21048449.4114
       675.8594        526.6444
 98  6 17 16  3 15.0010000  0  8G 2G 4G 5G 7G 8G 9G16G24
   5029489.34245   3919079.43545  24614769.2944   24614780.2674
     -3885.1254      -3027.3704
   1391770.94248   1024897.25047  21026036.1384   21026041.9854
     -1718.9374      -1339.4324
  -2869550.63247  -2183995.60546  22456018.2944   22456025.0214
      1525.3134       1188.5554
   4322448.83446   3368142.14246  23443711.6694   23443719.7824
     -3248.4374      -2531.2504
  -2280789.42046  -1777233.73646  22528478.9814   22528486.1814
       814.0004        634.2864
   1369357.80948   1006613.27047  21790031.0674   21790037.4424
     -1683.3444      -1311.6964
    266265.64045    189731.63045  24850988.2944   24850998.8454
      -761.6254       -593.4744
  -2017380.25748  -1538130.86447  21046529.6774   21046536.7714
       664.2034        517.5614
 98  6 17 16  3 30.0010000  0  8G 2G 4G 5G 7G 8G 9G16G24
   5087824.06545   3964535.02945  24625871.3334   24625879.7864
     -3892.5624      -3033.1664
   1417656.92348   1045068.14347  21030962.0214   21030967.9504
     -1732.2974      -1349.8424
  -2892379.60347  -2201784.39746  22451673.8644   22451680.5794
      1518.7974       1183.4784
   4371206.11846   3406134.80746  23452990.0524   23452998.1304
     -3252.3444      -2534.2944
  -2292900.72146  -1786671.10646  22526174.6064   22526181.9584
       801.0004        624.1564
   1394705.01448   1026364.32347  21794854.4504   21794860.7784
     -1696.0944      -1321.6314
    277784.55345    198707.38345  24853180.4274   24853191.0714
      -773.9694       -603.0934
  -2027250.21248  -1545821.72147  21044651.5524   21044658.5404
       651.8754        507.9554
 98  6 17 16  3 45.0010000  0  8G 2G 4G 5G 7G 8G 9G16G24
   5146271.25345   4010078.23645  24636993.7784   24637003.9424
     -3900.0944      -3039.0344
   1443745.26248   1065396.71547  21035926.6304   21035932.5364
     -1745.8444      -1360.3984
  -2915111.53147  -2219497.58746  22447348.2394   22447354.5444
      1512.5164       1178.5844
   4420025.65546   3444175.97546  23462280.0054   23462288.4464
     -3256.6254      -2537.6304
  -2304814.20746  -1795954.34046  22523907.5054   22523914.6104
       787.7664        613.8434
   1420245.64148   1046266.09247  21799714.9354   21799721.2164
     -1709.0164      -1331.7004
    289490.48545    207828.91945  24855407.5054   24855416.7314
      -786.5004       -612.8574
  -2036930.10348  -1553364.47947  21042809.4664   21042816.4664
       639.0474        497.9594
 98  6 17 16  4  0.0010000  0  7G 4G 5G 7G 8G 9G16G24
   1470027.91448   1085876.70147  21040927.9744   21040933.8684
     -1759.0004      -1370.6494
  -2937758.04247  -2237144.21046  22443038.4584   22443044.9744
      1506.4694       1173.8724
   4468902.08046   3482261.45846  23471580.9894   23471589.5954
     -3260.7504      -2540.8444
  -2316535.22546  -1805087.60046  22521677.0674   22521683.8534
       774.4694        603.4824
   1445972.15548   1066312.71547  21804610.4744   21804616.9074
     -1721.7194      -1341.5994
    301376.60745    217090.83945  24857669.6224   24857679.3414
      -798.8124       -622.4514
  -2046424.38548  -1560762.60847  21041002.8414   21041009.8534
       626.3594        488.0724
 98  6 17 16  4 15.0010000  0  7G 4G 5G 7G 8G 9G16G24
   1496503.09448   1106506.70547  21045966.0994   21045971.8534
     -1770.7194      -1379.7814
  -2960318.54147  -2254723.81846  22438745.4974   22438752.0244
      1501.9694       1170.3654
   4517836.04046   3520391.80146  23480893.2864   23480901.0484
     -3263.4374      -2542.9384
  -2328060.75646  -1814068.52546  22519483.7314   22519490.9194
       762.5944        594.2294
   1471884.15348   1086503.87347  21809541.2474   21809547.8334
     -1732.8914      -1350.3044
    313441.85145    226492.31845  24859966.1534   24859975.4854
      -809.5474       -630.8164
  -2055733.33348  -1568016.31947  21039231.2864   21039238.3104
       615.1094        479.3064
 98  6 17 16  4 30.0010000  0  7G 4G 5G 7G 8G 9G16G24
   1523161.23848   1127279.28647  21051038.8564   21051044.6694
     -1783.7194      -1389.9114
  -2982806.32447  -2272246.75946  22434466.3334   22434472.9544
      1496.3594       1165.9944
   4566817.28046   3558558.97546  23490213.9504   23490221.5714
     -3267.4534      -2546.0674
  -2339402.97446  -1822906.60446  22517325.2244   22517332.3174
       749.7034        584.1844
   1497970.96348   1106831.25147  21814505.4354   21814511.9384
     -1745.3914      -1360.0454
    325675.53445    236025.06845  24862293.9274   24862303.0134
      -821.6564       -640.2524
  -2064864.30448  -1575131.34847  21037493.8724   21037500.9194
       602.3134        469.3344
 98  6 17 16  4 45.0010000  0  7G 4G 5G 7G 8G 9G16G24
   1550013.87848   1148203.41447  21056148.7474   21056154.6064
     -1796.1414      -1399.5904
  -3005209.47047  -2289703.74746  22430202.9194   22430209.4464
      1491.2034       1161.9764
   4615859.61046   3596773.75046  23499546.2474   23499554.3724
     -3271.0474      -2548.8684
  -2350553.69646  -1831595.47446  22515203.5214   22515210.3804
       737.5004        574.6754
   1524245.01648   1127304.52747  21819505.2714   21819511.8454
     -1757.3914      -1369.3954
    338090.98945    245699.42845  24864656.5054   24864666.1424
      -833.2814       -649.3104
  -2073803.44648  -1582096.90247  21035792.9974   21035799.9744
       590.0474        459.7774
 98  6 17 16  5  0.0010000  0  7G 4G 5G 7G 8G 9G16G24
   1577057.49548   1169276.35947  21061295.0134   21061300.9424
     -1809.9224      -1410.3294
  -3027529.21747  -2307095.75746  22425955.7864   22425962.3724
      1484.5474       1156.7904
   4664960.16946   3635033.89746  23508889.6064   23508897.6854
     -3275.9224      -2552.6664
  -2361516.19346  -1840137.67746  22513117.2394   22513124.1344
       723.8594        564.0464
   1550705.69148   1147923.22847  21824540.2394   21824546.6614
     -1770.9064      -1379.9274
    350686.22045    255513.89945  24867053.3564   24867063.2284
      -846.3284       -659.4764
  -2082554.55648  -1588915.93447  21034127.4664   21034134.4784
       576.5784        449.2824
 98  6 17 16  5 15.0010000  0  7G 4G 5G 7G 8G 9G16G24
   1604293.61948   1190499.30847  21066477.9504   21066483.9384
     -1822.5004      -1420.1304
  -3049763.22247  -2324420.94546  22421724.6224   22421731.2204
      1479.0474       1152.5044
   4714120.11146   3673340.32546  23518244.5444   23518252.2594
     -3279.6724      -2555.5884
  -2372286.78346  -1848530.33846  22511067.7864   22511074.4664
       711.2664        554.2334
   1577353.30148   1168687.58647  21829611.2474   21829617.6814
     -1782.9844      -1389.3384
    363461.80645    265468.90945  24869483.8334   24869493.4814
      -857.9374       -668.5234
  -2091118.41448  -1595589.05847  21032497.8644   21032504.8174
       564.3594        439.7614
 98  6 17 16  5 30.0010000  0  7G 4G 5G 7G 8G 9G16G24
   1631722.50148   1211872.45847  21071697.3174   21071703.1654
     -1835.1874      -1430.0164
  -3071910.53747  -2341678.58746  22417510.1854   22417516.7004
      1473.3284       1148.0484
   4763341.01246   3711694.25046  23527610.7084   23527618.5174
     -3283.6564      -2558.6934
  -2382866.23346  -1856774.06146  22509054.7714   22509061.3564
       698.7974        544.5174
   1604185.36248   1189595.68047  21834717.6144   21834724.0014
     -1795.2504      -1398.8964
    376414.80646    275562.14145  24871949.7244   24871959.4784
      -869.6724       -677.6664
  -2099497.89048  -1602118.50847  21030903.5444   21030910.4624
       552.4064        430.4464
 98  6 17 16  5 45.0010000  0  7G 4G 5G 7G 8G 9G16G24
   1659339.34248   1233392.07147  21076952.7004   21076958.3964
     -1847.8124      -1439.8544
  -3093971.95547  -2358869.29846  22413312.0444   22413318.5134
      1467.4534       1143.4704
   4812620.24846   3750093.64046  23536988.5994   23536996.7124
     -3287.6414      -2561.7984
  -2393260.96946  -1864873.84546  22507076.5834   22507083.5014
       686.4694        534.9114
   1631202.18948   1210647.74547  21839858.5754   21839864.9974
     -1807.7664      -1408.6494
    389541.15345    285790.46645  24874447.0054   24874456.4544
      -881.3124       -686.7374
  -2107701.71248  -1608511.08647  21029342.0284   21029348.9354
       540.7344        421.3514
 98  6 17 16  6  0.0010000  0  7G 4G 5G 7G 8G 9G16G24
   1687154.27148   1255066.03747  21082245.6144   21082251.2634
     -1860.9844      -1450.1184
  -3115935.90647  -2375984.05746  22409132.2004   22409139.0094
      1460.8754       1138.3444
   4861966.56346   3788545.27846  23546379.1224   23546386.8604
     -3291.9064      -2565.1224
  -2403463.81546  -1872824.10446  22505134.9504   22505142.0674
       673.7814        525.0244
   1658416.03548   1231853.32847  21845037.2164   21845043.7554
     -1820.8754      -1418.8644
    402851.93145    296162.52045  24876979.5524   24876989.8924
      -893.5784       -696.2954
  -2115725.00448  -1614762.99347  21027815.4114   21027822.3884
       528.9694        412.1834
 98  6 17 16  6 15.0010000  0  7G 4G 5G 7G 8G 9G16G24
   1715162.99048   1276891.00847  21087575.7084   21087581.4274
     -1873.4844      -1459.8584
  -3137801.11647  -2393021.87946  22404971.6304   22404978.2044
      1454.5164       1133.3894
   4911370.92246   3827042.15346  23555780.2084   23555788.2164
     -3295.3284      -2567.7884
  -2413480.65746  -1880629.43546  22503228.7084   22503235.8134
       661.8594        515.7354
   1685823.41748   1253209.72247  21850252.6304   21850259.1104
     -1833.4064      -1428.6284
    416341.43045    306673.81045  24879546.9504   24879556.6924
      -904.9534       -705.1584
  -2123577.78348  -1620882.02947  21026320.8334   21026327.8564
       518.0634        403.6854
 98  6 17 16  6 30.0010000  0  7G 4G 5G 7G 8G 9G16G24
   1743357.36448   1298860.64747  21092940.9034   21092946.7164
     -1886.5004      -1470.0004
  -3159574.96047  -2409988.50146  22400828.2714   22400834.9034
      1447.9224       1128.2514
   4960824.06846   3865577.04146  23565190.7634   23565198.2784
     -3299.2034      -2570.8084
  -2423322.77747  -1888298.59746  22501355.6144   22501362.3644
       649.6564        506.2264
   1713414.97848   1274709.62847  21855503.2164   21855509.8024
     -1846.2344      -1438.6244
    429997.64345    317315.00545  24882145.9814   24882155.6064
      -916.6414       -714.2654
  -2131269.09648  -1626875.25247  21024857.2244   21024864.2714
       506.7034        394.8344
 98  6 17 16  6 45.0010000  0  7G 4G 5G 7G 8G 9G16G24
   1771757.99748   1320991.00347  21098345.3414   21098351.2714
     -1900.6724      -1481.0434
  -3181237.67547  -2426868.53646  22396705.8104   22396712.3604
      1439.9844       1122.0664
   5010347.84546   3904166.97746  23574614.8644   23574623.0134
     -3304.3754      -2574.8384
  -2432970.32447  -1895816.16646  22499519.9894   22499526.8334
       636.1254        495.6824
   1741210.16348   1296368.20347  21860792.4744   21860798.7204
     -1860.2034      -1449.5094
    443840.70245    328101.79745  24884780.3024   24884790.2904
      -929.5004       -724.2864
  -2138780.42548  -1632728.22547  21023427.9194   21023434.9314
       494.4384        385.2764
 98  6 17 16  7  0.0010000  0  7G 4G 5G 7G 8G 9G16G24
   1800368.88748   1343285.19947  21103789.7164   21103795.5524
     -1914.0944      -1491.5024
  -3202783.03147  -2443657.12046  22392606.1534   22392612.9624
      1432.7504       1116.4294
   5059945.45646   3942814.42646  23584052.9584   23584060.8134
     -3308.6564      -2578.1744
  -2442413.66347  -1903174.60746  22497722.9034   22497729.5014
       622.8754        485.3574
   1769212.06848   1318187.84847  21866121.0524   21866127.3924
     -1873.3914      -1459.7854
    457873.10745    339036.13145  24887449.9664   24887459.4034
      -941.5474       -733.6734
  -2146111.42348  -1638440.68347  21022032.9274   21022039.9854
       482.9694        376.3394
 98  6 17 16  7 15.0010000  0  7G 4G 5G 7G 8G 9G16G24
   1829176.81648   1365732.93047  21109271.6854   21109277.5444
     -1927.1724      -1501.6924
  -3224223.84747  -2460364.24446  22388526.0994   22388532.8374
      1425.8914       1111.0844
   5109603.66546   3981509.11246  23593502.8174   23593511.0244
     -3312.6724      -2581.3034
  -2451660.70146  -1910380.09046  22495963.5994   22495970.3024
       609.8594        475.2154
   1797405.94148   1340157.08547  21871486.2164   21871492.4624
     -1885.9224      -1469.5504
    472081.74645    350107.79845  24890154.1304   24890163.0754
      -953.0944       -742.6704
  -2153274.51248  -1644022.30447  21020669.7084   21020676.8604
       471.8914        367.7074
 98  6 17 16  7 30.0010000  0  7G 4G 5G 7G 8G 9G16G24
   1858181.94248   1388334.32647  21114791.1144   21114796.8214
     -1940.3284      -1511.9444
  -3245561.51747  -2476990.99146  22384465.3804   22384472.2244
      1418.9534       1105.6784
   5159323.84546   4020252.08146  23602964.2944   23602972.1144
     -3316.8444      -2584.5544
  -2460712.97146  -1917433.79346  22494240.9584   22494247.7314
       596.9384        465.1464
   1825787.91248   1362272.88747  21876887.0364   21876893.2004
     -1898.5474      -1479.3874
    486462.65845    361313.73345  24892890.1534   24892899.6964
      -964.5164       -751.5714
  -2160269.56848  -1649472.98547  21019338.6774   21019345.6884
       460.5944        358.9044
 98  6 17 16  7 45.0010000  0  7G 4G 5G 7G 8G 9G16G24
   1887382.44248   1411087.95647  21120347.7554   21120353.6734
     -1953.4374      -1522.1594
  -3266796.42047  -2493537.65846  22380424.6464   22380431.5874
      1411.9694       1100.2354
   5209105.33446   4059042.82646  23612437.0914   23612444.6774
     -3321.0474      -2587.8294
  -2469572.39747  -1924337.24346  22492554.8804   22492561.9384
       583.8754        454.9684
   1854360.23948   1384537.02747  21882324.1854   21882330.4664
     -1911.5004      -1489.4814
    501015.18345    372653.33645  24895659.5524   24895668.7434
      -976.2194       -760.6904
  -2167095.36648  -1654791.77847  21018039.6534   21018046.6424
       449.0634        349.9194
 98  6 17 16  8  0.0010000  0  7G 4G 5G 7G 8G 9G16G24
   1916783.03748   1433997.50647  21125942.6464   21125948.5634
     -1967.0004      -1532.7274
  -3287923.14847  -2510000.03746  22376404.0994   22376410.9424
      1404.6094       1094.5014
   5258952.96846   4097885.11646  23621922.9194   23621931.2084
     -3325.6564      -2591.4204
  -2478228.63147  -1931082.34746  22490907.8414   22490914.8534
       569.8914        444.0714
   1883129.30648   1406954.47047  21887798.9424   21887805.3414
     -1924.7034      -1499.7694
    515747.69545    384133.21445  24898463.3564   24898473.9424
      -988.5784       -770.3214
  -2173742.28648  -1659971.18547  21016774.9354   21016782.0284
       436.7504        340.3254
 98  6 17 16  8 15.0010000  0  7G 4G 5G 7G 8G 9G16G24
   1946377.40748   1457058.04947  21131574.2864   21131580.2634
     -1978.7814      -1541.9074
  -3308948.77747  -2526383.63746  22372403.3494   22372410.0524
      1398.9064       1090.0574
   5308860.36046   4136773.96646  23631419.8884   23631428.4234
     -3328.5944      -2593.7094
  -2486683.35547  -1937670.43646  22489298.8564   22489305.8104
       557.5164        434.4284
   1912085.92548   1429518.05547  21893309.0214   21893315.1854
     -1936.0474      -1508.6084
    530656.76145    395750.66845  24901299.9424   24901309.6734
      -999.2194       -778.6124
  -2180211.80048  -1665012.35147  21015543.7864   21015550.8104
       425.9534        331.9124
 98  6 17 16  8 30.0010000  0  7G 4G 5G 7G 8G 9G16G24
   1976151.51848   1480258.64947  21137240.2084   21137246.0794
     -1990.3124      -1550.8934
  -3329885.67847  -2542698.09846  22368418.9194   22368425.7904
      1393.5314       1085.8694
   5358818.10146   4175702.03346  23640926.5604   23640934.7314
     -3331.7034      -2596.1324
  -2494948.75547  -1944111.00146  22487726.2084   22487733.2204
       545.2974        424.9074
   1941215.67448   1452216.54947  21898852.2394   21898858.5444
     -1947.0624      -1517.1924
    545729.46645    407495.61245  24904168.3724   24904177.9854
     -1009.7814       -786.8434
  -2186514.30648  -1669923.38347  21014344.6694   21014351.7984
       415.0944        323.4504
 98  6 17 16  8 45.0010000  0  7G 4G 5G 7G 8G 9G16G24
   2006095.58848   1503591.68647  21142938.3254   21142944.3494
     -2002.1414      -1560.1104
  -3350745.20847  -2558952.26746  22364449.4744   22364456.2944
      1387.7344       1081.3514
   5408820.31946   4214664.78246  23650441.4894   23650449.7084
     -3335.1874      -2598.8474
  -2503033.46047  -1950410.77146  22486187.3174   22486193.9384
       532.7034        415.0934
   1970506.77248   1475040.76847  21904426.3024   21904432.7124
     -1958.3754      -1526.0064
    560960.77345    419364.19845  24907066.7554   24907077.0364
     -1021.0784       -795.6454
  -2192654.84548  -1674708.20947  21013175.7944   21013183.0174
       403.7504        314.6104
 98  6 17 16  9  0.0010000  0  7G 4G 5G 7G 8G 9G16G24
   2036215.85048   1527062.01647  21148670.0364   21148675.9424
     -2013.7034      -1569.1194
  -3371516.82247  -2575137.93646  22360496.8964   22360503.5404
      1382.0474       1076.9204
   5458873.49646   4253667.22346  23659966.5604   23659974.7434
     -3338.3284      -2601.2954
  -2510928.61847  -1956562.83646  22484685.2244   22484692.1534
       520.2034        405.3534
   1999967.20448   1497996.93747  21910032.2944   21910038.5994
     -1969.5004      -1534.6754
    576362.30245    431365.36645  24909998.1144   24910007.5174
     -1032.2974       -804.3874
  -2198624.71948  -1679360.05047  21012039.8024   21012046.8604
       392.3594        305.7354
 98  6 17 16  9 15.0010000  0  7G 4G 5G 7G 8G 9G16G24
   2066505.94048   1550664.68247  21154433.9744   21154439.9504
     -2025.6254      -1578.4094
  -3392206.98647  -2591260.13046  22356559.6064   22356566.5244
      1375.9534       1072.1714
   5508969.66346   4292703.17346  23669499.4744   23669507.9504
     -3341.8754      -2604.0584
  -2518641.73746  -1962573.04946  22483217.4814   22483224.2204
       507.5944        395.5284
   2029591.73248   1521080.97447  21915669.5994   21915676.0324
     -1981.0944      -1543.7094
    591929.43245    443495.62845  24912960.0054   24912970.3454
     -1044.0004       -813.5064
  -2204423.99748  -1683878.95547  21010936.2554   21010943.3134
       380.2034        296.2624
 98  6 17 16  9 30.0010000  0  7G 4G 5G 7G 8G 9G16G24
   2096964.75948   1574398.82247  21160229.9974   21160235.7864
     -2035.8914      -1586.4084
  -3412815.42547  -2607318.64846  22352638.3254   22352645.1694
      1371.4844       1068.6894
   5559109.91646   4331773.47046  23679040.7864   23679049.4744
     -3343.8284      -2605.5804
  -2526177.54547  -1968445.09646  22481783.1464   22481789.9544
       496.8754        387.1754
   2059380.12448   1544292.69947  21921338.2944   21921344.7744
     -1991.0784      -1551.4894
    607662.83345    455755.40345  24915953.3104   24915963.0524
     -1054.1094       -821.3844
  -2210050.68148  -1688263.37447  21009865.4504   21009872.5444
       369.6094        288.0074
 98  6 17 16  9 45.0010000  0  7G 4G 5G 7G 8G 9G16G24
   2127593.42448   1598265.31147  21166058.4894   21166064.3134
     -2048.2504      -1596.0394
  -3433339.43747  -2623311.37446  22348732.3174   22348739.0794
      1364.7194       1063.4174
   5609295.07346   4370878.76146  23688591.0604   23688598.6224
     -3347.8444      -2608.7094
  -2533535.63147  -1974178.66346  22480383.1924   22480390.3684
       483.8284        377.0094
   2089336.67848   1567635.46247  21927038.8884   21927045.3564
     -2003.4534      -1561.1324
    623566.04345    468147.51345  24918979.9034   24918989.3994
     -1066.7194       -831.2094
  -2215500.43248  -1692509.91947  21008828.6694   21008835.6574
       356.6884        277.9384
 98  6 17 16 10  0.0010000  0  7G 4G 5G 7G 8G 9G16G24
   2158401.57648   1622271.65847  21171921.0914   21171927.4314
     -2059.6414      -1604.9154
  -3453768.49347  -2639230.11246  22344844.7244   22344851.5834
      1359.0474       1058.9984
   5659534.10946   4410026.02846  23698151.3644   23698159.9814
     -3350.8124      -2611.0234
  -2540703.60947  -1979764.09846  22479019.0444   22479026.2084
       471.8134        367.6464
   2119472.30748   1591117.76047  21932773.4584   21932779.7634
     -2014.7034      -1569.8994
    639652.63245    480682.47545  24922040.5834   24922050.3134
     -1078.2344       -840.1834
  -2220761.76948  -1696609.65447  21007827.0914   21007834.1034
       344.7194        268.6124
 98  6 17 16 10 15.0010000  0  7G 4G 5G 7G 8G 9G16G24
   2189373.17648   1646405.36647  21177814.7714   21177820.8884
     -2069.8914      -1612.9024
  -3474120.11447  -2655088.51146  22340972.1064   22340978.9384
      1354.5634       1055.5034
   5709808.62946   4449200.95146  23707718.1854   23707726.3924
     -3352.3754      -2612.2404
  -2547702.00347  -1985217.38746  22477687.3414   22477694.3994
       461.3754        359.5134
   2149766.27848   1614723.43947  21938538.0834   21938544.3414
     -2024.4694      -1577.5084
    655902.73645    493344.90945  24925133.8024   24925144.2124
     -1088.3754       -848.0844
  -2225852.05648  -1700576.10047  21006858.8024   21006865.8374
       334.0944        260.3334
 98  6 17 16 10 30.0010000  0  7G 4G 5G 7G 8G 9G16G24
   2220514.88548   1670671.62647  21183740.7474   21183746.8644
     -2082.0164      -1622.3504
  -3494388.74347  -2670882.23646  22337115.0994   22337121.7434
      1348.2344       1050.5724
   5760121.54046   4488405.78546  23717292.6384   23717300.5284
     -3355.7194      -2614.8464
  -2554530.69747  -1990538.43946  22476387.6774   22476394.5214
       449.4224        350.1994
   2180223.03848   1638455.96947  21944333.7084   21944340.0244
     -2036.1254      -1586.5914
    672318.75745    506136.60745  24928256.9354   24928266.9354
     -1100.1094       -857.2284
  -2230769.60748  -1704407.94547  21005922.8644   21005929.8994
       321.8914        250.8244
 98  6 17 16 10 45.0010000  0  7G 4G 5G 7G 8G 9G16G24
   2251835.66348   1695077.42347  21189700.8964   21189706.8494
     -2094.3914      -1631.9934
  -3514566.21947  -2686604.93646  22333275.5134   22333282.1224
      1341.8594       1045.6054
   5810481.39746   4527647.20846  23726875.5674   23726884.3374
     -3359.1414      -2617.5124
  -2561182.86547  -1995721.94546  22475122.1384   22475128.8064
       437.2504        340.7144
   2210850.98548   1662321.88947  21950162.2394   21950168.6144
     -2047.8594      -1595.7354
    688908.07545    519063.30645  24931415.4114   24931424.6964
     -1112.0944       -866.5674
  -2235506.34448  -1708098.90447  21005021.4274   21005028.4624
       309.3754        241.0714
 98  6 17 16 11  0.0010000  0  7G 4G 5G 7G 8G 9G16G24
   2283340.06948   1719626.30647  21195696.1304   21195702.0714
     -2106.4534      -1641.3924
  -3534650.99747  -2702255.40946  22329453.3254   22329460.2434
      1335.9224       1040.9784
   5860889.29346   4566926.04746  23736468.1694   23736476.5754
     -3362.1874      -2619.8864
  -2567654.92547  -2000765.10146  22473890.4424   22473896.9584
       425.4064        331.4854
   2241653.65748   1686323.96247  21956023.9354   21956030.3564
     -2059.3914      -1604.7204
    705674.79045    532128.26945  24934605.2634   24934615.6144
     -1123.5784       -875.5154
  -2240058.57748  -1711646.08847  21004155.4274   21004162.4854
       297.4064        231.7454
 98  6 17 16 11 15.0010000  0  7G 4G 5G 7G 8G 9G16G24
   2315025.77948   1744316.47247  21201725.6694   21201731.7044
     -2118.3914      -1650.6944
  -3554649.03447  -2717838.28346  22325647.7474   22325654.5674
      1330.4384       1036.7054
   5911343.74946   4606241.18546  23746069.0134   23746077.1494
     -3365.1254      -2622.1754
  -2573948.15247  -2005668.91046  22472692.8174   22472699.5214
       413.6564        322.3304
   2272629.23448   1710460.76747  21961918.4744   21961924.8024
     -2070.7344      -1613.5594
    722610.92945    545325.28845  24937827.7944   24937838.1224
     -1134.6094       -884.1114
  -2244431.39348  -1715053.46547  21003323.1924   21003330.0634
       285.6254        222.5654
 98  6 17 16 11 30.0010000  0  7G 4G 5G 7G 8G 9G16G24
   2346903.61748   1769156.34147  21207792.0364   21207798.0954
     -2131.3594      -1660.8004
  -3574552.28847  -2733347.30446  22321860.4034   22321867.1884
      1323.9224       1031.6274
   5961855.19746   4645600.73346  23755681.3104   23755689.3534
     -3369.1564      -2625.3174
  -2580052.46747  -2010425.51846  22471531.1924   22471537.9664
       400.7814        312.2974
   2303787.17248   1734739.67147  21967847.5754   21967854.0214
     -2083.0314      -1623.1414
    739724.99445    558660.88645  24941083.9584   24941094.9664
     -1146.7194       -893.5474
  -2248618.28848  -1718315.96747  21002526.3964   21002533.1224
       273.2344        212.9104
 98  6 17 16 11 45.0010000  0  7G 4G 5G 7G 8G 9G16G24
   2378965.04748   1794139.26647  21213892.8644   21213898.9464
     -2143.1564      -1669.9924
  -3594368.17147  -2748788.24546  22318089.4114   22318096.1034
      1318.5634       1027.4514
   6012416.63346   4684999.22946  23765302.7474   23765310.5214
     -3371.9694      -2627.5084
  -2585972.73547  -2015038.70946  22470404.5994   22470411.3844
       388.9064        303.0444
   2335119.33548   1759154.33347  21973809.7164   21973816.2674
     -2094.2664      -1631.8954
    757009.63845    572129.43145  24944373.8964   24944384.3884
     -1157.5784       -902.0094
  -2252630.92848  -1721442.69147  21001762.8174   21001769.6144
       262.1254        204.2534
 98  6 17 16 12  0.0010000  0  7G 4G 5G 7G 8G 9G16G24
   2411201.75148   1819258.77347  21220027.5134   21220033.4664
     -2155.4694      -1679.5864
  -3614106.43047  -2764168.69746  22314333.7084   22314340.5674
      1312.8134       1022.9714
   6063017.99946   4724428.84246  23774931.8884   23774939.8494
     -3375.2504      -2630.0654
  -2591715.01747  -2019513.20746  22469311.9424   22469318.6924
       376.3284        293.2434
   2366618.77248   1783699.33747  21979803.9584   21979810.3804
     -2106.0474      -1641.0754
    774456.86345    585724.63245  24947694.1534   24947705.6424
     -1169.0944       -910.9824
  -2256479.37548  -1724441.46947  21001030.4744   21001037.3454
       250.6564        195.3174
 98  6 17 16 12 15.0010000  0  7G 4G 5G 7G 8G 9G16G24
   2443631.31548   1844528.56147  21226198.6144   21226204.4034
     -2168.2344      -1689.5334
  -3633750.36247  -2779475.65046  22310595.2944   22310602.1034
      1306.5314       1018.0764
   6113677.15346   4763903.48146  23784571.9034   23784580.0404
     -3379.1254      -2633.0844
  -2597261.50147  -2023835.14146  22468256.1614   22468262.4074
       363.3594        283.1374
   2398303.15048   1808388.45147  21985833.2944   21985839.6924
     -2118.3124      -1650.6334
    792083.04945    599459.31845  24951048.0914   24951057.9854
     -1180.8914       -920.1754
  -2260149.59648  -1727301.37147  21000331.9894   21000338.9424
       238.9534        186.1974
 98  6 17 16 12 30.0010000  0  7G 4G 5G 7G 8G 9G16G24
   2476232.04748   1869931.72947  21232402.0214   21232407.9274
     -2178.8444      -1697.8004
  -3653318.98747  -2794723.92046  22306871.4354   22306878.2554
      1302.3444       1014.8134
   6164376.38546   4803409.36346  23794219.3334   23794227.6344
     -3381.1094      -2634.6314
  -2602630.06947  -2028018.43346  22467234.6534   22467241.2634
       352.0784        274.3474
   2430153.09248   1833206.57347  21991894.0914   21991900.4314
     -2128.7034      -1658.7304
    809869.10245    613318.60545  24954432.1224   24954441.4424
     -1190.8914       -927.9674
  -2263664.04648  -1730039.89647  20999663.3104   20999670.2984
       229.3444        178.7094
 98  6 17 16 12 45.0010000  0  7G 4G 5G 7G 8G 9G16G24
   2509004.96048   1895469.05847  21238638.7944   21238644.6884
     -2190.7194      -1707.0544
  -3672810.01847  -2809911.72746  22303162.4974   22303169.2944
      1296.5634       1010.3084
   6215122.83846   4842952.01446  23803876.2394   23803883.9544
     -3384.9534      -2637.6264
  -2607812.74147  -2032056.88046  22466248.6384   22466255.3294
       339.0314        264.1804
   2462174.16748   1858158.04747  21997987.5444   21997994.2004
     -2140.6564      -1668.0444
    827820.92545    627306.99945  24957848.7864   24957859.6424
     -1202.5474       -937.0504
  -2267019.02348  -1732654.15247  20999024.8414   20999031.8294
       218.0314        169.8944
 98  6 17 16 13  0.0010000  0  7G 4G 5G 7G 8G 9G16G24
   2541949.33648   1921140.00347  21244907.9584   21244913.8884
     -2201.4844      -1715.4424
  -3692219.99047  -2825036.37546  22299468.8254   22299475.8844
      1291.7504       1006.5584
   6265920.70446   4882534.74946  23813542.9194   23813550.8924
     -3387.7194      -2639.7814
  -2612802.61247  -2035945.08646  22465299.1854   22465306.0444
       326.6414        254.5254
   2494369.47348   1883245.28747  22004113.9814   22004120.6034
     -2151.7194      -1676.6644
    845942.88045    641427.98445  24961297.3334   24961308.7044
     -1213.3444       -945.4634
  -2270207.97748  -1735139.03947  20998418.0134   20998425.0364
       207.5314        161.7134
 98  6 17 16 13 15.0010000  0  7G 4G 5G 7G 8G 9G16G24
   2575047.33348   1946930.64447  21251206.2944   21251212.3414
     -2211.9844      -1723.6244
  -3711563.35547  -2840109.11446  22295787.9894   22295794.9784
      1286.8914       1002.7724
   6316753.66646   4922144.83346  23823215.3964   23823224.1304
     -3390.4064      -2641.8754
  -2617613.21247  -2039693.60646  22464383.5834   22464390.1344
       314.3284        244.9314
   2526725.15848   1908457.50047  22010271.0674   22010277.6534
     -2162.7504      -1685.2604
    864218.80845    655668.95045  24964774.9974   24964783.4154
     -1223.8124       -953.6204
  -2273247.50048  -1737507.48747  20997839.7394   20997846.7394
       197.3134        153.7504
 98  6 17 16 13 30.0010000  0  7G 4G 5G 7G 8G 9G16G24
   2608303.55048   1972844.58147  21257534.5914   21257540.5914
     -2222.5784      -1731.8794
  -3730830.00647  -2855122.07846  22292121.5284   22292128.3024
      1281.4844        998.5594
   6367626.19646   4961785.72646  23832896.4504   23832904.7744
     -3393.0474      -2643.9334
  -2622238.14947  -2043297.45046  22463503.5524   22463509.8454
       301.9534        235.2884
   2559247.34648   1933799.45247  22016459.9354   22016466.4504
     -2174.0004      -1694.0264
    882654.23245    670034.23945  24968282.6614   24968291.7004
     -1234.6874       -962.0944
  -2276131.80648  -1739754.98747  20997290.6924   20997297.6104
       186.8594        145.6054
 98  6 17 16 13 45.0010000  0  7G 4G 5G 7G 8G 9G16G24
   2641716.67548   1998880.77647  21263892.8804   21263898.8104
     -2232.6094      -1739.6964
  -3750014.64547  -2870071.14046  22288470.9974   22288477.9154
      1276.3754        994.5784
   6418537.62946   5001456.95446  23842584.6384   23842592.2244
     -3395.2344      -2645.6374
  -2626679.29247  -2046758.07746  22462658.3174   22462665.0674
       290.0944        226.0474
   2591938.44848   1959273.02247  22022681.0214   22022687.4784
     -2184.9064      -1702.5244
    901251.29245    684525.43345  24971821.8964   24971830.2904
     -1245.0314       -970.1544
  -2278859.39848  -1741880.37447  20996771.5914   20996778.3414
       176.6254        137.6304
 98  6 17 16 14  0.0020000  0  7G 4G 5G 7G 8G 9G16G24
   2675291.87548   2025043.26947  21270282.1504   21270288.3964
     -2243.8754      -1748.4744
  -3769115.06347  -2884954.57046  22284836.1044   22284842.8304
      1270.1414        989.7204
   6469493.53946   5041162.82846  23852281.5964   23852289.8504
     -3398.5164      -2648.1944
  -2630933.95347  -2050073.39446  22461848.7754   22461855.4554
       277.0634        215.8934
   2624804.73848   1984883.10447  22028935.0334   22028941.4204
     -2197.0314      -1711.9724
    920012.86945    699144.81345  24975393.6504   24975400.6274
     -1256.4374       -979.0424
  -2281423.31948  -1743878.22447  20996283.7444   20996290.5884
       165.1254        128.6694
 98  6 17 16 14 15.0020000  0  8G30G 4G 5G 7G 8G 9G16G24
     -4319.15555                  25018719.3464
      2160.2974
   2709030.35748   2051332.99647  21276702.2914   21276708.2684
     -2254.5944      -1756.8264
  -3788124.45547  -2899767.07646  22281218.9864   22281225.6314
      1264.4224        985.2644
   6520492.96046   5080902.61246  23861986.4244   23861994.9714
     -3401.4064      -2650.4464
  -2634996.54547  -2053239.05046  22461075.3854   22461082.2294
       264.6414        206.2134
   2657845.84648   2010629.41347  22035222.6354   22035229.0334
     -2208.4064      -1720.8364
    938941.25245    713894.20945  24978994.0884   24979002.2134
     -1267.3124       -987.5164
  -2283817.60848  -1745743.89247  20995828.3074   20995835.1894
       154.1564        120.1224
 98  6 17 16 14 30.0020000  0  8G30G 4G 5G 7G 8G 9G16G24
    -36713.26545                  25012555.4324
      2158.6254
   2742921.44748   2077741.63747  21283151.5574   21283157.3814
     -2264.5784      -1764.6064
  -3807055.74747  -2914518.72046  22277616.3934   22277623.2524
      1259.3914        981.3434
   6571529.76546   5120671.52046  23871698.6824   23871707.2054
     -3403.8444      -2652.3464
  -2638881.67247  -2056266.41746  22460336.1194   22460342.8464
       253.0004        197.1434
   2691048.91548   2036501.92347  22041540.9864   22041547.3614
     -2218.9694      -1729.0674
    958023.72245    728763.58445  24982626.2364   24982634.9364
     -1277.3914       -995.3694
  -2286054.68048  -1747487.05247  20995402.4394   20995409.3344
       143.7664        112.0254
 98  6 17 16 14 45.0020000  0  8G30G 4G 5G 7G 8G 9G16G24
    -69069.86045                  25006398.1114
      2156.4384
   2776976.40748   2104277.96647  21289632.0964   21289638.0494
     -2275.2974      -1772.9594
  -3825898.34947  -2929201.25846  22274030.7054   22274037.4554
      1253.7344        976.9364
   6622614.35046   5160477.66146  23881419.5494   23881428.4124
     -3406.5624      -2654.4644
  -2642578.97247  -2059147.43346  22459632.8144   22459639.6354
       240.8594        187.6834
   2724423.42348   2062508.01947  22047891.9714   22047898.5454
     -2230.1414      -1737.7724
    977271.14645    743761.58145  24986288.4634   24986295.8734
     -1288.0944      -1003.7094
  -2288120.85448  -1749097.05047  20995009.2754   20995016.0844
       132.5784        103.3084
 98  6 17 16 15  0.0020000  0  8G30G 4G 5G 7G 8G 9G16G24
   -101394.17145                  25000246.8934
      2153.7194
   2811194.13448   2130941.12747  21296143.4394   21296149.4044
     -2286.8754      -1781.9814
  -3844653.16047  -2943815.38646  22270461.6274   22270468.3074
      1247.1564        971.8104
   6673739.78846   5200315.62646  23891148.8384   23891157.4204
     -3409.8284      -2657.0094
  -2646095.11747  -2061887.27946  22458963.6744   22458970.4944
       228.2814        177.8814
   2757965.13848   2088644.40547  22054274.7604   22054281.3464
     -2241.8594      -1746.9034
    996680.59945    758885.83645  24989981.6434   24989990.2134
     -1299.5944      -1012.6704
  -2290019.26048  -1750576.31647  20994648.1194   20994654.9794
       120.8134         94.1404
 98  6 17 16 15 15.0020000  0  8G30G 4G 5G 7G 8G 9G16G24
   -133685.84345     -6704.97555  24994102.7684   24994107.7834
      2151.6254       1676.5914
   2845581.91848   2157736.80247  21302687.2054   21302693.2874
     -2298.4224      -1790.9784
  -3863316.81347  -2958358.48246  22266910.2444   22266917.0884
      1241.0634        967.0624
   6724905.79146   5240185.22946  23900885.4084   23900894.3544
     -3412.5944      -2659.1644
  -2649432.12347  -2064487.54746  22458328.7134   22458335.2644
       216.4064        168.6284
   2791676.12548   2114912.69447  22060689.7134   22060696.2404
     -2253.1874      -1755.7314
   1016256.28645    774139.60145  24993707.2054   24993716.2094
     -1310.7034      -1021.3274
  -2291749.37548  -1751924.44747  20994318.9554   20994325.5534
       109.6254         85.4224
 98  6 17 16 15 30.0020000  0  8G30G 4G 5G 7G 8G 9G16G24
   -165947.90444    -31844.20445  24987962.3694   24987970.5414
      2150.0314       1675.3494
   2880142.88548   2184667.42547  21309263.9004   21309269.7364
     -2309.6254      -1799.7084
  -3881889.00847  -2972830.31046  22263376.0494   22263382.7054
      1235.3444        962.6064
   6776114.19946   5280087.85446  23910629.8694   23910638.3114
     -3415.0944      -2661.1124
  -2652593.16647  -2066950.68846  22457727.2444   22457733.9594
       205.1724        159.8744
   2825556.81148   2141313.21347  22067136.7834   22067143.2524
     -2264.1414      -1764.2654
   1035998.08445    789522.77645  24997464.4714   24997473.6504
     -1321.4694      -1029.7164
  -2293312.56248  -1753142.50147  20994021.3464   20994028.0144
        98.8754         77.0454
 98  6 17 16 15 45.0020000  0  8G30G 4G 5G 7G 8G 9G16G24
   -198184.30544    -56963.42045  24981827.8774   24981836.4944
      2147.9064       1673.6934
   2914872.12448   2211729.16447  21315872.7684   21315878.5684
     -2321.1874      -1808.7184
  -3900376.29247  -2987235.98446  22259857.9474   22259864.5104
      1229.4224        957.9914
   6827359.83446   5320019.49146  23920381.8854   23920390.4324
     -3417.9534      -2663.3404
  -2655586.91247  -2069283.47446  22457157.3544   22457163.8344
       193.7034        150.9384
   2859601.44648   2167841.48347  22073615.5184   22073621.8464
     -2275.3914      -1773.0324
   1055902.56345    805032.79745  25001251.2214   25001259.7684
     -1332.7344      -1038.4944
  -2294713.80248  -1754234.36947  20993754.6274   20993761.4364
        87.7194         68.3524
 98  6 17 16 16  0.0020000  0  8G30G 4G 5G 7G 8G 9G16G24
   -230385.75344    -82055.42245  24975700.2364   24975709.1114
      2146.0634       1672.2564
   2949779.38848   2238929.63047  21322515.3774   21322521.3074
     -2332.7344      -1817.7154
  -3918773.12447  -3001571.16346  22256357.0574   22256363.6544
      1223.8754        953.6694
   6878652.21246   5359987.54346  23930142.4244   23930150.7954
     -3420.6094      -2665.4104
  -2658402.64547  -2071477.55646  22456621.6744   22456628.4124
       182.1564        141.9404
   2893816.97048   2194502.91147  22080126.4864   22080132.8854
     -2286.2344      -1781.4814
   1075980.24645    820677.69145  25005072.0414   25005081.1864
     -1343.9224      -1047.2124
  -2295943.60148  -1755192.64147  20993520.6504   20993527.6624
        76.7034         59.7694
 98  6 17 16 16 15.0020000  0  8G30G 4G 5G 7G 8G 9G16G24
   -262568.63144   -107132.97045  24969576.5574   24969584.6704
      2144.5944       1671.1124
   2984850.53748   2266257.79547  21329189.2444   21329195.1504
     -2343.7814      -1826.3234
  -3937095.43547  -3015848.28346  22252870.5184   22252877.3034
      1218.7194        949.6514
   6929975.74346   5399979.90246  23939908.8934   23939917.1464
     -3422.9064      -2667.2004
  -2661055.03647  -2073544.35646  22456116.8224   22456123.6074
       171.1254        133.3444
   2928185.15248   2221283.29447  22086666.6664   22086673.0644
     -2296.5474      -1789.5174
   1096217.34545    836446.83145  25008923.7444   25008932.9944
     -1354.7664      -1055.6624
  -2297019.26048  -1756030.80747  20993315.7754   20993322.8114
        66.3594         51.7094
 98  6 17 16 16 30.0020000  0  8G30G 4G 5G 7G 8G 9G16G24
   -294726.39345   -132190.88745  24963457.4554   24963464.2994
      2143.3594       1670.1504
   3020089.84348   2293716.99147  21335895.0494   21335900.9084
     -2354.4844      -1834.6634
  -3955336.93747  -3030062.42946  22249399.2834   22249405.8814
      1213.7344        945.7674
   6981335.93946   5440000.80446  23949682.4864   23949691.1274
     -3424.8754      -2668.7344
  -2663540.56247  -2075481.12446  22455643.9474   22455650.4864
       160.5474        125.1014
   2962709.68748   2248185.51047  22093236.6044   22093243.1434
     -2306.4694      -1797.2484
   1116619.60345    852344.72345  25012805.9084   25012814.4554
     -1365.2814      -1063.8564
  -2297936.96948  -1756745.89547  20993141.3774   20993148.1744
        56.2344         43.8194
 98  6 17 16 16 45.0020000  0  8G30G 4G 5G 7G 8G 9G16G24
   -326862.07645   -157231.62745  24957340.7834   24957348.9324
      2141.1884       1668.4584
   3055492.08248   2321303.14947  21342631.9244   21342637.8424
     -2365.9844      -1843.6244
  -3973500.44247  -3044215.79946  22245943.1434   22245949.8224
      1207.8914        941.2134
   7032728.11446   5480046.62446  23959462.0104   23959469.3964
     -3427.4534      -2670.7434
  -2665863.46447  -2077291.17446  22455201.9634   22455208.3614
       149.0004        116.1044
   2997386.65248   2275206.50547  22099835.1824   22099841.8964
     -2317.2664      -1805.6624
   1137182.21045    868367.52445  25016718.5024   25016728.1864
     -1376.5624      -1072.6464
  -2298697.74548  -1757338.69447  20992996.4004   20993003.1394
        45.0474         35.1014
 98  6 17 16 17  0.0020000  0  8G30G 4G 5G 7G 8G 9G16G24
   -358972.09845   -182252.39445  24951231.0804   24951240.8464
      2139.4064       1667.0704
   3091058.85648   2349017.51747  21349399.7754   21349405.6354
     -2376.9694      -1852.1834
  -3991584.18747  -3058307.02146  22242501.9244   22242508.6044
      1202.5474        937.0504
   7084147.19946   5520113.43446  23969247.2604   23969255.5844
     -3429.2344      -2672.1314
  -2668021.31747  -2078972.61846  22454791.2364   22454797.8814
       137.9534        107.4964
   3032217.37948   2302347.31247  22106463.3144   22106470.0414
     -2327.6094      -1813.7224
   1157904.91945    884515.06945  25020662.6974   25020670.0494
     -1387.2194      -1080.9504
  -2299299.44948  -1757807.54547  20992881.6434   20992888.3934
        34.4384         26.8344
 98  6 17 16 17 15.0020000  0  8G30G 4G 5G 7G 8G 9G16G24
   -391054.94645   -207251.98845  24945125.5104   24945133.4364
      2138.2194       1666.1444
   3126789.50548   2376859.57447  21356199.3934   21356205.2404
     -2387.1564      -1860.1224
  -4009588.85447  -3072336.62746  22239075.6434   22239082.3934
      1198.0634        933.5554
   7135594.85946   5560202.47446  23979036.5024   23979045.2714
     -3430.5314      -2673.1414
  -2670011.85247  -2080523.68346  22454412.7834   22454419.4394
       127.3594         99.2414
   3067202.69048   2329608.57947  22113120.8614   22113127.6354
     -2337.1724      -1821.1734
   1178787.18646    900786.97445  25024635.8464   25024642.1744
     -1397.0784      -1088.6324
  -2299741.93448  -1758152.32447  20992797.5884   20992804.3854
        24.4694         19.0674
 98  6 17 16 17 30.0020000  0  8G30G 4G 5G 7G 8G 9G16G24
   -423108.88045   -232229.02945  24939027.0494   24939034.1074
      2135.3284       1663.8924
   3162681.18148   2404827.11247  21363029.1894   21363035.0844
     -2398.5944      -1869.0344
  -4027516.81047  -3086306.45746  22235663.9554   22235670.4004
      1192.0004        928.8314
   7187073.07546   5600315.35646  23988832.6894   23988840.1354
     -3433.5474      -2675.4914
  -2671830.65247  -2081940.92846  22454066.3934   22454073.0254
       114.7814         89.4404
   3102342.46848   2356990.20647  22119807.6824   22119814.3964
     -2348.4374      -1829.9514
   1199826.10445    917180.95345  25028639.5884   25028647.3734
     -1408.3594      -1097.4234
  -2300022.84748  -1758371.20747  20992744.1584   20992751.0294
        12.6884          9.8864
 98  6 17 16 17 45.0020000  0  8G30G 4G 5G 7G 8G 9G16G24
   -455121.95245   -257174.21545  24932934.0494   24932941.9044
      2132.6254       1661.7864
   3198738.04048   2432923.35947  21369890.6194   21369896.4084
     -2409.4224      -1877.4724
  -4045357.43547  -3100208.23846  22232269.2134   22232275.7644
      1186.3134        924.3994
   7238592.53246   5640460.36346  23998636.5184   23998645.1824
     -3436.1254      -2677.5004
  -2673463.46747  -2083213.24746  22453755.7294   22453762.4554
       102.4064         79.7974
   3137646.96248   2384500.18347  22126525.8854   22126532.4004
     -2359.2194      -1838.3524
   1221029.35645    933702.94145  25032675.2914   25032684.3774
     -1419.2034      -1105.8734
  -2300131.56048  -1758455.90947  20992723.8144   20992730.7564
         1.3284          1.0354
 98  6 17 16 18  0.0020000  0  8G30G 4G 5G 7G 8G 9G16G24
   -487096.60745   -282089.49945  24926849.7364   24926857.3344
      2130.8754       1660.4224
   3234957.11648   2461146.01247  21376783.0964   21376788.8854
     -2419.6094      -1885.4104
  -4063113.10447  -3114043.81646  22228890.1974   22228896.7254
      1181.2814        920.4794
   7290148.74146   5680633.99546  24008446.4084   24008455.2714
     -3437.8444      -2678.8394
  -2674907.93647  -2084338.80246  22453480.9474   22453487.7324
        90.3444         70.3984
   3173110.30748   2412133.94147  22133274.2134   22133280.6584
     -2369.0314      -1845.9984
   1242394.46346    950351.08045  25036740.1824   25036748.8114
     -1429.2814      -1113.7264
  -2300070.99348  -1758408.70247  20992735.0804   20992742.0804
        -9.2034         -7.1714
 98  6 17 16 18 15.0020000  0  8G30G 4G 5G 7G 8G 9G16G24
   -519034.54845   -306976.17645  24920771.9164   24920780.9324
      2127.8284       1658.0484
   3271340.36248   2489496.58747  21383706.3544   21383712.2484
     -2431.1414      -1894.3954
  -4080781.25247  -3127811.19746  22225527.9944   22225534.6624
      1174.7814        915.4144
   7341741.69545   5720836.25946  24018264.9164   24018273.8854
     -3440.9374      -2681.2504
  -2676160.32147  -2085314.68346  22453242.5254   22453249.1004
        77.0004         60.0004
   3208731.72048   2439890.86747  22140052.7134   22140059.2404
     -2380.1724      -1854.6794
   1263921.73845    967125.60445  25040835.8384   25040844.7954
     -1440.6724      -1122.6014
  -2299841.36148  -1758229.75947  20992778.5964   20992785.5024
       -21.0784        -16.4254
 98  6 17 16 18 30.0020000  0  8G30G 4G 5G 7G 8G 9G16G24
   -550932.50745   -331831.69845  24914701.5184   24914708.8464
      2125.7814       1656.4534
   3307890.72348   2517977.38347  21390661.7684   21390667.6974
     -2441.7344      -1902.6504
  -4098356.85447  -3141506.46446  22222183.7524   22222190.3384
      1169.1724        911.0434
   7393377.28446   5761071.77446  24028091.1044   24028100.2014
     -3443.2814      -2683.0764
  -2677218.49447  -2086139.22746  22453040.9944   22453047.6974
        64.5944         50.3334
   3244515.02748   2467773.95047  22146862.1434   22146868.7754
     -2390.4064      -1862.6544
   1285614.66645    984029.15645  25044964.3144   25044974.4324
     -1451.2034      -1130.8084
  -2299438.99548  -1757916.21647  20992855.5024   20992862.3114
       -32.0944        -25.0084
 98  6 17 16 18 45.0020000  0  8G30G 4G 5G 7G 8G 9G16G24
   -582797.57145   -356661.57945  24908638.0724   24908645.0494
      2123.2664       1654.4934
   3344603.50548   2546584.74247  21397647.7994   21397653.6464
     -2452.9534      -1911.3924
  -4115845.54247  -3155134.00846  22218855.5884   22218862.3384
      1163.0004        906.2344
   7445050.99646   5801336.96746  24037923.8694   24037932.1004
     -3446.2194      -2685.3654
  -2678086.21047  -2086815.36946  22452876.2684   22452882.8774
        51.4384         40.0814
   3280454.54248   2495778.74847  22153701.2444   22153707.9004
     -2401.2344      -1871.0924
   1307469.11945   1001058.55045  25049123.9714   25049132.9164
     -1462.3284      -1139.4764
  -2298867.49648  -1757470.87747  20992963.9864   20992970.7604
       -43.7344        -34.0794
 98  6 17 16 19  0.0020000  0  8G30G 4G 5G 7G 8G 9G16G24
   -614631.80145   -381467.44045  24902580.0184   24902586.8264
      2120.9694       1652.7034
   3381478.05748   2575318.15347  21404664.8694   21404670.7754
     -2464.0004      -1920.0004
  -4133247.82047  -3168694.21546  22215544.2604   22215550.7644
      1156.9384        901.5104
   7496762.26346   5841631.43446  24047764.6194   24047772.7094
     -3448.9694      -2687.5084
  -2678762.39847  -2087342.26146  22452747.3304   22452753.8934
        38.4064         29.9274
   3316551.26548   2523906.04747  22160570.2364   22160576.9044
     -2412.0004      -1879.4814
   1329483.24746   1018212.47745  25053311.9244   25053320.5064
     -1473.2344      -1147.9754
  -2298129.39048  -1756895.72047  20993104.4084   20993110.9824
       -54.9844        -42.8454
 98  6 17 16 19 15.0020000  0  8G30G 4G 5G 7G 8G 9G16G24
   -646434.51345   -406248.74045  24896528.4864   24896535.1194
      2118.6564       1650.9014
   3418514.78848   2604177.93847  21411712.7914   21411718.5924
     -2474.9534      -1928.5354
  -4150561.18147  -3182185.13946  22212249.3694   22212256.1434
      1150.7344        896.6764
   7548514.73446   5881958.00846  24057613.0724   24057621.1504
     -3452.1724      -2690.0044
  -2679246.24247  -2087719.28746  22452655.2754   22452662.0724
        25.3594         19.7614
   3352806.90548   2552157.17247  22167469.3934   22167475.8854
     -2422.8444      -1887.9304
   1351660.66745   1035493.61145  25057532.2444   25057541.5064
     -1484.5164      -1156.7654
  -2297226.24248  -1756191.95947  20993276.4394   20993283.0374
       -66.2504        -51.6234
 98  6 17 16 19 30.0020000  0  8G30G 4G 5G 7G 8G 9G16G24
   -678202.39145   -431002.91745  24890483.4554   24890491.0884
      2117.1254       1649.7084
   3455715.29848   2633165.34647  21418791.8224   21418797.7644
     -2485.0624      -1936.4124
  -4167780.07547  -3195602.44747  22208972.8304   22208979.4514
      1145.1254        892.3054
   7600316.75846   5922323.20846  24067470.8144   24067479.3734
     -3454.7194      -2691.9894
  -2679533.74847  -2087943.30546  22452600.5724   22452607.7014
        13.0634         10.1794
   3389225.41048   2580535.21447  22174399.5494   22174406.1004
     -2432.9694      -1895.8204
   1374008.81645   1052907.73345  25061785.5574   25061795.2174
     -1495.2344      -1165.1184
  -2296153.89948  -1755356.35647  20993480.2914   20993487.0644
       -76.7034        -59.7694
 98  6 17 16 19 45.0020000  0  8G30G 4G 5G 7G 8G 9G16G24
   -709942.54545   -455735.49945  24884443.0574   24884452.2484
      2114.6414       1647.7724
   3493072.21848   2662274.62847  21425900.4714   21425906.3544
     -2496.1564      -1945.0574
  -4184908.91547  -3208949.58946  22205713.2604   22205719.8464
      1138.4224        887.0824
   7652162.25446   5962722.25746  24077336.8464   24077344.9714
     -3458.2814      -2694.7654
  -2679632.46947  -2088020.23046  22452581.5254   22452588.3694
        -0.1414         -0.1104
   3425802.01348   2609036.44347  22181359.9474   22181366.5454
     -2444.1724      -1904.5504
   1396524.92245   1070452.71245  25066070.2214   25066080.0334
     -1507.1564      -1174.4074
  -2294921.05748  -1754395.69147  20993715.0334   20993721.7834
       -87.9224        -68.5114
 98  6 17 16 20  0.0020000  0  8G30G 4G 5G 7G 8G 9G16G24
   -741652.51145   -480444.52645  24878409.0104   24878417.6044
      2113.1414       1646.6034
   3530590.62748   2691509.74747  21433040.4084   21433046.3264
     -2506.5784      -1953.1784
  -4201943.47647  -3222223.26246  22202471.8304   22202478.4984
      1132.5944        882.5414
   7704054.08346   6003157.42146  24087211.3774   24087219.0684
     -3460.8914      -2696.7984
  -2679541.63647  -2087949.44546  22452599.1434   22452606.0024
       -12.2194         -9.5214
   3462538.77348   2637662.47847  22188350.7684   22188357.5294
     -2454.2814      -1912.4274
   1419212.12345   1088131.07545  25070386.3544   25070394.8544
     -1518.0624      -1182.9064
  -2293526.50748  -1753309.02147  20993980.1894   20993987.0334
       -98.2814        -76.5834
 98  6 17 16 20 15.0020000  0  8G30G 4G 5G 7G 8G 9G16G24
   -773331.01745   -505129.08145  24872380.5644   24872389.2054
      2110.6254       1644.6434
   3568275.43748   2720874.53047  21440211.3774   21440217.4714
     -2518.0164      -1962.0904
  -4218880.43847  -3235420.88347  22199248.5104   22199255.1664
      1125.6724        877.1474
   7755993.35646   6043629.56646  24097095.0724   24097103.4204
     -3464.4064      -2699.5374
  -2679262.03747  -2087731.57546  22452651.9944   22452658.7444
       -25.0164        -19.4934
   3499436.17448   2666413.68547  22195372.2214   22195379.0414
     -2465.4534      -1921.1324
   1442072.72445   1105944.55145  25074737.3464   25074745.6464
     -1530.0164      -1192.2204
  -2291966.75048  -1752093.61247  20994276.9004   20994283.7444
      -109.7344        -85.5074
 98  6 17 16 20 30.0020000  0  8G30G 4G 5G 7G 8G 9G16G24
   -804979.61245   -529790.26245  24866359.1274   24866366.7364
      2108.9224       1643.3164
   3606120.33648   2750364.05347  21447412.9864   21447419.1394
     -2528.2034      -1970.0284
  -4235724.02747  -3248545.74947  22196043.4714   22196050.1624
      1119.9384        872.6794
   7807977.57346   6084136.71546  24106987.3544   24106996.3934
     -3467.0314      -2701.5834
  -2678801.14047  -2087372.43046  22452739.9244   22452746.5574
       -36.6874        -28.5884
   3536493.58648   2695289.57347  22202423.9474   22202430.6974
     -2475.7974      -1929.1924
   1465101.99045   1123889.40445  25079119.4714   25079128.7214
     -1540.7344      -1200.5724
  -2290242.66548  -1750750.16347  20994605.2754   20994612.1194
      -120.3444        -93.7744
 98  6 17 16 20 45.0020000  0  8G30G 4G 5G 7G 8G 9G16G24
   -836600.76845   -554430.14145  24860341.6044   24860347.3814
      2106.4534       1641.3924
   3644118.71648   2779973.17647  21454643.9794   21454650.0144
     -2538.9694      -1978.4174
  -4252481.33547  -3261603.38347  22192854.6194   22192861.1934
      1113.6414        867.7724
   7860001.63846   6124674.91546  24116887.4634   24116896.3854
     -3470.1414      -2704.0064
  -2678163.19247  -2086875.32746  22452861.1744   22452867.7134
       -49.1564        -38.3044
   3573707.98248   2724287.78547  22209505.7294   22209512.5024
     -2486.8594      -1937.8124
   1488292.58745   1141960.03645  25083532.0884   25083542.5924
     -1552.0004      -1209.3514
  -2288357.69648  -1749281.34747  20994963.8694   20994970.6314
      -131.6724       -102.6014
 98  6 17 16 21  0.0020000  0  8G30G 4G 5G 7G 8G 9G16G24
   -868186.61745   -579042.42245  24854331.2524   24854338.2644
      2104.7344       1640.0534
   3682274.30548   2809704.79347  21461904.6354   21461910.6114
     -2548.6414      -1985.9544
  -4269148.06747  -3274590.43947  22189683.2834   22189689.9514
      1108.3914        863.6814
   7912067.22246   6165245.47346  24126794.9004   24126804.0684
     -3472.1254      -2705.5524
  -2677341.52847  -2086235.07046  22453017.6584   22453024.4204
       -60.6254        -47.2404
   3611085.23748   2753412.90347  22216618.5254   22216625.2404
     -2497.0164      -1945.7264
   1511645.45645   1160157.07245  25087976.5334   25087986.6974
     -1561.8914      -1217.0584
  -2286306.87648  -1747683.29647  20995354.2444   20995361.0294
      -141.9534       -110.6134
 98  6 17 16 21 15.0020000  0  8G30G 4G 5G 7G 8G 9G16G24
   -899742.32645   -603631.25145  24848326.0884   24848333.4394
      2102.3284       1638.1784
   3720577.98848   2839551.81647  21469193.5334   21469199.4754
     -2558.8914      -1993.9414
  -4285732.48847  -3287513.35347  22186527.1894   22186533.7874
      1102.5164        859.1034
   7964165.97546   6205841.88246  24136709.0184   24136717.9514
     -3474.7194      -2707.5734
  -2676344.44047  -2085458.10846  22453207.0644   22453213.8504
       -72.7034        -56.6524
   3648618.24148   2782659.38147  22223760.8224   22223767.5144
     -2507.6874      -1954.0424
   1535151.16145   1178473.19345  25092449.9164   25092460.8774
     -1572.6254      -1225.4224
  -2284098.44548  -1745962.43347  20995774.3384   20995780.9824
      -152.8594       -119.1114
 98  6 17 16 21 30.0020000  0  8G30G 4G 5G 7G 8G 9G16G24
   -931270.30445   -628198.47745  24842325.5644   24842332.6234
      2100.5784       1636.8144
   3759026.37048   2869511.58747  21476510.0574   21476515.9754
     -2568.4534      -2001.3924
  -4302239.25147  -3300375.75547  22183385.9794   22183392.6234
      1097.5314        855.2194
   8016292.95546   6246460.27146  24146628.5964   24146636.8384
     -3476.3754      -2708.8644
  -2675175.01447  -2084546.86246  22453429.8464   22453436.6894
       -84.0784        -65.5154
   3686300.42648   2812022.10747  22230931.4164   22230938.0724
     -2517.4374      -1961.6404
   1558808.01045   1196907.06845  25096951.5804   25096961.1004
     -1582.3914      -1233.0324
  -2281735.83348  -1744121.43147  20996224.0724   20996230.7994
      -162.9534       -126.9764
 98  6 17 16 21 45.0020000  0  8G30G 4G 5G 7G 8G 9G16G24
   -962760.70945   -652736.43545  24836333.3074   24836341.2444
      2097.9064       1634.7324
   3797631.32748   2899593.36447  21483856.1504   21483862.0454
     -2579.1564      -2009.7324
  -4318659.49647  -3313170.74547  22180261.3774   22180268.2954
      1091.6094        850.6054
   8068456.00146   6287106.78646  24156554.6274   24156563.4434
     -3478.9224      -2710.8484
  -2673823.98347  -2083494.11246  22453687.0644   22453693.8264
       -96.2974        -75.0374
   3724139.47248   2841507.06047  22238131.8694   22238138.7644
     -2527.9694      -1969.8464
   1582621.00845   1215462.67345  25101483.3934   25101492.8774
     -1592.8594      -1241.1894
  -2279211.39248  -1742154.32947  20996704.3934   20996711.1544
      -173.8754       -135.4874
 98  6 17 16 22  0.0020000  0  8G30G 4G 5G 7G 8G 9G16G24
   -994213.15445   -677244.79145  24830348.3774   24830356.9004
      2096.2504       1633.4424
   3836395.13548   2929798.92947  21491232.9004   21491238.9474
     -2588.9064      -2017.3304
  -4334993.29447  -3325898.36947  22177152.9324   22177159.5884
      1086.6884        846.7694
   8120653.39946   6327780.03946  24166487.6894   24166496.2954
     -3480.2504      -2711.8834
  -2672292.63847  -2082300.85146  22453978.4474   22453985.1274
      -107.4374        -83.7184
   3762131.57748   2871111.27747  22245361.5644   22245368.4244
     -2537.1414      -1976.9934
   1606585.54345   1234136.35945  25106042.8464   25106051.8034
     -1601.8754      -1248.2144
  -2276524.86348  -1740060.92147  20997215.6114   20997222.3614
      -183.9534       -143.3404
 98  6 17 16 22 15.0020000  0  8G30G 4G 5G 7G 8G 9G16G24
  -1025628.95145   -701724.60845  24824370.1434   24824378.8304
      2092.6884       1630.6664
   3875316.75348   2960127.45747  21498639.4394   21498645.4044
     -2600.4374      -2026.3154
  -4351242.05947  -3338559.72947  22174060.8774   22174067.5574
      1080.0004        841.5584
   8172881.40246   6368477.15846  24176426.2134   24176435.1824
     -3483.2814      -2714.2454
  -2670582.82847  -2080968.53046  22454303.9554   22454310.6354
      -120.4224        -93.8354
   3800271.45848   2900830.64547  22252619.4394   22252626.1434
     -2548.0314      -1985.4794
   1630695.50845   1252923.32945  25110631.4164   25110639.8114
     -1612.7034      -1256.6524
  -2273674.18848  -1737839.60847  20997758.0724   20997764.7994
      -195.9374       -152.6794
 98  6 17 16 22 30.0020000  0  8G30G 4G 5G 7G 8G 9G16G24
  -1057004.84645   -726173.30645  24818399.7364   24818407.7324
      2090.7664       1629.1684
   3914395.86548   2990578.70347  21506075.9394   21506081.8464
     -2610.0784      -2033.8274
  -4367405.00447  -3351154.22347  22170985.4554   22170992.1004
      1075.0474        837.6994
   8225140.60746   6409198.57546  24186370.7994   24186380.1784
     -3484.6724      -2715.3294
  -2668692.58947  -2079495.61446  22454663.3854   22454670.0414
      -131.6724       -102.6014
   3838562.61148   2930667.88947  22259905.8934   22259912.6784
     -2557.5314      -1992.8814
   1654955.25745   1271827.05645  25115247.4324   25115257.1154
     -1621.9534      -1263.8604
  -2270658.68948  -1735489.86147  20998331.9004   20998338.5214
      -206.1564       -160.6414
 98  6 17 16 22 45.0020000  0  8G30G 4G 5G 7G 8G 9G16G24
  -1088342.46345   -750592.16245  24812436.7754   24812445.5104
      2087.5634       1626.6724
   3953628.75948   3021149.78547  21513541.7214   21513547.8964
     -2621.0164      -2042.3504
  -4383484.53147  -3363683.71247  22167925.4944   22167932.3144
      1068.7974        832.8294
   8277430.93846   6449944.26646  24196321.4084   24196330.9044
     -3487.4064      -2717.4594
  -2666624.23447  -2077883.90146  22455057.1434   22455063.8224
      -144.1724       -112.3424
   3877005.08348   2960623.04447  22267221.5494   22267228.3224
     -2568.1254      -2001.1364
   1679363.65145   1290846.59345  25119891.8934   25119900.2524
     -1632.5474      -1272.1144
  -2267482.12348  -1733014.60647  20998936.2684   20998942.9594
      -217.3594       -169.3714
 98  6 17 16 23  0.0020000  0  8G30G 4G 5G 7G 8G 9G16G24
  -1119635.51745   -774976.34145  24806480.9244   24806487.3114
      2084.6564       1624.4074
   3993024.38948   3051847.67647  21521038.2914   21521044.3034
     -2631.8914      -2050.8244
  -4399469.97847  -3376139.89347  22164883.5254   22164890.2294
      1062.4534        827.8864
   8329760.80046   6490720.74446  24206279.3074   24206287.7254
     -3490.0474      -2719.5174
  -2664370.36247  -2076127.63446  22455485.8614   22455492.5644
      -156.4534       -121.9124
   3915602.83048   2990699.19547  22274566.2444   22274572.9594
     -2578.3754      -2009.1234
   1703929.50345   1309988.83145  25124566.8774   25124577.2404
     -1643.0944      -1280.3334
  -2264140.51848  -1730410.75147  20999572.2604   20999578.8574
      -228.3284       -177.9184
 98  6 17 16 23 15.0020000  0  8G30G 4G 5G 7G 8G 9G16G24
  -1150880.44745   -799322.99345  24800535.3074   24800542.1784
      2081.1884       1621.7054
   4032587.67148   3082676.20247  21528566.9164   21528572.9394
     -2643.3444      -2059.7484
  -4415355.51847  -3388518.23047  22161860.5884   22161867.0684
      1055.4694        822.4434
   8382134.34646   6531531.28346  24216245.7994   24216253.4324
     -3493.2344      -2722.0014
  -2661928.59847  -2074224.94946  22455950.5024   22455957.3614
      -169.2194       -131.8594
   3954358.52148   3020898.41547  22281941.3224   22281947.9554
     -2589.1874      -2017.5494
   1728661.83345   1329260.78345  25129272.8384   25129282.3934
     -1654.7194      -1289.3914
  -2260629.35548  -1727674.77347  21000240.3144   21000246.9944
      -239.9534       -186.9764
 98  6 17 16 23 30.0020000  0  8G30G 4G 5G 7G 8G 9G16G24
  -1182089.12445   -823641.41945  24794596.4084   24794603.7364
      2079.8134       1620.6334
   4072308.34048   3113627.36647  21536125.5334   21536131.6044
     -2652.8914      -2067.1874
  -4431149.04547  -3400824.86547  22158855.0184   22158861.6394
      1050.1884        818.3284
   8434540.59446   6572367.28046  24226218.5804   24226228.1004
     -3494.4064      -2722.9144
  -2659310.69847  -2072185.02246  22456448.6894   22456455.6194
      -180.0004       -140.2604
   3993260.00848   3051211.24147  22289343.8774   22289350.5684
     -2597.8124      -2024.2694
   1753555.85345   1348658.66545  25134010.8304   25134020.2794
     -1664.5944      -1297.0864
  -2256958.52248  -1724814.37447  21000938.7834   21000945.4634
      -249.6414       -194.5254
 98  6 17 16 23 45.0020000  0  8G30G 4G 5G 7G 8G 9G16G24
  -1213259.27545   -847929.77445  24788664.4084   24788670.9594
      2076.7664       1618.2594
   4112190.19948   3144704.13547  21543714.7054   21543720.7754
     -2664.1414      -2075.9544
  -4446845.30447  -3413055.70947  22155868.2054   22155874.9084
      1043.1414        812.8374
   8486981.36046   6613230.18246  24236197.3544   24236205.9594
     -3497.1874      -2725.0814
  -2656513.45247  -2070005.34746  22456981.1824   22456988.0534
      -192.4694       -149.9764
   4032310.19248   3081639.93947  22296775.1584   22296781.8034
     -2608.3594      -2032.4884
   1778613.50445   1368184.18345  25138778.0414   25138785.2404
     -1675.9374      -1305.9254
  -2253124.40748  -1721826.74447  21001668.4634   21001674.9904
      -261.0944       -203.4504
 98  6 17 16 24  0.0020000  0  8G30G 4G 5G 7G 8G 9G16G24
  -1244399.88845   -872195.15145  24782739.4474   24782746.5294
      2074.5004       1616.4944
   4152223.11248   3175898.60947  21551332.7754   21551338.7524
     -2674.3754      -2083.9294
  -4462451.82947  -3425216.62447  22152898.3694   22152905.0494
      1036.9694        808.0284
   8539447.79746   6654113.09545  24246181.6434   24246190.5064
     -3499.0944      -2726.5674
  -2653546.11847  -2067693.12946  22457545.5254   22457552.2294
      -204.0004       -158.9614
   4071503.43248   3112180.11147  22304233.3384   22304239.9714
     -2618.2194      -2040.1704
   1803827.86345   1387831.72245  25143577.3934   25143587.2644
     -1686.7974      -1314.3874
  -2249132.96748  -1718716.52547  21002428.1664   21002434.8464
      -271.9374       -211.8994
 98  6 17 16 24 15.0020000  0  8G30G 4G 5G 7G 8G 9G16G24
  -1275498.77245   -896427.98545  24776821.2294   24776829.7644
      2071.9844       1614.5334
   4192416.43248   3207218.07547  21558981.2604   21558987.4824
     -2684.8124      -2092.0624
  -4477960.60747  -3437301.37647  22149947.2294   22149953.9434
      1030.8594        803.2674
   8591949.55946   6695023.53546  24256172.3774   24256180.9364
     -3501.1724      -2728.1864
  -2650396.87247  -2065239.16946  22458144.7294   22458151.4434
      -215.9694       -168.2874
   4110853.65648   3142842.61047  22311721.4324   22311728.0884
     -2628.5624      -2048.2314
   1829214.54645   1407613.53645  25148410.0724   25148417.5534
     -1698.2194      -1323.2874
  -2244970.33448  -1715472.90547  21003220.0724   21003226.6354
      -283.1254       -220.6174
 98  6 17 16 24 30.0020000  0  8G30G 4G 5G 7G 8G 9G16G24
  -1306556.46845   -920628.76545  24770911.0104   24770918.4794
      2069.4224       1612.5374
   4232769.03948   3238661.65947  21566660.2604   21566666.2014
     -2695.1874      -2100.1464
  -4493375.41047  -3449312.90147  22147013.8074   22147020.5214
      1024.7664        798.5194
   8644486.15846   6735961.10245  24266170.0964   24266178.7714
     -3503.3754      -2729.9034
  -2647064.26547  -2062642.32746  22458779.0414   22458785.8034
      -228.0474       -177.6994
   4150364.20748   3173630.03647  22319240.1194   22319246.6824
     -2639.1874      -2056.5104
   1854779.81345   1427534.54245  25153271.9944   25153281.7014
     -1710.1414      -1332.5774
  -2240637.78048  -1712096.88347  21004044.7214   21004051.3304
      -294.2194       -229.2614
 98  6 17 16 24 45.0020000  0  8G30G 4G 5G 7G 8G 9G16G24
  -1337584.64045   -944806.48745  24765006.6824   24765014.6074
      2067.4694       1611.0154
   4273269.58948   3270220.52547  21574367.2604   21574373.1314
     -2705.1254      -2107.8904
  -4508705.96747  -3461258.78447  22144096.6744   22144103.4004
      1019.0784        794.0874
   8697048.92345   6776919.08145  24276172.0024   24276181.4984
     -3505.2664      -2731.3764
  -2643557.34447  -2059909.65946  22459446.5804   22459453.3544
      -239.8124       -186.8674
   4190025.55348   3204534.96047  22326787.3144   22326793.8074
     -2649.1724      -2064.2904
   1880515.20445   1447588.06045  25158169.6664   25158179.4674
     -1721.5314      -1341.4534
  -2236145.80548  -1708596.63647  21004899.3544   21004905.9394
      -304.9374       -237.6144
 98  6 17 16 25  0.0020000  0  8G30G 4G 5G 7G 8G 9G16G24
  -1368573.14545   -968953.33045  24759109.9004   24759117.4394
      2064.1564       1608.4334
   4313930.86348   3301904.63047  21582104.8304   21582111.0064
     -2716.5784      -2116.8144
  -4523940.69747  -3473129.99647  22141197.3934   22141204.0024
      1012.0474        788.6084
   8749651.61446   6817908.15745  24286182.3464   24286191.3964
     -3508.5624      -2733.9454
  -2639861.41147  -2057029.70546  22460149.6744   22460156.6394
      -253.2194       -197.3134
   4229845.33548   3235563.33847  22334364.7214   22334371.2014
     -2660.3444      -2072.9954
   1906432.82745   1467783.57945  25163103.1744   25163111.6864
     -1734.2664      -1351.3764
  -2231482.34048  -1704962.76347  21005786.8384   21005793.4824
      -317.0944       -247.0864
 98  6 17 16 25 15.0020000  0  8G30G 4G 5G 7G 8G 9G16G24
  -1399521.15845   -993068.67445  24753220.3224   24753229.0574
      2062.9224       1607.4724
   4354756.06348   3333716.46847  21589873.7604   21589879.7834
     -2726.0474      -2124.1924
  -4539080.01047  -3484926.85047  22138316.6894   22138323.3344
      1007.2814        784.8944
   8802294.07646   6858928.25445  24296200.0804   24296208.3934
     -3509.7034      -2734.8344
  -2635970.95947  -2053998.17746  22460890.1584   22460897.0534
      -264.7814       -206.3234
   4269826.48448   3266717.46347  22341972.8774   22341979.4514
     -2669.7974      -2080.3614
   1932532.71845   1488121.20545  25168067.9944   25168075.2644
     -1745.0624      -1359.7894
  -2226643.28148  -1701192.05847  21006707.6894   21006714.3934
      -327.4064       -255.1224
 98  6 17 16 25 30.0020000  0  8G30G 4G 5G 7G 8G 9G16G24
  -1430446.64045  -1017166.41145  24747335.6824   24747342.6934
      2060.7664       1605.7914
   4395725.22948   3365640.48747  21597669.8934   21597675.9984
     -2736.2034      -2132.1064
  -4554144.20847  -3496665.17947  22135449.8934   22135456.4904
      1001.5474        780.4264
   8854958.12346   6899965.14345  24306221.5884   24306230.3694
     -3511.9224      -2736.5624
  -2631903.16947  -2050828.46746  22461664.1664   22461671.0374
      -277.2974       -216.0754
   4309953.53148   3297985.27347  22349608.8304   22349615.3934
     -2680.1724      -2088.4464
   1958797.22445   1508587.04345  25173066.3544   25173075.2524
     -1756.4844      -1368.6894
  -2221646.74148  -1697298.64347  21007658.4864   21007665.0964
      -338.4694       -263.7424
 98  6 17 16 25 45.0020000  0  8G30G 4G 5G 7G 8G 9G16G24
  -1461338.46445  -1041237.91845  24741457.1894   24741464.6114
      2057.6724       1603.3814
   4436847.94748   3397684.15647  21605495.1044   21605501.2214
     -2747.2034      -2140.6784
  -4569121.35947  -3508335.68147  22132599.8544   22132606.5804
       995.0314        775.3494
   8907658.73846   6941030.51645  24316250.1274   24316259.0844
     -3515.2814      -2739.1804
  -2627646.17847  -2047511.33546  22462474.2914   22462481.3504
      -290.7664       -226.5714
   4350236.77448   3329374.79247  22357274.2834   22357281.1664
     -2691.3914      -2097.1874
   1985230.86245   1529184.65845  25178096.7754   25178107.7134
     -1768.4064      -1377.9794
  -2216484.26548  -1693275.93347  21008640.7054   21008647.3504
      -350.3284       -272.9834
 98  6 17 16 26  0.0020000  0  8G30G 4G 5G 7G 8G 9G16G24
  -1492194.58745  -1065281.63245  24735585.1744   24735594.0614
      2056.6564       1602.5894
   4478121.83448   3429845.62247  21613349.3934   21613355.6044
     -2755.7814      -2147.3624
  -4584015.51447  -3519941.50647  22129765.5804   22129772.1894
       991.0314        772.2324
   8960399.31246   6982127.05845  24326286.3544   24326295.4514
     -3516.6414      -2740.2394
  -2623198.70347  -2044045.76946  22463320.7524   22463327.3504
      -302.1094       -235.4104
   4390677.48548   3360887.01747  22364970.0574   22364976.6894
     -2700.4534      -2104.2494
   2011831.59245   1549912.46145  25183157.7444   25183168.0494
     -1778.2034      -1385.6134
  -2211155.41648  -1689123.57347  21009654.7834   21009661.3574
      -360.0314       -280.5444
 98  6 17 16 26 15.0020000  0  8G30G 4G 5G 7G 8G 9G16G24
  -1523024.04945  -1089304.56545  24729718.3934   24729725.9324
      2053.7194       1600.3004
   4519536.28048   3462116.61147  21621230.4084   21621236.6894
     -2766.3754      -2155.6174
  -4598838.08447  -3531491.55047  22126944.8934   22126951.5144
       985.1254        767.6304
   9013173.02346   7023249.39146  24336329.1584   24336338.0574
     -3520.0164      -2742.8694
  -2618569.31247  -2040438.45646  22464201.6194   22464208.2174
      -315.3594       -245.7354
   4431264.36248   3392513.13347  22372693.7214   22372700.3074
     -2711.2504      -2112.6624
   2038590.13045   1570763.26545  25188251.0804   25188264.0924
     -1789.7344      -1394.5984
  -2205669.05048  -1684848.47747  21010698.7834   21010705.2874
      -371.6254       -289.5784
 98  6 17 16 26 30.0020000  0  8G30G 4G 5G 7G 8G 9G16G24
  -1553820.88145  -1113302.06845  24723857.8854   24723866.2214
      2052.3444       1599.2294
   4561097.83748   3494502.23547  21629139.2834   21629145.3894
     -2775.3124      -2162.5814
  -4613582.39747  -3542980.62047  22124139.2604   22124145.8934
       980.5784        764.0874
   9065986.30946   7064402.60146  24346379.4004   24346387.6314
     -3521.9224      -2744.3554
  -2613751.67347  -2036684.45646  22465118.4004   22465124.7524
      -327.1414       -254.9154
   4472000.21748   3424255.33647  22380445.4164   22380451.8264
     -2720.3124      -2119.7244
   2065507.94945   1591738.17845  25193371.8934   25193381.9164
     -1799.4374      -1402.1594
  -2200020.90848  -1680447.31847  21011773.5964   21011780.2174
      -381.5944       -297.3464
 98  6 17 16 26 45.0020000  0  8G30G 4G 5G 7G 8G 9G16G24
  -1584600.59245  -1137286.19645  24718000.4634   24718007.9204
      2050.8134       1598.0364
   4602787.28048   3526987.51047  21637072.5724   21637078.6194
     -2784.0314      -2169.3754
  -4628259.83347  -3554417.57347  22121346.1194   22121352.7174
       975.6564        760.2524
   9118824.13046   7105574.89346  24356433.6824   24356443.1544
     -3523.8914      -2745.8894
  -2608762.61347  -2032796.87546  22466067.7754   22466074.5494
      -338.7974       -263.9984
   4512865.81248   3456098.63547  22388221.9084   22388228.3654
     -2729.1414      -2126.6034
   2092563.92045   1612820.75045  25198521.4554   25198532.3694
     -1808.7194      -1409.3914
  -2194228.66348  -1675933.87347  21012875.8074   21012882.5214
      -391.4534       -305.0284
 98  6 17 16 27  0.0020000  0  8G30G 4G 5G 7G 8G 9G16G24
  -1615347.27645  -1161244.64645  24712149.6354   24712157.1864
      2047.8594       1595.7354
   4644615.88548   3559581.22347  21645032.2294   21645038.2874
     -2793.9694      -2177.1194
  -4642855.72047  -3565790.98447  22118568.6974   22118575.4474
       969.6414        755.5644
   9171699.49246   7146776.41146  24366495.7754   24366504.6394
     -3526.9694      -2748.2874
  -2603590.36247  -2028766.54946  22467051.9634   22467058.5844
      -351.6414       -274.0064
   4553871.46848   3488051.07647  22396025.0334   22396031.6894
     -2739.1254      -2134.3834
   2119765.91945   1634017.09645  25203697.3774   25203708.2684
     -1819.0784      -1417.4634
  -2188280.95948  -1671299.29147  21014007.7364   21014014.5574
      -402.3914       -313.5514
 98  6 17 16 27 15.0020000  0  8G30G 4G 5G 7G 8G 9G16G24
  -1646052.73345  -1185170.92245  24706307.3774   24706315.8544
      2045.5164       1593.9084
   4686589.56248   3592287.97547  21653019.5024   21653025.3384
     -2803.1724      -2184.2904
  -4657365.87547  -3577097.58747  22115807.5104   22115814.2134
       964.3594        751.4494
   9224614.42046   7188008.79846  24376564.9944   24376573.3544
     -3528.9534      -2749.8344
  -2598231.70347  -2024590.96546  22468071.3774   22468078.0574
      -363.4374       -283.1984
   4595023.12348   3520117.28247  22403855.8854   22403862.7174
     -2748.4374      -2141.6404
   2147117.83545   1655330.24245  25208902.8614   25208913.1434
     -1828.4694      -1424.7814
  -2182173.24548  -1666540.02847  21015169.7684   21015176.5414
      -412.6094       -321.5144
 98  6 17 16 27 30.0020000  0  8G30G 4G 5G 7G 8G 9G16G24
  -1676718.48845  -1209066.28245  24700471.5804   24700480.0334
      2043.5784       1592.3994
   4728704.21948   3625104.58747  21661033.6894   21661039.7254
     -2811.7194      -2190.9504
  -4671791.16147  -3588338.06047  22113062.5334   22113069.0374
       959.3134        747.5164
   9277563.63546   7229267.89845  24386640.7214   24386648.8224
     -3530.5944      -2751.1124
  -2592694.03547  -2020275.90346  22469125.3224   22469131.9324
      -374.5474       -291.8554
   4636317.99648   3552295.08747  22411714.0644   22411720.9944
     -2757.0944      -2148.3854
   2174614.80545   1676756.43545  25214135.6354   25214148.0964
     -1837.3914      -1431.7334
  -2175908.71948  -1661658.57047  21016362.1354   21016368.9204
      -422.2814       -329.0504
 98  6 17 16 27 45.0020000  0  8G30G 4G 5G 7G 8G 9G16G24
  -1707340.59245  -1232927.62545  24694643.5644   24694651.4674
      2039.6884       1589.3674
   4770960.91848   3658031.87947  21669074.8464   21669080.8464
     -2822.2504      -2199.1564
  -4686124.96647  -3599507.24847  22110334.9244   22110341.1114
       952.1564        741.9404
   9330551.42846   7270557.05845  24396723.9714   24396733.1044
     -3534.0944      -2753.8394
  -2586977.05947  -2015821.11846  22470213.5024   22470220.0064
      -387.4224       -301.8874
   4677753.61348   3584582.55747  22419598.8074   22419605.5924
     -2767.3914      -2156.4084
   2202257.13345   1698295.90545  25219395.6274   25219404.7014
     -1847.9534      -1439.9634
  -2169485.06848  -1656653.12047  21017584.5724   21017591.2644
      -433.9374       -338.1334
 98  6 17 16 28  0.0020000  0  8G30G 4G 5G 7G 8G 9G16G24
  -1737920.36845  -1256755.98245  24688825.2524   24688832.7684
      2037.3754       1587.5654
   4813361.73948   3691071.47047  21677143.6974   21677149.4394
     -2831.4694      -2206.3394
  -4700367.29147  -3610605.15647  22107624.5724   22107631.0184
       946.5474        737.5694
   9383573.81146   7311873.16046  24406814.4864   24406823.8304
     -3535.7664      -2755.1424
  -2581081.69647  -2011227.33146  22471335.0494   22471341.7754
      -398.9064       -310.8364
   4719329.25248   3616979.13447  22427510.7294   22427517.6114
     -2776.2814      -2163.3364
   2230044.69945   1719948.54445  25224683.2444   25224693.3614
     -1857.3914      -1447.3174
  -2162900.74548  -1651522.47047  21018837.4324   21018843.9944
      -444.2814       -346.1934
 98  6 17 16 28 15.0020000  0  8G30G 4G 5G 7G 8G 9G16G24
  -1768454.32145  -1280548.64745  24683014.0334   24683022.0064
      2034.1094       1585.0204
   4855914.06348   3724229.12147  21685241.0334   21685246.9514
     -2842.0004      -2214.5454
  -4714511.91347  -3621626.93547  22104933.0104   22104939.3144
       939.5784        732.1394
   9436631.16645   7353216.51546  24416909.7684   24416918.9824
     -3538.2664      -2757.0904
  -2575002.37747  -2006490.19346  22472492.0724   22472498.8934
      -411.4374       -320.6014
   4761050.27748   3649488.99947  22435449.7054   22435456.0684
     -2786.2344      -2171.0924
   2257987.46045   1741722.10745  25230001.2684   25230008.3144
     -1868.0784      -1455.6454
  -2156149.66848  -1646261.88547  21020122.1114   21020128.7564
      -455.5624       -354.9844
 98  6 17 16 28 30.0020000  0  8G30G 4G 5G 7G 8G 9G16G24
  -1798952.42245  -1304313.37745  24677210.9084   24677218.2834
      2032.2344       1583.5594
   4898613.45348   3757501.36147  21693366.1584   21693372.1114
     -2851.2504      -2221.7534
  -4728563.08447  -3632575.89047  22102258.9554   22102265.2714
       933.9064        727.7194
   9489712.78845   7394578.79145  24427011.4714   24427020.4394
     -3539.3124      -2757.9064
  -2568748.48147  -2001617.03146  22473681.9324   22473688.6464
      -422.4374       -329.1724
   4802907.74348   3682105.18447  22443415.2134   22443421.9164
     -2794.7974      -2177.7644
   2286078.09245   1763610.87145  25235346.1274   25235354.6974
     -1877.4534      -1462.9504
  -2149242.90848  -1640879.98747  21021436.5184   21021443.1504
      -465.3444       -362.6064
 98  6 17 16 28 45.0020000  0  8G30G 4G 5G 7G 8G 9G16G24
  -1829407.23046  -1328044.34445  24671415.1824   24671423.0024
      2029.2034       1581.1974
   4941465.22348   3790892.34847  21701520.7834   21701526.8774
     -2861.5624      -2229.7894
  -4742514.74247  -3643447.30047  22099604.2604   22099610.6704
       927.0634        722.3864
   9542826.27845   7435965.88945  24437118.5884   24437126.5024
     -3541.6874      -2759.7564
  -2562314.15047  -1996603.26346  22474906.6824   22474913.5644
      -434.6564       -338.6934
   4844909.16148   3714833.54847  22451407.8934   22451414.5844
     -2804.6094      -2185.4104
   2314326.75845   1785622.83845  25240721.8224   25240728.7994
     -1888.2664      -1471.3764
  -2142175.89948  -1635373.21747  21022780.9944   21022787.5804
      -476.1724       -371.0434
 98  6 17 16 29  0.0020000  0  7G30G 4G 5G 7G 8G 9G24
  -1859827.85245  -1351748.70845  24665626.2054   24665633.6154
      2026.6414       1579.2004
   4984462.35548   3824396.59547  21709702.8544   21709708.9944
     -2871.6874      -2237.6794
  -4756374.88047  -3654247.40147  22096966.5884   22096973.1044
       920.6884        717.4194
   9595963.99345   7477371.84945  24447229.9944   24447239.6194
     -3543.6564      -2761.2914
  -2555709.01847  -1991456.41146  22476163.5104   22476170.1784
      -446.2504       -347.7274
   4887046.88048   3747668.11547  22459426.3074   22459433.0924
     -2814.0624      -2192.7764
  -2134957.93948  -1629748.83047  21024154.5104   21024161.2604
      -486.5474       -379.1274
 98  6 17 16 29 15.0020000  0  7G30G 4G 5G 7G 8G 9G24
  -1890204.21145  -1375418.57445  24659846.6114   24659853.7644
      2024.1254       1577.2404
   5027620.44048   3858026.26447  21717915.7684   21717921.7794
     -2882.1564      -2245.8364
  -4770132.14347  -3664967.33547  22094348.7914   22094355.3894
       914.1094        712.2934
   9649139.61545   7518807.37145  24457349.3074   24457358.4984
     -3545.8754      -2763.0194
  -2548922.44147  -1986168.16746  22477454.7914   22477461.4944
      -458.0624       -356.9324
   4929334.60648   3780619.56947  22467473.3464   22467480.0024
     -2823.7504      -2200.3254
  -2127575.60848  -1623996.35847  21025559.5104   21025566.1074
      -497.2034       -387.4314
 98  6 17 16 29 30.0020000  0  7G30G 4G 5G 7G 8G 9G24
  -1920554.79045  -1399068.34345  24654070.8224   24654079.1004
      2022.4534       1575.9384
   5070925.07848   3891770.13247  21726156.2914   21726162.3264
     -2891.9374      -2253.4584
  -4783798.84647  -3675616.70247  22091747.9474   22091754.4164
       907.9534        707.4964
   9702339.49745   7560261.81345  24467472.8934   24467481.9794
     -3547.6564      -2764.4074
  -2541970.06947  -1980750.73046  22478777.9634   22478784.5844
      -469.1414       -365.5644
   4971756.95348   3813675.92447  22475546.3144   22475552.7714
     -2832.7504      -2207.3384
  -2120043.51148  -1618127.18347  21026992.9004   21026999.3464
      -507.2504       -395.2604
 98  6 17 16 29 45.0020000  0  7G30G 4G 5G 7G 8G 9G24
  -1950870.71045  -1422691.14045  24648301.2214   24648307.8074
      2020.3914       1574.3304
   5114385.38548   3925635.30047  21734426.4394   21734432.4634
     -2901.9844      -2261.2874
  -4797362.58547  -3686185.84147  22089166.9714   22089173.6864
       901.3134        702.3214
   9755578.01045   7601746.29745  24477603.7754   24477613.3304
     -3550.0314      -2766.2584
  -2534839.60747  -1975194.53846  22480134.7214   22480141.5064
      -480.8284       -374.6714
   5014325.09748   3846845.88447  22483646.6584   22483653.0454
     -2842.2974      -2214.7774
  -2112349.71748  -1612132.01347  21028456.8544   21028463.3344
      -517.8284       -403.5024
 98  6 17 16 30  0.0020000  0  7G30G 4G 5G 7G 8G 9G24
  -1981147.50246  -1446283.40145  24642540.5574   24642548.3774
      2016.4384       1571.2504
   5158004.11448   3959623.91747  21742726.8934   21742732.9284
     -2913.9224      -2270.5884
  -4810820.08747  -3696672.19447  22086606.0024   22086612.7524
       892.9534        695.8084
   9808858.16746   7643263.26445  24487743.1744   24487751.8504
     -3554.0784      -2769.4124
  -2527525.08547  -1969494.91246  22481526.7994   22481533.6314
      -494.5314       -385.3494
   5057046.85548   3880135.54847  22491776.2134   22491782.7054
     -2854.0624      -2223.9454
  -2104488.89348  -1606006.68547  21029952.9084   21029959.4474
      -530.3754       -413.2794
 98  6 17 16 30 15.0020000  0  7G30G 4G 5G 7G 8G 9G24
  -2011383.75545  -1469844.09645  24636786.3074   24636794.2684
      2014.9534       1570.0934
   5201782.62948   3993737.03747  21751057.4474   21751063.4244
     -2923.2504      -2277.8574
  -4824171.41247  -3707075.81347  22084065.4244   22084072.1044
       887.1414        691.2784
   9862180.37946   7684813.02945  24497889.9084   24497897.5184
     -3555.7344      -2770.7024
  -2520023.44747  -1963649.47646  22482954.2834   22482961.1434
      -505.7034       -394.0544
   5099927.01348   3913548.63647  22499936.0964   22499942.8344
     -2863.3444      -2231.1774
  -2096459.47848  -1599749.99547  21031480.8074   21031487.3814
      -540.2814       -420.9984
 98  6 17 16 30 30.0020000  0  7G30G 4G 5G 7G 8G 9G24
  -2041597.03145  -1493386.87845  24631037.1744   24631045.5804
      2013.5634       1569.0104
   5245699.12348   4027957.67647  21759414.5494   21759420.6074
     -2932.1414      -2284.7854
  -4837435.49747  -3717411.45447  22081541.3384   22081548.1004
       881.5164        686.8954
   9915529.22146   7726383.50345  24508041.9794   24508049.8114
     -3557.4064      -2772.0054
  -2512355.84847  -1957674.73146  22484413.3224   22484420.1544
      -516.5784       -402.5284
   5142945.98348   3947069.89647  22508122.1974   22508128.7954
     -2872.4224      -2238.2514
  -2088282.18148  -1593378.06447  21033036.9004   21033043.4284
      -549.9844       -428.5594
 98  6 17 16 30 45.0020000  0  7G30G 4G 5G 7G 8G 9G24
  -2071779.17545  -1516905.38745  24625293.1744   24625300.9594
      2011.3284       1567.2694
   5289755.86348   4062287.59747  21767798.4864   21767804.5924
     -2941.4534      -2292.0414
  -4850607.11447  -3727675.04047  22079034.5254   22079041.2644
       875.2814        682.0374
   9968913.95846   7767981.98445  24518200.8544   24518208.5804
     -3559.9224      -2773.9654
  -2504515.38447  -1951565.27846  22485905.3614   22485912.3964
      -528.1874       -411.5754
   5186109.97748   3980704.16147  22516336.2444   22516342.6894
     -2882.1874      -2245.8604
  -2079947.81448  -1586883.74947  21034622.6894   21034629.2754
      -560.6724       -436.8874
 98  6 17 16 31  0.0020000  0  7G30G 4G 5G 7G 8G 9G24
  -2101926.72445  -1540396.95545  24619556.4244   24619563.4824
      2007.9694       1564.6514
   5333954.50748   4096728.09347  21776209.1974   21776215.1154
     -2952.0624      -2300.3084
  -4863680.69047  -3737862.23047  22076546.7994   22076553.3734
       867.4844        675.9624
  10022337.11446   7809610.39645  24528367.0254   24528374.5884
     -3563.4844      -2776.7414
  -2496498.27947  -1945318.18646  22487430.7524   22487437.4204
      -541.0944       -421.6314
   5229422.48448   4014454.14647  22524578.3544   22524584.9754
     -2893.1564      -2254.4074
  -2071449.02848  -1580261.31147  21036239.9554   21036246.6584
      -572.9064       -446.4204
 98  6 17 16 31 15.0020000  0  7G30G 4G 5G 7G 8G 9G24
  -2132020.68645  -1563846.77445  24613829.8854   24613836.7294
      2005.5474       1562.7644
   5378314.44848   4131294.27647  21784650.5964   21784656.4674
     -2961.5474      -2307.6994
  -4876633.45847  -3747955.28747  22074082.1354   22074088.7094
       860.5634        670.5684
  10075815.56446   7851281.89745  24538543.8614   24538552.5614
     -3566.0004      -2778.7014
  -2488284.08547  -1938917.51646  22488993.7754   22489000.3384
      -553.2194       -431.0804
   5272903.58348   4048335.50447  22532852.6974   22532859.3304
     -2903.3444      -2262.3464
  -2062763.16048  -1573493.09747  21037893.0104   21037899.5964
      -584.2344       -455.2484
 98  6 17 16 31 30.0020000  0  7G30G 4G 5G 7G 8G 9G24
  -2162088.49745  -1587276.20045  24608107.9864   24608116.5334
      2004.9224       1562.2774
   5422804.39548   4165961.76147  21793116.7444   21793122.6154
     -2968.9844      -2313.4944
  -4889492.90747  -3757975.63047  22071635.0964   22071641.6704
       855.4844        666.6114
  10129320.03646   7892973.65445  24548725.1744   24548733.7214
     -3566.3754      -2778.9944
  -2479896.79247  -1932381.96446  22490589.8544   22490596.6974
      -563.6564       -439.2134
   5316526.14048   4082327.09347  22541153.6434   22541160.1234
     -2911.5624      -2268.7504
  -2053918.07248  -1566600.81347  21039576.1584   21039582.6624
      -593.6724       -462.6014
 98  6 17 16 31 45.0020000  0  7G30G 4G 5G 7G 8G 9G24
  -2192145.40845  -1610697.13845  24602388.7134   24602395.9364
      2002.4844       1560.3774
   5467406.05448   4200716.29647  21801604.0724   21801610.0614
     -2978.0474      -2320.5564
  -4902276.15747  -3767936.59247  22069202.3224   22069208.7444
       848.8444        661.4374
  10182829.62946   7934669.41745  24558907.9244   24558917.0214
     -3568.3444      -2780.5284
  -2471352.46947  -1925724.05546  22492216.1274   22492222.8654
      -575.8284       -448.6974
   5360273.90848   4116416.24847  22549478.4794   22549484.9944
     -2921.6094      -2276.5794
  -2044929.72448  -1559596.89947  21041286.5254   21041292.9594
      -604.9064       -471.3564
 98  6 17 16 32  0.0020000  0  7G30G 4G 5G 7G 8G 9G24
  -2222173.55545  -1634095.66645  24596674.2444   24596681.3964
      2001.1724       1559.3554
   5512133.95048   4235569.19147  21810115.5254   21810121.5374
     -2985.7974      -2326.5954
  -4914970.44947  -3777828.23847  22066786.5024   22066793.0294
       843.6414        657.3824
  10236358.43845   7976380.16445  24569093.7684   24569102.3854
     -3568.8914      -2780.9544
  -2462632.57847  -1918929.33546  22493875.4084   22493882.2174
      -586.9064       -457.3304
   5404162.09648   4150614.81647  22557830.2054   22557836.9554
     -2930.2194      -2283.2874
  -2035783.60548  -1552470.04947  21043026.9324   21043033.4824
      -614.6414       -478.9414
 98  6 17 16 32 15.0020000  0  7G30G 4G 5G 7G 8G 9G24
  -2252176.34246  -1657474.42346  24590964.6584   24590971.9984
      1998.8914       1557.5774
   5556986.08448   4270518.90347  21818650.5884   21818656.6234
     -2994.8754      -2333.6694
  -4927581.28947  -3787654.85347  22064386.8544   22064393.5214
       837.4224        652.5374
  10289901.23945   8018101.80645  24579283.0254   24579291.5844
     -3570.5164      -2782.2204
  -2453740.90847  -1912000.76646  22495567.5104   22495574.6744
      -599.0474       -466.7904
   5448184.15848   4184917.69847  22566207.3074   22566213.9864
     -2939.7194      -2290.6904
  -2026485.86048  -1545225.04647  21044796.2214   21044802.9714
      -625.3284       -487.2694
 98  6 17 16 32 30.0020000  0  7G30G 4G 5G 7G 8G 9G24
  -2282141.08746  -1680823.53646  24585262.9164   24585270.1044
      1996.2194       1555.4954
   5601978.93848   4305578.25747  21827212.5574   21827218.4514
     -3004.3754      -2341.0714
  -4940093.53647  -3797404.64647  22062005.9944   22062012.8264
       830.7194        647.3134
  10343473.23845   8059846.17045  24589477.0254   24589486.8964
     -3572.6414      -2783.8764
  -2444663.20647  -1904927.22846  22497294.5494   22497301.3934
      -611.5474       -476.5304
   5492351.55348   4219333.82047  22574612.3074   22574619.0104
     -2949.4224      -2298.2514
  -2017024.39348  -1537852.47047  21046596.3854   21046603.1824
      -636.4064       -495.9014
 98  6 17 16 32 45.0020000  0  7G30G 4G 5G 7G 8G 9G24
  -2312064.92046  -1704140.78546  24579568.5574   24579576.0844
      1993.2034       1553.1454
   5647115.62948   4340749.70447  21835801.9084   21835807.7794
     -3014.2344      -2348.7544
  -4952504.88647  -3807075.81647  22059644.0334   22059650.6894
       823.7664        641.8954
  10397077.11845   8101615.39445  24599677.1194   24599686.1584
     -3574.9224      -2785.6534
  -2435394.50047  -1897704.86546  22499058.6194   22499065.3814
      -624.6874       -486.7694
   5536664.48748   4253863.35547  22583044.6434   22583051.3814
     -2959.3284      -2305.9704
  -2007394.47648  -1530348.63447  21048429.1354   21048435.9084
      -647.9844       -504.9234
 98  6 17 16 33  0.0020000  0  7G30G 4G 5G 7G 8G 9G24
  -2341951.84546  -1727429.28546  24573881.0804   24573888.9474
      1991.5164       1551.8304
   5692391.80048   4376029.82847  21844417.5804   21844423.4044
     -3022.8284      -2355.4504
  -4964820.77747  -3816672.60747  22057300.5104   22057307.3694
       818.1094        637.4884
  10450705.52245   8143403.72545  24609882.6434   24609891.9514
     -3575.7034      -2786.2624
  -2425938.13547  -1890336.27446  22500858.1434   22500864.7174
      -636.3594       -495.8644
   5581116.34448   4288501.13847  22591503.5964   22591510.1004
     -2967.8124      -2312.5814
  -1997600.91948  -1522717.28947  21050292.8304   21050299.5214
      -658.0164       -512.7394
 98  6 17 16 33 15.0020000  0  7G30G 4G 5G 7G 8G 9G24
  -2371805.70146  -1750691.99446  24568200.2994   24568207.8504
      1987.9224       1549.0304
   5737804.03448   4411415.97847  21853059.0644   21853064.8654
     -3033.1564      -2363.4984
  -4977045.10847  -3826198.05047  22054974.1894   22054980.8574
       810.8754        631.8514
  10504353.37745   8185207.20045  24620091.9394   24620100.8034
     -3578.3754      -2788.3444
  -2416298.59847  -1882824.94946  22502692.5494   22502699.1704
      -649.9224       -506.4334
   5625702.84748   4323243.84247  22599987.7364   22599994.3814
     -2978.0784      -2320.5804
  -1987650.34248  -1514963.58747  21052186.2524   21052192.6864
      -669.6874       -521.8344
 98  6 17 16 33 30.0020000  0  7G30G 4G 5G 7G 8G 9G24
  -2401608.95646  -1773915.28945  24562528.8384   24562536.0144
      1985.7814       1547.3624
   5783367.07048   4446919.63347  21861729.6974   21861735.7444
     -3042.0164      -2370.4024
  -4989168.91247  -3835645.16047  22052667.2914   22052673.9474
       805.5634        627.7114
  10558037.38645   8227038.86345  24630307.2364   24630315.1394
     -3579.5784      -2789.2824
  -2406460.73047  -1875159.07946  22504564.6194   22504571.2874
      -661.8754       -515.7474
   5670438.26648   4358102.58347  22608500.9634   22608507.6894
     -2986.6724      -2327.2774
  -1977531.53748  -1507078.79847  21054111.9004   21054118.4284
      -679.5784       -529.5414
 98  6 17 16 33 45.0020000  0  7G30G 4G 5G 7G 8G 9G24
  -2431379.46346  -1797113.03146  24556863.6114   24556870.6704
      1983.5634       1545.6334
   5829065.08048   4482528.46647  21870425.6894   21870431.7714
     -3051.1564      -2377.5244
  -5001214.45247  -3845031.28747  22050374.9324   22050381.4594
       800.4534        623.7304
  10611739.51845   8268884.67345  24640526.5574   24640534.6234
     -3580.8444      -2790.2684
  -2396444.25347  -1867354.03446  22506470.7294   22506477.2794
      -673.7664       -525.0124
   5715301.02448   4393060.54347  22617038.1274   22617044.9594
     -2995.1564      -2333.8884
  -1967263.31548  -1499077.57847  21056065.7524   21056072.2684
      -689.5784       -537.3344
 98  6 17 16 34  0.0020000  0  7G30G 4G 5G 7G 8G 9G24
  -2461111.16746  -1820280.57346  24551206.0254   24551213.7644
      1980.8284       1543.5024
   5874905.64948   4518248.38247  21879148.8614   21879154.9794
     -3060.7344      -2384.9884
  -5013178.55247  -3854353.95147  22048098.3614   22048104.9824
       794.9224        619.4204
  10665469.10845   8310751.83745  24650751.3694   24650760.5614
     -3582.9694      -2791.9244
  -2386242.84547  -1859404.88146  22508411.7134   22508418.3344
      -686.2664       -534.7524
   5760295.95448   4428121.49547  22625600.5024   22625607.1704
     -3003.9844      -2340.7674
  -1956840.75848  -1490956.09947  21058048.9634   21058055.4904
      -699.9224       -545.3944
 98  6 17 16 34 15.0020000  0  7G30G 4G 5G 7G 8G 9G24
  -2490804.85346  -1843418.49346  24545555.4164   24545562.4284
      1978.7664       1541.8954
   5920887.33148   4554078.25547  21887898.9164   21887904.8224
     -3069.7504      -2392.0134
  -5025061.93647  -3863613.72347  22045836.8774   22045843.5684
       789.8914        615.4994
  10719227.53645   8352641.46245  24660981.2524   24660990.7834
     -3584.3914      -2793.0324
  -2375857.41847  -1851312.34646  22510387.9794   22510394.5534
      -698.0164       -543.9084
   5805420.76148   4463283.66147  22634187.4244   22634194.0924
     -3012.2504      -2347.2084
  -1946265.11248  -1482715.33447  21060061.6584   21060068.4204
      -709.7504       -553.0524
 98  6 17 16 34 30.0020000  0  7G30G 4G 5G 7G 8G 9G24
  -2520465.65145  -1866530.74345  24539910.7834   24539918.1114
      1976.9384       1540.4714
   5967006.12448   4590014.96947  21896674.9244   21896680.7484
     -3078.4064      -2398.7584
  -5036866.59147  -3872812.14647  22043590.5254   22043597.1234
       785.0004        611.6884
  10773008.68546   8394548.82545  24671215.8384   24671223.8694
     -3585.5004      -2793.8964
  -2365294.60947  -1843081.58846  22512398.1354   22512404.8734
      -709.3754       -552.7604
   5850671.98648   4498544.33847  22642798.4794   22642805.2524
     -3020.2814      -2353.4664
  -1935539.47348  -1474357.69047  21062102.6894   21062109.4044
      -719.3594       -560.5404
 98  6 17 16 34 45.0020000  0  8G30G 4G 5G 7G 8G 9G10G24
  -2550101.49745  -1889623.60446  24534271.3144   24534278.7014
      1974.6564       1538.6934
   6013247.94048   4626047.54747  21905474.4084   21905480.3614
     -3087.0004      -2405.4554
  -5048601.62547  -3881956.32147  22041357.5574   22041364.1544
       779.8594        607.6834
  10826804.13146   8436467.33245  24681452.1504   24681461.2014
     -3587.0944      -2795.1384
  -2354565.43347  -1834721.19546  22514439.8934   22514446.4904
      -721.0164       -561.8304
   5896039.52348   4533895.64947  22651431.4634   22651438.1664
     -3028.5474      -2359.9074
     -3919.21455                  25291985.2524
      1959.9844
  -1924672.75448  -1465890.10847  21064170.5964   21064177.2294
      -729.3754       -568.3444
 98  6 17 16 35  0.0020000  0  8G30G 4G 5G 7G 8G 9G10G24
  -2579691.33645  -1912680.56245  24528640.2134   24528648.4324
      1971.2194       1536.0154
   6059629.55648   4662189.06047  21914300.4864   21914306.5574
     -3096.5784      -2412.9184
  -5060247.28547  -3891030.84747  22039141.2994   22039147.8614
       773.4384        602.6794
  10880635.38845   8478413.72045  24691695.5964   24691704.3894
     -3589.7974      -2797.2444
  -2343650.68247  -1826216.20046  22516516.8464   22516523.2444
      -733.6414       -571.6684
   5941543.85448   4569353.54747  22660090.8464   22660097.4554
     -3038.1254      -2367.3704
    -33307.12645                  25286393.5574
      1959.0314
  -1913645.12348  -1457297.14247  21066269.1504   21066275.5964
      -740.3124       -576.8674
 98  6 17 16 35 15.0020000  0  8G30G 4G 5G 7G 8G 9G10G24
  -2609238.19345  -1935704.06845  24523018.0884   24523026.3304
      1968.7344       1534.0794
   6106146.00048   4698435.62747  21923152.5104   21923158.6504
     -3105.2664      -2419.6874
  -5071804.66747  -3900036.59347  22036941.8934   22036948.3264
       767.9384        598.3934
  10934497.39346   8520384.06945  24701945.7604   24701954.7994
     -3591.4534      -2798.5354
  -2332556.78047  -1817571.59646  22518628.1504   22518634.7954
      -745.1564       -580.6414
   5987183.81948   4604917.13947  22668775.8144   22668782.4004
     -3046.8594      -2374.1764
    -62689.67145                  25280800.5184
      1958.9694
  -1902464.32548  -1448584.82847  21068396.7294   21068403.1974
      -750.1254       -584.5134
 98  6 17 16 35 30.0020000  0  8G30G 4G 5G 7G 8G 9G10G24
  -2638750.40345  -1958700.58046  24517401.5184   24517409.0214
      1966.2344       1532.1314
   6152791.66548   4734782.88647  21932028.7604   21932034.8654
     -3114.2344      -2426.6764
  -5083282.98147  -3908980.72747  22034757.8854   22034764.5294
       762.4224        594.0954
  10988384.10745   8562373.69545  24712200.1274   24712209.8344
     -3593.4374      -2800.0814
  -2321291.79747  -1808793.69246  22520771.5724   22520778.2644
      -756.8594       -589.7614
   6032952.63048   4640581.12047  22677485.2294   22677491.7324
     -3055.6724      -2381.0434
    -92072.23645                  25275210.1664
      1958.6414
  -1891137.82748  -1439758.98347  21070552.0724   21070558.5884
      -760.0784       -592.2694
 98  6 17 16 35 45.0030000  0  8G30G 4G 5G 7G 8G 9G10G24
  -2668235.09346  -1981675.62246  24511791.4604   24511799.2574
      1965.0314       1531.1934
   6199568.99048   4771232.73947  21940930.2414   21940936.2654
     -3122.0784      -2432.7884
  -5094683.01147  -3917863.85847  22032588.4134   22032594.9174
       757.6094        590.3454
  11042297.02746   8604383.71645  24722459.0224   24722468.5654
     -3594.2034      -2800.6784
  -2309857.98847  -1799884.21946  22522947.5074   22522954.2804
      -767.3124       -597.9064
   6078850.27248   4676345.50347  22686219.4294   22686225.8864
     -3063.3914      -2387.0584
   -121457.12745     -6106.51855  25269618.2024   25269629.1044
      1959.2664       1526.7004
  -1879667.93448  -1430821.39947  21072734.9214   21072741.6364
      -768.9064       -599.1484
 98  6 17 16 36  0.0030000  0  8G30G 4G 5G 7G 8G 9G10G24
  -2697694.06546  -2004630.61946  24506185.6634   24506193.0974
      1963.3444       1529.8784
   6246464.63948   4807774.79147  21949854.0224   21949860.0224
     -3130.1254      -2439.0584
  -5106002.40347  -3926684.15347  22030434.3824   22030440.9334
       752.0944        586.0474
  11096221.42946   8646402.71045  24732721.1944   24732730.6794
     -3595.1874      -2801.4454
  -2298263.03547                  22525153.9524
      -778.1414
   6124865.58647   4712201.58347  22694976.0304   22694982.8044
     -3071.5004      -2393.3774
   -150844.85745    -29006.01045  25264025.6474   25264037.2764
      1959.6564       1527.0054
  -1868062.26048  -1421778.01847  21074943.2414   21074949.7804
      -777.9694       -606.2094
 98  6 17 16 36 15.0030000  0  8G30G 4G 5G 7G 8G 9G10G24
  -2727127.87346  -2027566.02146  24500584.2574   24500592.0424
      1961.0314       1528.0764
   6293478.52348   4844408.97747  21958800.5464   21958806.6164
     -3138.5314      -2445.6094
  -5117237.35647  -3935438.65247  22028296.3904   22028302.9174
       745.7504        581.1044
  11150158.68445   8688431.70745  24742984.7184   24742993.8624
     -3596.5004      -2802.4684
  -2286507.27947                  22527390.9604
      -789.4224
   6171001.34647   4748151.51447  22703755.3194   22703762.0694
     -3080.1414      -2400.1104
   -180240.33445    -51911.49045  25258431.9444   25258441.8624
      1959.6414       1526.9934
  -1856321.81548  -1412629.60347  21077177.3664   21077183.9294
      -787.6094       -613.7224
 98  6 17 16 36 30.0030000  0  8G30G 4G 5G 7G 8G 9G10G24
  -2756516.17946  -2050466.00346  24494992.1244   24494999.2534
      1957.4064       1525.2524
   6340629.08948   4881149.66447  21967772.9054   21967779.1634
     -3148.2194      -2453.1574
  -5128366.43047  -3944110.65347  22026178.6874   22026185.0264
       738.0634        575.1144
  11204124.35245   8730482.85445  24753253.6794   24753262.2724
     -3598.9844      -2804.4034
  -2274572.33747                  22529661.8354
      -801.9064
   6217277.78548   4784211.06247  22712561.2184   22712568.1474
     -3090.0474      -2407.8294
   -209623.76245    -74807.47645  25252840.5074   25252855.7574
      1958.1414       1525.8244
  -1844426.22848  -1403360.30947  21079441.0224   21079447.5974
      -798.4844       -622.1964
 98  6 17 16 36 45.0030000  0  8G30G 4G 5G 7G 8G 9G10G24
  -2785858.35146  -2073329.96546  24489407.8354   24489415.9014
      1954.8444       1523.2554
   6387916.47648   4917996.96547  21976771.2884   21976777.4524
     -3156.7974      -2459.8424
  -5139388.76548  -3952699.48247  22024081.1874   22024087.4214
       731.5314        570.0244
  11258121.25945   8772558.33145  24763529.2414   24763537.2724
     -3600.7194      -2805.7554
  -2262457.24447      8188.39356  22531967.5464   22531974.3084
      -813.4844       -633.8844
   6263693.81148   4820379.37747  22721393.9524   22721400.7844
     -3098.7814      -2414.6354
   -238992.35445    -97692.14945  25247251.6164   25247268.1444
      1957.5944       1525.3984
  -1832375.51848  -1393970.14147  21081734.2494   21081740.7884
      -808.3444       -629.8784
 98  6 17 16 37  0.0030000  0  8G30G 4G 5G 7G 8G 9G10G24
  -2815161.87246  -2096163.85746  24483831.9834   24483839.8394
      1951.8754       1520.9424
   6435333.81048   4954945.52747  21985794.6714   21985800.6244
     -3165.9694      -2466.9894
  -5150311.43848  -3961210.64547  22022002.7104   22022009.1674
       724.3914        564.4604
  11312145.28045   8814654.94045  24773809.6944   24773818.9684
     -3602.8594      -2807.4234
  -2250167.64747     17764.70646  22534306.2184   22534313.1244
      -825.5944       -643.3204
   6310241.42647   4856650.22547  22730251.5774   22730258.4484
     -3108.0164      -2421.8304
   -268350.88744   -120568.86445  25241664.8274   25241675.9294
      1956.4064       1524.4724
  -1820176.55348  -1384464.44447  21084055.5544   21084062.1754
      -818.6414       -637.9024
 98  6 17 16 37 15.0030000  0  8G30G 4G 5G 7G 8G 9G10G24
  -2844429.84846  -2118970.03846  24478262.6474   24478270.4094
      1950.5314       1519.8944
   6482881.07848   4991995.33347  21994842.7104   21994848.7454
     -3173.6874      -2473.0034
  -5161135.12848  -3969644.68447  22019943.0074   22019949.4294
       718.7814        560.0894
  11366190.48045   8856768.03545  24784094.5224   24784102.3434
     -3603.1564      -2807.6544
  -2237705.09547     27475.77646  22536677.6874   22536684.3904
      -836.0784       -651.4894
   6356919.32147   4893022.59047  22739134.2724   22739140.9874
     -3115.6874      -2427.8084
   -297698.74345   -143437.23845  25236080.3274   25236091.3234
      1956.6254       1524.6434
  -1807832.34248  -1374845.57547  21086404.4914   21086411.1244
      -827.3124       -644.6594
 98  6 17 16 37 30.0030000  0  8G30G 4G 5G 7G 8G 9G10G24
  -2873672.09346  -2141756.16746  24472697.5774   24472705.4214
      1948.3594       1518.2024
   6530551.26748   5029140.92647  22003914.0384   22003920.1084
     -3182.3124      -2479.7244
  -5171870.07348  -3978009.56947  22017900.3354   22017906.6284
       712.5314        555.2194
  11420247.33045   8898890.26145  24794380.8354   24794388.4334
     -3604.4694      -2808.6774
  -2225078.98347     37314.31046  22539080.2574   22539087.0304
      -847.4374       -660.3414
   6403716.35247   4929487.78947  22748039.5854   22748046.4294
     -3123.9064      -2434.2134
   -327042.31345   -166302.24845  25230495.5624   25230507.3904
      1955.7974       1523.9984
  -1795350.32448  -1365119.31847  21088779.7494   21088786.1714
      -837.0314       -652.2324
 98  6 17 16 37 45.0030000  0  8G30G 4G 5G 7G 8G 9G10G24
  -2902874.35546  -2164511.16146  24467140.7184   24467147.6834
      1945.7664       1516.1814
   6578355.96548   5066391.33047  22013010.8744   22013016.9094
     -3191.1254      -2486.5914
  -5182503.10148  -3986295.03547  22015876.9134   22015883.4874
       705.6414        549.8504
  11474330.46445   8941032.93245  24804672.3744   24804681.2024
     -3606.0784      -2809.9314
  -2212274.21147     47292.04846  22541517.1164   22541523.8194
      -859.3444       -669.6194
   6450641.97147   4966053.18747  22756968.9134   22756975.8314
     -3132.3444      -2440.7874
   -356365.18545   -189151.20745  25224915.4604   25224927.4524
      1954.4224       1522.9264
  -1782714.65648  -1355273.33847  21091184.2884   21091190.8624
      -847.2194       -660.1704
 98  6 17 16 38  0.0030000  0  8G30G 4G 5G 7G 8G 9G10G24
  -2932044.99246  -2187241.48846  24461589.1554   24461596.8124
      1943.4384       1514.3674
   6626283.01848   5103737.07247  22022131.0934   22022137.1404
     -3199.3124      -2492.9714
  -5193039.69548  -3994505.36647  22013871.6554   22013878.2064
       699.0474        544.7124
  11528428.18145   8983186.98345  24814966.7884   24814974.7614
     -3607.1724      -2810.7834
  -2199299.67947     57402.06946  22543986.1474   22543992.8624
      -870.8284       -678.5674
   6497686.04547   5002710.88947  22765921.3584   22765928.2294
     -3140.3444      -2447.0214
   -385676.93445   -211991.36845  25219338.0464   25219350.4134
      1953.6414       1522.3174
  -1769933.79448  -1345314.22147  21093616.4764   21093623.0854
      -857.1254       -667.8904
 98  6 17 16 38 15.0030000  0  8G30G 4G 5G 7G 8G 9G10G24
  -2961172.45946  -2209938.18846  24456046.8194   24456053.6284
      1940.5944       1512.1514
   6674339.49348   5141183.66347  22031276.0854   22031282.3314
     -3207.8754      -2499.6434
  -5203472.23348  -4002634.60547  22011886.5384   22011892.9604
       692.3134        539.4644
  11582550.20445   9025359.94945  24825266.3194   24825274.5384
     -3608.8284      -2812.0744
  -2186144.42547     67652.91046  22546489.3584   22546496.1674
      -882.8444       -687.9304
   6544857.19847   5039467.61147  22774897.8274   22774904.7694
     -3148.8594      -2453.6574
   -414971.45445   -234818.20045  25213763.5544   25213774.6674
      1952.5784       1521.4894
  -1756995.50448  -1335232.43247  21096078.4054   21096084.8744
      -867.6724       -676.1084
 98  6 17 16 38 30.0030000  0  8G30G 4G 5G 7G 8G 9G10G24
  -2990263.62846  -2232606.59046  24450510.7964   24450517.6554
      1938.0634       1510.1794
   6722519.79548   5178726.74347  22040444.5224   22040450.7574
     -3216.3754      -2506.2664
  -5213809.54548  -4010689.64247  22009919.7264   22009926.1944
       685.8444        534.4244
  11636694.65245   9067550.38145  24835570.0304   24835578.7294
     -3610.6564      -2813.4984
  -2172813.83147     78040.38746  22549026.2024   22549032.9054
      -894.7664       -697.2204
   6592152.22447   5076320.85547  22783897.7184   22783904.7064
     -3157.3284      -2460.2564
   -444253.19145   -257635.08745  25208191.6794   25208201.8784
      1951.4694       1520.6254
  -1743901.43748  -1325029.25547  21098570.3274   21098576.7264
      -878.3914       -684.4604
 98  6 17 16 38 45.0030000  0  8G30G 4G 5G 7G 8G 9G10G24
  -3019323.06646  -2255250.27946  24444981.0934   24444988.5384
      1936.0314       1508.5964
   6770822.10948   5216364.89747  22049636.0854   22049642.1324
     -3224.4374      -2512.5494
  -5224055.06048  -4018673.15947  22007969.9134   22007976.2534
       679.6884        529.6274
  11690863.08645   9109759.50445  24845877.5774   24845885.6674
     -3612.3124      -2814.7894
  -2159310.06847     88562.79046  22551595.7804   22551602.5424
      -906.2344       -706.1574
   6639568.08447   5113268.25847  22792920.6944   22792927.5544
     -3165.3444      -2466.5024
   -473522.73345   -280442.43845  25202621.8584   25202633.7804
      1950.6254       1519.9684
  -1730652.41348  -1314705.33747  21101091.3584   21101097.6634
      -888.6874       -692.4844
 98  6 17 16 39  0.0030000  0  8G30G 4G 5G 7G 8G 9G10G24
  -3048342.11346  -2277862.47946  24439458.6014   24439465.9764
      1933.0314       1506.2584
   6819255.48948   5254105.18047  22058852.6714   22058858.7764
     -3233.4694      -2519.5864
  -5234198.76848  -4026577.33947  22006039.6014   22006045.8704
       672.6414        524.1364
  11745066.29945   9151995.75745  24856192.0544   24856200.7184
     -3614.8914      -2816.7984
  -2145624.58747     99226.79746  22554200.2884   22554207.0264
      -918.6094       -715.8004
   6687115.59647   5150318.24247  22801968.7724   22801975.7144
     -3174.4534      -2473.6004
   -502769.61045   -303232.14945  25197056.2334   25197067.7804
      1948.8594       1518.5924
  -1717237.54148  -1304252.18347  21103644.1634   21103650.5974
      -900.0624       -701.3474
 98  6 17 16 39 15.0030000  0  8G30G 4G 5G 7G 8G 9G10G24
  -3077323.48146  -2300445.35146  24433943.7334   24433951.4014
      1931.4534       1505.0284
   6867815.65648   5291944.26347  22068093.4524   22068099.4994
     -3240.8914      -2525.3694
  -5244244.12448  -4034404.88347  22004127.8974   22004133.9444
       667.0634        519.7894
  11799298.17445   9194254.32145  24866511.6324   24866520.9874
     -3615.7034      -2817.4314
  -2131762.54747    110028.38746  22556838.0074   22556844.6044
      -929.3914       -724.2004
   6734791.98247   5187468.66147  22811041.0624   22811047.9054
     -3182.0944      -2479.5544
   -532000.07946   -326009.04745  25191494.0774   25191504.9334
      1948.8444       1518.5804
  -1703661.28448  -1293673.27647  21106227.6874   21106234.2264
      -909.8284       -708.9574
 98  6 17 16 39 30.0030000  0  8G30G 4G 5G 7G 8G 9G10G24
  -3106272.21546  -2323002.75146  24428434.9054   24428442.3394
      1928.5944       1502.8004
   6916495.64248   5329876.70847  22077356.8274   22077362.9444
     -3249.5004      -2532.0784
  -5254198.40748  -4042161.46247  22002233.5224   22002239.7694
       660.4064        514.6024
  11853550.91345   9236529.17645  24876835.6944   24876845.3544
     -3617.7664      -2819.0384
  -2117730.49947    120962.45246  22559508.1014   22559514.8624
      -941.3444       -733.5154
   6782590.74147   5224714.43547  22820136.8664   22820143.4764
     -3190.8124      -2486.3474
   -561222.47645   -348779.71645  25185932.8744   25185943.4954
      1947.7194       1517.7034
  -1689930.07648  -1282973.63047  21108840.6244   21108847.1404
      -920.7664       -717.4804
 98  6 17 16 39 45.0030000  0  8G30G 4G 5G 7G 8G 9G10G24
  -3135176.41046  -2345525.46646  24422934.7804   24422942.6594
      1926.3444       1501.0474
   6965304.20448   5367909.34147  22086644.8904   22086651.0194
     -3257.2814      -2538.1414
  -5264051.63148  -4049839.29347  22000358.7334   22000365.0264
       654.3284        509.8664
  11907836.74745   9278829.74345  24887166.4684   24887176.1284
     -3619.3124      -2820.2444
  -2103517.70847    132037.34546  22562212.7724   22562219.4874
      -952.7194       -742.3784
   6830520.23947   5262062.08247  22829257.5774   22829264.1984
     -3198.7974      -2492.5694
   -590426.87545   -371536.33045  25180375.4294   25180384.7964
      1947.2504       1517.3384
  -1676034.31448  -1272145.76347  21111484.9054   21111491.3864
      -930.9374       -725.4064
 98  6 17 16 40  0.0030000  0  8G30G 4G 5G 7G 8G 9G10G24
  -3164056.02646  -2368029.02846  24417439.4134   24417446.9404
      1923.7504       1499.0264
   7014220.99348   5406026.30747  22095953.3664   22095959.4484
     -3265.4694      -2544.5214
  -5273820.86148  -4057451.67147  21998499.7494   21998505.9374
       647.7664        504.7524
  11962137.49845   9321142.00145  24897499.4054   24897507.8234
     -3621.2814      -2821.7784
  -2089141.73747    143239.39346  22564948.4834   22564955.0934
      -964.5474       -751.5954
   6878563.68247   5299498.51647  22838400.0544   22838406.8044
     -3207.5164      -2499.3634
   -619633.61245   -394294.76345  25174817.0384   25174825.7144
      1946.5004       1516.7534
  -1661995.00348  -1261206.03147  21114156.4834   21114162.9174
      -941.4694       -733.6124
 98  6 17 16 40 15.0030000  0  8G30G 4G 5G 7G 8G 9G10G24
  -3192887.42446  -2390495.01346  24411952.6474   24411960.5154
      1920.7974       1496.7254
   7063269.15048   5444245.64047  22105286.8194   22105293.0424
     -3273.9064      -2551.0964
  -5283484.39148  -4064981.69447  21996660.7494   21996667.0304
       641.1094        499.5664
  12016477.17745   9363484.59545  24907840.1554   24907848.7964
     -3623.6414      -2823.6164
  -2074581.17447    154585.28546  22567719.2184   22567725.9794
      -976.5164       -760.9214
   6926747.48447   5337044.31547  22847568.8434   22847575.7844
     -3216.6254      -2506.4614
   -648820.74545   -417037.94045  25169264.0224   25169273.4134
      1945.4534       1515.9384
  -1647790.09448  -1250137.26747  21116859.7884   21116866.2454
      -952.1724       -741.9524
 98  6 17 16 40 30.0030000  0  8G30G 4G 5G 7G 8G 9G10G24
  -3221674.63446  -2412926.56746  24406474.8194   24406482.1834
      1917.8444       1494.4244
   7112443.12248   5482563.00847  22114644.5544   22114650.7414
     -3282.3124      -2557.6464
  -5293049.23548  -4072434.81247  21994840.8194   21994847.0424
       634.5164        494.4284
  12070852.09445   9405854.60545  24918186.7184   24918195.6404
     -3626.0474      -2825.4914
  -2059841.89947    166070.42846  22570524.1554   22570530.9524
      -988.4374       -770.2114
   6975069.00547   5374697.43247  22856764.3124   22856771.1834
     -3225.9534      -2513.7304
   -677989.88445   -439767.09845  25163712.5384   25163723.6874
      1944.0004       1514.8054
  -1633425.81148  -1238944.31047  21119592.8904   21119599.5814
      -962.7664       -750.2074
 98  6 17 16 40 45.0030000  0  8G30G 4G 5G 7G 8G 9G10G24
  -3250430.47546  -2435333.68346  24401002.2654   24401010.1204
      1915.8284       1492.8534
   7161730.49748   5520968.74647  22124023.7964   22124030.0544
     -3289.7194      -2563.4174
  -5302526.48248  -4079819.67447  21993037.2104   21993043.3974
       628.7344        489.9234
  12125250.26845   9448242.74545  24928538.9914   24928547.1874
     -3627.3754      -2826.5264
  -2044936.09947    177685.33646  22573360.5224   22573367.2724
      -999.4224       -778.7704
   7023516.74847   5412448.90547  22865983.9054   22865990.8474
     -3234.0784      -2520.0614
   -707148.94745   -462488.38445  25158163.7184   25158174.4564
      1943.5004       1514.4164
  -1618916.48448  -1227638.33947  21122354.0074   21122360.6984
      -972.1724       -757.5374
 98  6 17 16 41  0.0030000  0  8G30G 4G 5G 7G 8G 9G10G24
  -3279148.96446  -2457711.68446  24395537.4914   24395544.6084
      1912.9694       1490.6254
   7211133.66848   5559464.71447  22133424.9134   22133431.0424
     -3297.6874      -2569.6274
  -5311910.66548  -4087132.01747  21991251.3744   21991257.5734
       622.2344        484.8584
  12179672.55045   9490649.67745  24938895.5224   24938904.8664
     -3629.2034      -2827.9504
  -2029859.08547    189433.65546  22576229.9294   22576236.7264
     -1011.1414       -787.9024
   7072091.67647   5450299.48447  22875227.2804   22875234.1014
     -3242.8594      -2526.9034
   -736294.37944   -485198.99145  25152616.7024   25152628.0624
      1942.2504       1513.4424
  -1604262.20048  -1216219.40947  21125142.5694   21125149.2144
      -982.0314       -765.2194
 98  6 17 16 41 15.0030000  0  8G30G 4G 5G 7G 8G 9G10G24
  -3307820.75646  -2480053.31446  24390081.6084   24390088.2654
      1909.7974       1488.1534
   7260660.39248   5598056.95147  22142849.3124   22142855.4054
     -3306.0474      -2576.1404
  -5321195.41148  -4094366.87947  21989484.8584   21989491.1404
       615.5474        479.6474
  12234125.02445   9533080.16345  24949257.0624   24949265.9954
     -3631.2504      -2829.5454
  -2014603.04247    201321.47346  22579132.9214   22579139.3784
     -1023.2034       -797.3014
   7120798.92547   5488253.16947  22884496.1324   22884502.9644
     -3251.5624      -2533.6854
   -765418.80344   -507893.30345  25147074.3514   25147085.9214
      1940.9064       1512.3944
  -1589458.56448  -1204684.10447  21127959.6324   21127966.1364
      -991.9224       -772.9264
 98  6 17 16 41 30.0030000  0  8G30G 4G 5G 7G 8G 9G10G24
  -3336446.86246  -2502359.33346  24384634.0224   24384640.8664
      1907.0784       1486.0354
   7310311.33148   5636745.98647  22152297.7574   22152303.8864
     -3313.9844      -2582.3254
  -5330380.39148  -4101524.00047  21987736.8274   21987743.1204
       609.2194        474.7164
  12288605.73445   9575532.60845  24959623.9764   24959632.2534
     -3632.7664      -2830.7264
  -1999167.17147    213349.42346  22582070.2104   22582076.5734
     -1034.8754       -806.3964
   7169633.71047   5526306.22547  22893788.9834   22893795.7454
     -3259.6724      -2540.0044
   -794525.00444   -530573.35045  25141535.9684   25141547.2694
      1939.9384       1511.6404
  -1574507.97348  -1193034.28547  21130804.5624   21130810.9134
     -1001.5004       -780.3904
 98  6 17 16 41 45.0030000  0  8G30G 4G 5G 7G 8G 9G10G24
  -3365033.84846  -2524634.87246  24379194.2494   24379200.9524
      1904.4844       1484.0144
   7360079.20148   5675526.13347  22161768.2104   22161774.3154
     -3321.7504      -2588.3774
  -5339473.07848  -4108609.20047  21986006.4834   21986012.7064
       603.0784        469.9314
  12343108.45445   9618002.23845  24969996.6244   24970004.9254
     -3634.2974      -2831.9204
  -1983558.11447    225512.32346  22585040.4524   22585046.9684
     -1046.3914       -815.3694
   7218588.46147   5564452.75847  22903104.6634   22903111.3314
     -3267.6724      -2546.2384
   -823617.28844   -553242.56845  25135999.4604   25136012.0154
      1938.9694       1510.8854
  -1559414.52148  -1181273.14747  21133676.8974   21133683.2024
     -1010.9844       -787.7804
 98  6 17 16 42  0.0030000  0  8G30G 4G 5G 7G 8G 9G10G24
  -3393581.54246  -2546879.80846  24373762.1554   24373769.2024
      1902.0004       1482.0784
   7409964.64148   5714397.89347  22171260.9444   22171267.0034
     -3329.5314      -2594.4404
  -5348472.36848  -4115621.63147  21984294.0154   21984300.3194
       596.9534        465.1584
  12397636.06645   9660491.25345  24980372.7574   24980382.2884
     -3635.9224      -2833.1864
  -1967774.93547    237810.89446  22588043.7804   22588050.3544
     -1057.8914       -824.3304
   7267665.01547   5602694.21047  22912443.7724   22912450.6444
     -3275.7504      -2552.5324
   -852693.72645   -575899.46045  25130466.6404   25130477.3664
      1938.0784       1510.1914
  -1544177.51948  -1169400.15447  21136576.3824   21136582.8864
     -1020.5314       -795.2194
 98  6 17 16 42 15.0030000  0  8G30G 4G 5G 7G 8G 9G10G24
  -3422087.60046  -2569092.28246  24368337.2884   24368344.1474
      1898.9384       1479.6924
   7459970.82148   5753363.73547  22180777.0154   22180783.1444
     -3337.8284      -2600.9054
  -5357376.82348  -4122560.15647  21982599.5544   21982605.7654
       590.4694        460.1064
  12452190.91145   9703001.51245  24990753.3744   24990761.3124
     -3637.9064      -2834.7324
  -1951816.37047    250246.14246  22591080.5304   22591087.0694
     -1069.7344       -833.5594
   7316866.09947   5641032.69747  22921806.3664   22921813.2614
     -3284.1724      -2559.0954
   -881753.87945   -598543.65145  25124937.1084   25124947.7884
      1936.7504       1509.1564
  -1528791.77948  -1157411.26147  21139504.0934   21139510.5264
     -1030.7344       -803.1704
 98  6 17 16 42 30.0030000  0  8G30G 4G 5G 7G 8G 9G10G24
  -3450559.69346  -2591278.29646  24362919.1164   24362925.5154
      1896.5944       1477.8654
   7510090.09648   5792417.70447  22190314.1244   22190320.3124
     -3345.5474      -2606.9204
  -5366196.21548  -4129432.40547  21980921.3584   21980927.6044
       584.6564        455.5764
  12506763.51245   9745525.58645  25001138.5074   25001147.2534
     -3639.2034      -2835.7434
  -1935692.51547    262810.17846  22594149.0224   22594155.6084
     -1080.9224       -842.2774
   7366178.60047   5679457.99947  22931190.3664   22931197.3314
     -3291.5624      -2564.8544
   -910806.35945   -621181.89045  25119408.1554   25119418.0034
      1936.1564       1508.6934
  -1513266.22548  -1145313.42347  21142458.5774   21142465.2804
     -1040.1564       -810.5114
 98  6 17 16 42 45.0030000  0  8G30G 4G 5G 7G 8G 9G10G24
  -3478993.75646  -2613434.68746  24357508.1244   24357515.0424
      1894.1254       1475.9424
   7560330.33948   5831565.93647  22199874.7724   22199880.7964
     -3353.7344      -2613.3004
  -5374924.10148  -4136233.34447  21979260.2574   21979266.4334
       578.5474        450.8164
  12561358.64445   9788067.19745  25011527.0854   25011536.3474
     -3640.6414      -2836.8634
  -1919395.83847    275508.88146  22597250.1474   22597256.7224
     -1092.5004       -851.2994
   7415603.32047   5717970.74547  22940595.5304   22940602.5654
     -3298.8444      -2570.5284
   -939847.32445   -643811.11146  25113882.0624   25113893.4444
      1935.5004       1508.1824
  -1497595.06348  -1133102.11747  21145440.6554   21145447.2414
     -1049.8914       -818.0974
 98  6 17 16 43  0.0030000  0  8G30G 4G 5G 7G 8G 9G10G24
  -3507380.11646  -2635553.89346  24352106.2884   24352113.5814
      1890.4384       1473.0684
   7610705.58448   5870819.36347  22209460.6944   22209466.6124
     -3363.2504      -2620.7144
  -5383549.05348  -4142954.07947  21977618.9294   21977625.1284
       571.2194        445.1064
  12615984.74445   9830632.98345  25021923.0154   25021931.7024
     -3643.0784      -2838.7624
  -1902914.76347    288351.26846  22600386.3514   22600392.9954
     -1105.2194       -861.2094
   7465144.86047   5756574.51747  22950022.9444   22950030.0854
     -3306.9534      -2576.8474
   -968870.03345   -666426.14245  25108359.3124   25108369.8274
      1933.9384       1506.9644
  -1481767.13148  -1120768.66147  21148452.7184   21148459.5154
     -1060.7974       -826.5954
 98  6 17 16 43 15.0030000  0  8G30G 4G 5G 7G 8G 9G10G24
  -3535725.89046  -2657641.48446  24346712.7414   24346719.8944
      1888.7194       1471.7294
   7661209.91448   5910173.37647  22219071.4294   22219077.5224
     -3371.0004      -2626.7534
  -5392079.87748  -4149601.46847  21975995.7494   21976001.7964
       565.9694        441.0154
  12670633.33445   9873216.29445  25032322.3044   25032330.3124
     -3643.7034      -2839.2494
  -1886258.45247    301330.21146  22603555.8124   22603562.6324
     -1115.9224       -869.5504
   7514793.61147   5795261.83647  22959470.8824   22959477.9644
     -3313.1564      -2581.6804
   -997883.11445   -689033.68645  25102838.4214   25102849.5344
      1934.2664       1507.2204
  -1465789.31048  -1108318.40447  21151493.2264   21151499.8474
     -1069.8914       -833.6814
 98  6 17 16 43 30.0030000  0  8G30G 4G 5G 7G 8G 9G10G24
  -3564032.17846  -2679698.29746  24341325.9134   24341332.9954
      1885.5944       1469.2944
   7711845.23548   5949629.46047  22228706.8194   22228712.9604
     -3380.1414      -2633.8764
  -5400518.88748  -4156177.31447  21974389.9374   21974395.9834
       559.3914        435.8894
  12725304.74545   9915817.34245  25042724.9834   25042733.4014
     -3645.6254      -2840.7474
  -1869427.34547    314445.34546  22606758.7884   22606765.3974
     -1128.0624       -879.0104
   7564549.70447   5834032.79147  22968939.1164   22968945.8194
     -3320.8914      -2587.7074
  -1026888.54245   -711635.21145  25097318.4444   25097329.3004
      1933.2974       1506.4654
  -1449660.09048  -1095750.17747  21154562.2964   21154568.6834
     -1080.5944       -842.0214
 98  6 17 16 43 45.0030000  0  8G30G 4G 5G 7G 8G 9G10G24
  -3592295.11146  -2701721.34346  24335947.3434   24335954.6944
      1882.4534       1466.8474
   7762610.56048   5989186.84747  22238367.1944   22238373.3704
     -3388.8914      -2640.6944
  -5408863.02448  -4162679.22847  21972801.7724   21972807.9834
       552.8594        430.8004
  12779999.95145   9958436.94945  25053133.6404   25053142.8434
     -3647.3914      -2842.1234
  -1852419.52647    327698.18946  22609995.2184   22610001.7694
     -1139.9534       -888.2754
   7614419.09247   5872892.03447  22978428.9994   22978436.0694
     -3328.7034      -2593.7954
  -1055882.33145   -734227.68145  25091801.0154   25091810.9684
      1932.2504       1505.6494
  -1433373.14248  -1083059.03747  21157661.6874   21157668.1084
     -1091.2814       -850.3494
 98  6 17 16 44  0.0030000  0  8G30G 4G 5G 7G 8G 9G10G24
  -3620503.67646  -2723702.00346  24330579.5304   24330586.4954
      1878.7974       1463.9984
   7813515.34448   6028852.90347  22248054.1794   22248060.2964
     -3398.3444      -2648.0604
  -5417100.93448  -4169098.36647  21971234.4684   21971240.7264
       545.5784        425.1264
  12834729.86245  10001083.58245  25063548.6714   25063556.9604
     -3649.7974      -2843.9984
  -1835226.31847    341095.48546  22613266.7264   22613273.4764
     -1152.4374       -898.0034
   7664414.19247   5911849.23147  22987942.5304   22987949.4484
     -3337.2034      -2600.4184
  -1084853.26545   -756802.35745  25086288.2024   25086298.5774
      1930.6094       1504.3714
  -1416920.58548  -1070238.85747  21160792.4914   21160798.8904
     -1102.3284       -858.9574
 98  6 17 16 44 15.0030000  0  8G30G 4G 5G 7G 8G 9G10G24
  -3648669.64546  -2745649.47046  24325219.7654   24325226.9054
      1876.5164       1462.2204
   7864550.83048   6068620.80747  22257765.9764   22257771.9994
     -3406.5004      -2654.4164
  -5425240.93148  -4175441.21447  21969685.3044   21969691.6444
       539.5474        420.4264
  12889483.18545  10043748.49645  25073968.1634   25073977.8474
     -3650.7504      -2844.7404
  -1817857.30047    354629.78546  22616572.1014   22616578.6984
     -1163.5944       -906.6964
   7714524.69647   5950896.35447  22997478.3664   22997485.2614
     -3344.3754      -2606.0064
  -1113810.71945   -779366.52045  25080777.5624   25080787.5034
      1930.1884       1504.0424
  -1400312.36248  -1057297.37747  21163952.8744   21163959.3544
     -1112.2194       -866.6644
 98  6 17 16 44 30.0030000  0  8G30G 4G 5G 7G 8G 9G10G24
  -3676792.21846  -2767563.13946  24319868.2574   24319875.3864
      1873.3284       1459.7364
   7915716.47948   6108490.13747  22267502.5224   22267508.6164
     -3415.4374      -2661.3804
  -5433280.07048  -4181705.46647  21968155.5624   21968161.8434
       532.4844        414.9234
  12944256.97945  10086429.35645  25084390.7654   25084400.5304
     -3652.2664      -2845.9214
  -1800311.44747    368301.87146  22619910.7724   22619917.6444
     -1175.7194       -916.1444
   7764751.73747   5990034.28847  23007036.3274   23007043.1364
     -3352.4534      -2612.3014
  -1142750.27445   -801916.75845  25075270.3124   25075280.9794
      1928.6094       1502.8134
  -1383547.48148  -1044233.82947  21167143.3354   21167149.8044
     -1122.8914       -874.9804
 98  6 17 16 44 45.0030000  0  8G30G 4G 5G 7G 8G 9G10G24
  -3704876.21646  -2789446.75046  24314523.9604   24314530.7694
      1870.8914       1457.8374
   7967007.26148   6148456.97247  22277262.7104   22277269.0264
     -3423.6254      -2667.7604
  -5441221.12248  -4187893.29447  21966644.3354   21966650.4764
       526.0004        409.8704
  12999043.88845  10129120.42045  25094816.3274   25094825.3784
     -3652.9694      -2846.4694
  -1782593.04047    382108.41546  22623282.4134   22623289.1754
     -1187.0474       -924.9724
   7815092.97347   6029261.21047  23016616.0624   23016622.8354
     -3360.0784      -2618.2434
  -1171675.15145   -824455.53945  25069766.0544   25069775.4334
      1927.7034       1502.1064
  -1366632.47948  -1031053.30047  21170361.9914   21170368.5194
     -1132.8284       -882.7234
 98  6 17 16 45  0.0030000  0  8G30G 4G 5G 7G 8G 9G10G24
  -3732918.99446  -2811298.23746  24309187.4374   24309194.4134
      1867.9224       1455.5244
   8018423.77648   6188521.78047  22287046.8904   22287053.0894
     -3432.0314      -2674.3104
  -5449059.96348  -4194001.47647  21965152.7334   21965158.8044
       518.9844        404.4034
  13053846.08345  10171823.36645  25105244.8904   25105252.9214
     -3654.1874      -2847.4194
  -1764700.44547    396050.68946  22626687.6084   22626694.0894
     -1198.7814       -934.1154
   7865554.04147   6068581.50847  23026218.3194   23026225.1904
     -3368.3124      -2624.6594
  -1200581.23345   -846979.63245  25064265.2654   25064275.3704
      1926.2344       1500.9624
  -1349563.30948  -1017752.64447  21173610.2334   21173616.7024
     -1143.2344       -890.8324
 98  6 17 16 45 15.0030000  0  8G30G 4G 5G 7G 8G 9G10G24
  -3760917.10846  -2833114.91046  24303859.8354   24303867.0224
      1865.7664       1453.8434
   8069962.29048   6228681.65147  22296854.3274   22296860.6204
     -3439.1564      -2679.8624
  -5456794.65848  -4200028.50547  21963680.8584   21963686.9764
       512.9224        399.6794
  13108665.75245  10214539.96745  25115676.8744   25115685.1404
     -3654.5944      -2847.7354
  -1746633.70447    410128.66546  22630125.5224   22630132.1204
     -1209.5164       -942.4804
   7916140.16547   6107999.24847  23035844.6474   23035851.4094
     -3375.9694      -2630.6254
  -1229464.67345   -869486.16045  25058769.3124   25058779.0194
      1925.4534       1500.3534
  -1332339.85648  -1004331.76247  21176887.6474   21176894.1284
     -1152.6414       -898.1624
 98  6 17 16 45 30.0030000  0  8G30G 4G 5G 7G 8G 9G10G24
  -3788878.80046  -2854903.21546  24298538.6244   24298545.3974
      1863.0944       1451.7614
   8121611.34848   6268927.66147  22306683.0774   22306689.5694
     -3446.7194      -2685.7554
  -5464433.57048  -4205980.89947  21962227.2654   21962233.3944
       506.1884        394.4324
  13163498.08245  10257266.42145  25126111.8514   25126120.5504
     -3655.6874      -2848.5884
  -1728401.48347    424335.58546  22633595.1634   22633601.7024
     -1220.8284       -951.2954
   7966847.93247   6147511.77447  23045494.1244   23045501.1834
     -3384.4694      -2637.2484
  -1258331.04545   -891979.37445  25053276.3194   25053285.0074
      1924.0474       1499.2574
  -1314971.17448   -990797.72147  21180192.7884   21180199.1284
     -1162.5624       -905.8934
 98  6 17 16 45 45.0030000  0  8G30G 4G 5G 7G 8G 9G10G24
  -3816800.78846  -2876660.57046  24293225.5384   24293232.8904
      1860.3594       1449.6314
   8173372.64648   6309261.12847  22316532.8044   22316539.1444
     -3454.3284      -2691.6844
  -5471969.91648  -4211853.36747  21960793.2574   21960799.4684
       499.0634        388.8804
  13218345.32445  10300004.51945  25136548.3044   25136556.9214
     -3656.8444      -2849.4894
  -1709998.99747    438675.17946  22637096.9914   22637103.5544
     -1232.3594       -960.2804
   8017684.33047   6187124.52747  23055167.7024   23055174.8434
     -3393.2344      -2644.0794
  -1287174.85545   -914454.94945  25047787.1474   25047798.0264
      1922.2504       1497.8574
  -1297452.51548   -977146.81247  21183526.5224   21183533.0504
     -1172.7814       -913.8564
 98  6 17 16 46  0.0030000  0  8G30G 4G 5G 7G 8G 9G10G24
  -3844685.07346  -2898388.57246  24287919.2264   24287926.5774
      1857.8284       1447.6584
   8225247.52548   6349683.10647  22326404.2104   22326410.4214
     -3462.1254      -2697.7604
  -5479399.35948  -4217642.53647  21959379.2104   21959385.5264
       491.8284        383.2434
  13273209.53945  10342755.80345  25146988.9604   25146997.5074
     -3658.1564      -2850.5114
  -1691425.29347    453148.19446  22640631.5224   22640638.1204
     -1243.9224       -969.2904
   8068650.01647   6226838.02647  23064866.1794   23064873.1794
     -3401.9694      -2650.8854
  -1315992.14745   -936909.89845  25042303.4444   25042315.2614
      1920.3134       1496.3474
  -1279784.33748   -963379.39747  21186888.7184   21186895.3744
     -1182.7034       -921.5874
 98  6 17 16 46 15.0030000  0  8G30G 4G 5G 7G 8G 9G10G24
  -3872531.17746  -2920086.80546  24282620.2104   24282627.4214
      1854.7194       1445.2354
   8277240.80548   6390197.34547  22336298.1404   22336304.2224
     -3470.5164      -2704.2984
  -5486721.34548  -4223347.97147  21957985.9914   21957992.2264
       484.2034        377.3014
  13328094.87045  10385523.54745  25157433.5074   25157442.2184
     -3660.1414      -2852.0584
  -1672676.03147    467758.00246  22644199.3354   22644205.9794
     -1256.2664       -978.9084
   8119747.12147   6266653.93847  23074589.8904   23074596.7844
     -3411.1564      -2658.0444
  -1344779.68046   -959341.66445  25036825.4994   25036835.5344
      1917.7974       1494.3874
  -1261966.21248   -949495.13747  21190279.3434   21190285.9764
     -1193.3124       -929.8544
 98  6 17 16 46 30.0030000  0  8G30G 4G 5G 7G 8G 9G10G24
  -3900337.55746  -2941754.07746  24277328.9214   24277335.8624
      1852.7344       1443.6894
   8329349.98148   6430801.88947  22346214.2884   22346220.3704
     -3477.3594      -2709.6314
  -5493937.51848  -4228970.95747  21956612.9374   21956619.3004
       477.9224        372.4074
  13383001.59145  10428307.99345  25167881.8354   25167890.4644
     -3660.7974      -2852.5694
  -1653750.76947    482504.96046  22647800.9374   22647807.4054
     -1267.0624       -987.3214
   8170971.78247   6306569.23546  23084337.5074   23084344.4374
     -3418.7814      -2663.9854
  -1373539.03045   -981751.46845  25031352.0934   25031363.1364
      1916.7974       1493.6084
  -1243999.03448   -935494.73547  21193698.2414   21193704.6984
     -1202.2504       -936.8184
 98  6 17 16 46 45.0030000  0  8G30G 4G 5G 7G 8G 9G10G24
  -3928100.24246  -2963387.30946  24272046.0624   24272053.0504
      1849.7344       1441.3514
   8381575.48748   6471497.08147  22356152.4834   22356158.6594
     -3485.3124      -2715.8284
  -5501047.39848  -4234511.11447  21955259.7024   21955265.9834
       470.8754        366.9164
  13437932.07645  10471110.92845  25178334.7884   25178344.4484
     -3662.5944      -2853.9694
  -1634651.08147    497387.83646  22651435.1714   22651442.0774
     -1278.7814       -996.4534
   8222322.02147   6346582.39646  23094109.0384   23094116.0034
     -3427.1414      -2670.4994
  -1402272.29345  -1004140.91645  25025884.4994   25025895.9054
      1915.1094       1492.2934
  -1225886.02048   -921380.69247  21197145.1634   21197151.5154
     -1212.0784       -944.4764
 98  6 17 16 47  0.0030000  0  8G30G 4G 5G 7G 8G 9G10G24
  -3955832.87446  -2984997.13446  24266768.4604   24266774.9524
      1847.8914       1439.9154
   8433904.92948   6512273.26147  22366110.2724   22366116.4254
     -3491.9694      -2721.0154
  -5508067.53748  -4239981.34447  21953923.9444   21953930.1554
       465.0944        362.4114
  13492876.56345  10513924.80545  25188789.1944   25188798.2694
     -3663.4224      -2854.6144
  -1615390.99947    512395.68546  22655100.4374   22655107.0464
     -1289.2814      -1004.6354
   8273780.19247   6386679.66047  23103901.3514   23103907.9374
     -3433.9694      -2675.8204
  -1430996.44745  -1026523.26445  25020418.3194   25020429.3624
      1914.6884       1491.9644
  -1207640.94848   -907163.74947  21200616.9684   21200623.3314
     -1220.6564       -951.1614
 98  6 17 16 47 15.0030000  0  8G30G 4G 5G 7G 8G 9G10G24
  -3983523.23046  -3006573.99946  24261499.4134   24261505.8944
      1844.2034       1437.0414
   8486346.94348   6553137.15847  22376089.9294   22376096.2334
     -3500.2194      -2727.4434
  -5514987.11548  -4245373.21647  21952607.0384   21952613.3084
       457.6254        356.5914
  13547847.42745  10556759.19745  25199249.5934   25199259.5814
     -3665.9694      -2856.5994
  -1595959.77247    527536.89146  22658798.0934   22658804.8544
     -1301.5004      -1014.1564
   8325353.00747   6426866.25346  23113715.2334   23113722.0304
     -3442.3444      -2682.3464
  -1459700.54545  -1048890.01245  25014956.3124   25014965.7264
      1912.6254       1490.3574
  -1189253.72148   -892836.03647  21204115.9684   21204122.4014
     -1230.9064       -959.1484
 98  6 17 16 47 30.0030000  0  8G30G 4G 5G 7G 8G 9G10G24
  -4011173.05846  -3028119.28346  24256237.6634   24256244.6284
      1841.8914       1435.2394
   8538898.93848   6594086.75647  22386090.1084   22386096.5304
     -3507.3284      -2732.9834
  -5521810.32248  -4250689.99147  21951308.6014   21951314.8584
       451.5314        351.8434
  13602842.35545  10599612.32045  25209716.1714   25209725.7264
     -3667.2814      -2857.6224
  -1576358.02347    542810.98446  22662528.0624   22662534.7414
     -1312.6564      -1022.8494
   8377036.83547   6467139.35247  23123550.7024   23123557.6084
     -3449.3594      -2687.8124
  -1488388.01445  -1071243.77745  25009497.0694   25009507.4914
      1911.8134       1489.7244
  -1170727.28648   -878399.84847  21207641.4214   21207647.8664
     -1239.8914       -966.1494
 98  6 17 16 47 45.0030000  0  8G30G 4G 5G 7G 8G 9G10G24
  -4038785.28446  -3049635.28746  24250982.9684   24250989.8514
      1838.8594       1432.8774
   8591560.72248   6635121.90147  22396111.0694   22396117.2694
     -3515.0474      -2738.9984
  -5528537.87448  -4255932.22647  21950028.5304   21950034.7534
       444.6884        346.5104
  13657858.24745  10642481.84145  25220185.1244   25220194.0694
     -3668.9064      -2858.8884
  -1556586.14447    558217.63246  22666290.4834   22666297.5304
     -1324.4064      -1032.0054
   8428826.87447   6507495.22547  23133405.7724   23133412.8314
     -3456.7194      -2693.5474
  -1517060.07745  -1093585.55745  25004040.2884   25004049.8664
      1910.3444       1488.5804
  -1152062.96148   -863856.21447  21211193.1324   21211199.7764
     -1249.5164       -973.6494
 98  6 17 16 48  0.0030000  0  7G30G 4G 5G 8G 9G10G24
  -4066344.82446  -3071110.22046  24245738.7654   24245745.6714
      1835.3134       1430.1144
   8644344.43248   6676252.05947  22406155.8274   22406162.0384
     -3523.1564      -2745.3174
  -5535156.84148  -4261089.85647  21948768.8584   21948775.0344
       437.4534        340.8734
  -1536631.34947    573766.82346  22670087.6944   22670094.7414
     -1336.5624      -1041.4774
   8480731.45647   6547940.35246  23143282.5854   23143289.7264
     -3464.1724      -2699.3554
  -1545703.11445  -1115904.69845  24998589.8354   24998598.7454
      1908.3914       1487.0584
  -1133247.98848   -849195.19147  21214773.5384   21214780.1474
     -1259.5164       -981.4414
 98  6 17 16 48 15.0030000  0  7G30G 4G 5G 8G 9G10G24
  -4093857.45146  -3092548.60246  24240503.2414   24240510.2534
      1832.4694       1427.8984
   8697239.29448   6717468.82247  22416221.3974   22416227.7374
     -3530.0164      -2750.6624
  -5541677.19748  -4266170.64847  21947528.1634   21947534.2804
       431.3914        336.1494
  -1516505.19147    589449.53346  22673917.6474   22673924.6594
     -1347.5004      -1050.0004
   8532737.57647   6588464.59746  23153179.4764   23153186.3944
     -3470.5164      -2704.2984
  -1574327.66645  -1138209.49245  24993142.9914   24993152.3944
      1907.6884       1486.5104
  -1114292.72548   -834424.85147  21218380.4374   21218387.1404
     -1268.4224       -988.3814
 98  6 17 16 48 30.0030000  0  7G30G 4G 5G 8G 9G10G24
  -4121323.27646  -3113950.50746  24235276.2334   24235283.2694
      1829.2974       1425.4264
   8750238.94948   6758767.25047  22426306.6474   22426313.0344
     -3536.9534      -2756.0674
  -5548102.53048  -4271177.38547  21946305.2804   21946311.4334
       424.9384        331.1204
  -1496211.45247    605262.83546  22677779.2574   22677786.2224
     -1358.6414      -1058.6814
   8584841.70547   6629065.21346  23163094.3124   23163101.2414
     -3477.0474      -2709.3874
  -1602938.50745  -1160503.57645  24987698.4994   24987707.4214
      1906.7344       1485.7674
  -1095199.44548   -819546.96847  21222013.9214   21222020.4954
     -1277.6254       -995.5524
 98  6 17 16 48 45.0030000  0  7G30G 4G 5G 8G 9G10G24
  -4148736.99446  -3135311.83646  24230059.6324   24230066.5504
      1825.5004       1422.4684
   8803347.53648   6800150.55247  22436412.9054   22436419.3154
     -3544.6094      -2762.0334
  -5554424.86148  -4276103.87047  21945102.2884   21945108.4994
       417.7034        325.4834
  -1475747.02347    621209.13846  22681673.7964   22681680.7374
     -1370.3594      -1067.8124
   8637050.18847   6669747.13646  23173029.3744   23173036.1474
     -3484.5164      -2715.2074
  -1631528.52845  -1182781.45845  24982257.7804   24982267.3004
      1904.8914       1484.3304
  -1075963.81548   -804558.16147  21225674.3514   21225680.8784
     -1287.5624      -1003.2954
 98  6 17 16 49  0.0030000  0  7G30G 4G 5G 8G 9G10G24
  -4176098.15746  -3156632.18046  24224853.1634   24224860.2334
      1822.5784       1420.1914
   8856567.30648   6841620.49447  22446540.5074   22446546.8584
     -3551.3914      -2767.3174
  -5560644.15048  -4280950.06147  21943919.0154   21943925.3084
       411.3914        320.5644
  -1455107.85947    637291.59546  22685601.2654   22685607.8394
     -1381.6414      -1076.6034
   8689369.07347   6710515.09146  23182985.1554   23182991.9054
     -3491.4694      -2720.6254
  -1660094.04045  -1205040.22445  24976821.6714   24976831.3434
      1903.7194       1483.4174
  -1056580.49748   -789454.27447  21229362.7724   21229369.2764
     -1297.0164      -1010.6624
 98  6 17 16 49 15.0030000  0  7G30G 4G 5G 8G 9G10G24
  -4203412.53846  -3177916.08846  24219655.3584   24219662.4874
      1819.7344       1417.9754
   8909887.95348   6883169.04047  22456687.1014   22456693.3474
     -3557.6414      -2772.1874
  -5566764.14948  -4285718.87747  21942754.1474   21942760.4994
       405.0164        315.5974
  -1434296.92847    653507.88946  22689561.4214   22689568.0194
     -1392.7814      -1085.2844
   8741794.93447   6751366.40346  23192961.5304   23192968.2454
     -3498.3124      -2725.9584
  -1688638.42145  -1227282.53045  24971390.2334   24971399.8474
      1902.5634       1482.5164
  -1037053.17348   -774238.17347  21233078.8124   21233085.3514
     -1306.2974      -1017.8944
 98  6 17 16 49 30.0030000  0  7G30G 4G 5G 8G 9G10G24
  -4230680.87746  -3199164.11546  24214466.5224   24214473.4644
      1816.5314       1415.4794
   8963307.33848   6924794.52747  22466852.3044   22466858.4684
     -3564.5474      -2777.5694
  -5572784.59848  -4290410.13247  21941608.4134   21941614.8004
       398.1414        310.2394
  -1413312.87447    669859.10046  22693554.6634   22693561.2374
     -1404.6414      -1094.5254
   8794329.61147   6792302.50246  23202958.4994   23202965.4524
     -3505.8754      -2731.8514
  -1717160.06045  -1249507.08745  24965962.1474   24965973.2494
      1900.7194       1481.0804
  -1017381.31748   -758909.45847  21236822.4524   21236828.9794
     -1316.1254      -1025.5524
 98  6 17 16 49 45.0030000  0  7G30G 4G 5G 8G 9G10G24
  -4257901.36046  -3220374.84946  24209286.3124   24209293.5814
      1812.9694       1412.7034
   9016832.97048   6966502.80247  22477038.0464   22477044.2804
     -3572.0624      -2783.4254
  -5578699.79448  -4295019.36847  21940482.8194   21940488.9724
       390.6724        304.4204
  -1392151.86447    686348.19046  22697581.3514   22697588.3624
     -1416.6874      -1103.9124
   8846978.46847   6833327.56746  23212977.4834   23212984.6594
     -3513.8124      -2738.0364
  -1745651.31845  -1271708.00945  24960540.6554   24960549.8474
      1898.2344       1479.1444
   -997561.29848   -743465.28647  21240593.7184   21240600.3514
     -1326.4224      -1033.5754
 98  6 17 16 50  0.0030000  0  7G30G 4G 5G 8G 9G10G24
  -4285069.15646  -3241544.52746  24204116.8124   24204123.8004
      1809.3444       1409.8784
   9070469.51548   7008297.50247  22487244.6164   22487251.0624
     -3579.5474      -2789.2574
  -5584504.75948  -4299542.70847  21939378.2494   21939384.3544
       383.2814        298.6614
  -1370814.67247    702974.56646  22701641.7104   22701648.3084
     -1428.3754      -1113.0194
   8899744.61347   6874444.02646  23223018.5464   23223025.8274
     -3521.7664      -2744.2334
  -1774107.16945  -1293881.31945  24955125.1874   24955135.5974
      1895.8284       1477.2694
   -977587.98148   -727901.66047  21244394.8124   21244401.5504
     -1336.7664      -1041.6364
 98  6 17 16 50 15.0030000  0  7G30G 4G 5G 8G 9G10G24
  -4312186.44946  -3262674.85546  24198956.2724   24198963.2264
      1806.1094       1407.3584
   9124215.56448   7050177.53047  22497472.2494   22497478.7884
     -3586.7814      -2794.8944
  -5590202.94648  -4303982.84347  21938293.7654   21938299.8124
       376.2974        293.2184
  -1349305.07347    719735.28146  22705734.8044   22705741.2614
     -1439.7814      -1121.9074
   8952626.67447   6915650.80446  23233081.5774   23233088.8474
     -3529.3754      -2750.1624
  -1802531.17545  -1316029.79145  24949716.0854   24949726.3664
      1893.8444       1475.7224
   -957463.39148   -712220.15947  21248224.3044   21248230.9724
     -1346.6874      -1049.3674
 98  6 17 16 50 30.0030000  0  7G30G 4G 5G 8G 9G10G24
  -4339257.98346  -3283769.52346  24193804.7184   24193811.3154
      1803.4064       1405.2524
   9178068.27848   7092140.66947  22507720.0074   22507726.3354
     -3593.6724      -2800.2644
  -5595799.38648  -4308343.69747  21937228.7884   21937234.8474
       369.8134        288.1664
  -1327624.57547    736629.16346  22709860.8044   22709867.2724
     -1451.0624      -1130.6984
   9005622.49847   6956946.23646  23243166.4834   23243173.5304
     -3536.7974      -2755.9464
  -1830927.21145  -1338156.47745  24944312.8194   24944324.1204
      1892.2034       1474.4444
   -937192.55948   -696424.70447  21252081.8274   21252088.4134
     -1356.2034      -1056.7824
 98  6 17 16 50 45.0030000  0  7G30G 4G 5G 8G 9G10G24
  -4366285.26246  -3304829.71646  24188661.5624   24188667.9724
      1800.1254       1402.6954
   9232029.63148   7134188.46847  22517988.7494   22517995.0654
     -3601.2664      -2806.1814
  -5601294.76648  -4312625.80747  21936183.1714   21936189.3124
       362.8284        282.7234
  -1305769.30247    753659.23846  22714019.5304   22714026.1044
     -1463.0164      -1140.0124
   9058732.56847   6998330.70046  23253272.9054   23253279.8474
     -3544.5624      -2761.9974
  -1859294.29545  -1360260.62445  24938914.6714   24938924.3194
      1889.9694       1472.7034
   -916774.77248   -680514.73647  21255967.1164   21255973.7614
     -1366.2664      -1064.6234
 98  6 17 16 51  0.0030000  0  7G30G 4G 5G 8G 9G10G24
  -4393261.52946  -3325850.15446  24183528.0934   24183535.2454
      1796.7974       1400.1014
   9286105.93248   7176325.83847  22528279.1014   22528285.4294
     -3608.7814      -2812.0374
  -5606685.17148  -4316826.11247  21935157.4994   21935163.7224
       356.0314        277.4274
  -1283734.32747    770829.34346  22718212.6634   22718219.2264
     -1474.8444      -1149.2294
   9111958.03147   7039805.08846  23263401.2184   23263408.0894
     -3551.9844      -2767.7804
  -1887627.40045  -1382338.29645  24933523.4604   24933533.2144
      1887.9064       1471.0964
   -896204.02748   -664485.58647  21259881.4684   21259888.0194
     -1376.4224      -1072.5374
 98  6 17 16 51 15.0030000  0  7G30G 4G 5G 8G 9G10G24
  -4420193.69946  -3346836.22846  24178403.2024   24178409.7884
      1794.0004       1397.9224
   9340287.95248   7218545.58347  22538589.4604   22538595.7414
     -3615.7034      -2817.4314
  -5611978.56548  -4320950.82947  21934150.1244   21934156.3474
       349.4694        272.3134
  -1261528.55347    788132.53246  22722438.2724   22722444.9994
     -1486.0784      -1157.9834
   9165286.12247   7081359.42846  23273549.5694   23273556.0854
     -3558.5944      -2772.9304
  -1915935.80645  -1404396.71846  24928136.6014   24928148.0424
      1886.2974       1469.8424
   -875487.35248   -648342.72447  21263823.7804   21263830.3194
     -1385.9534      -1079.9634
 98  6 17 16 51 30.0030000  0  7G30G 4G 5G 8G 9G10G24
  -4447078.53246  -3367785.41646  24173287.1794   24173293.8944
      1790.8914       1395.4994
   9394582.61748   7260853.10447  22548921.3434   22548927.6244
     -3623.4064      -2823.4334
  -5617165.64748  -4324992.69947  21933163.2024   21933169.4484
       342.3754        266.7864
  -1239148.98547    805571.14546  22726696.9914   22726703.6364
     -1497.6414      -1166.9934
   9218718.80347   7122995.26546  23283717.4994   23283724.3584
     -3565.5624      -2778.3604
  -1944211.46946  -1426429.60446  24922755.8434   24922766.0074
      1884.0164       1468.0644
   -854622.26048   -632084.21047  21267794.3124   21267800.8744
     -1395.7974      -1087.6344
 98  6 17 16 51 45.0030000  0  7G30G 4G 5G 8G 9G10G24
  -4473916.73246  -3388698.27846  24168180.2334   24168187.0774
      1787.7344       1393.0404
   9448993.22748   7303250.97047  22559275.4834   22559281.8944
     -3631.1094      -2829.4364
  -5622246.41048  -4328951.72747  21932196.3124   21932202.5584
       335.2664        261.2464
  -1216597.62847    823143.62246  22730988.4764   22730995.2024
     -1508.9064      -1175.7714
   9272255.92847   7164712.49646  23293905.2264   23293912.3194
     -3572.4844      -2783.7544
  -1972453.20146  -1448436.12345  24917381.5774   24917390.0074
      1881.7974       1466.3354
   -833611.90348   -615712.50247  21271792.2184   21271798.7454
     -1405.3594      -1095.0854
 98  6 17 16 52  0.0030000  0  7G30G 4G 5G 8G 9G10G24
  -4500713.16346  -3409578.58046  24163080.5624   24163087.3004
      1784.6564       1390.6414
   9503511.08448   7345732.40547  22569649.8664   22569656.1014
     -3638.3124      -2835.0494
  -5627227.58448  -4332833.15247  21931248.3744   21931254.6794
       328.5314        255.9984
  -1193885.80447    840841.13546  22735310.2104   22735316.8544
     -1519.7664      -1184.2334
   9325889.74247   7206505.08446  23304111.5544   23304118.3974
     -3579.0944      -2788.9044
  -2000670.10746  -1470423.29945  24912012.1554   24912021.8744
      1880.0944       1465.0084
   -812464.59348   -599234.07747  21275816.4374   21275822.9054
     -1414.6874      -1102.3544
 98  6 17 16 52 15.0030000  0  7G30G 4G 5G 8G 9G10G24
  -4527459.49146  -3430419.84346  24157991.2024   24157998.6124
      1781.3594       1388.0724
   9558138.57448   7388299.26947  22580045.2964   22580051.6474
     -3645.5004      -2840.6494
  -5632104.72448  -4336633.51047  21930320.1404   21930326.3744
       321.5944        250.5934
  -1171007.14247    858668.66446  22739663.8664   22739670.5814
     -1531.0004      -1192.9874
   9379624.86347   7248376.60946  23314336.7104   23314344.0624
     -3585.7664      -2794.1034
  -2028860.21346  -1492389.52646  24906647.7574   24906658.0624
      1878.4064       1463.6934
   -791175.84648   -582645.44147  21279867.6554   21279874.2064
     -1423.9374      -1109.5624
 98  6 17 16 52 30.0030000  0  7G30G 4G 5G 8G 9G10G24
  -4554166.76846  -3451230.68346  24152908.6014   24152915.3514
      1780.5314       1387.4274
   9612862.97148   7430941.64447  22590458.9914   22590465.1674
     -3650.1724      -2844.2904
  -5636888.13948  -4340360.84047  21929409.8044   21929416.0384
       317.0474        247.0504
  -1147968.18647    876621.09346  22744048.2334   22744055.0304
     -1539.9534      -1199.9634
   9433449.02347   7290317.50546  23324579.0774   23324586.3004
     -3589.9224      -2797.3424
  -2057035.23346  -1514344.03745  24901286.3354   24901295.7024
      1879.2034       1464.3144
   -769760.13548   -565957.87347  21283942.9604   21283949.6284
     -1430.5944      -1114.7484
 98  6 17 16 52 45.0030000  0  7G30G 4G 5G 8G 9G10G24
  -4580854.94146  -3472026.63446  24147830.2024   24147837.6124
      1777.5164       1385.0774
   9667664.13148   7473643.83447  22600887.2804   22600893.4334
     -3657.0314      -2849.6354
  -5641594.23648  -4344027.92047  21928514.2804   21928520.3864
       310.0474        241.5954
  -1124788.33247    894683.30246  22748459.1474   22748465.6754
     -1551.0164      -1208.5844
   9487344.28647   7332313.79946  23334834.8974   23334841.9914
     -3596.4224      -2802.4074
  -2085215.06346  -1536302.31645  24895923.4524   24895933.0304
      1877.7034       1463.1454
   -748236.69948   -549186.36647  21288038.7264   21288045.2764
     -1439.5474      -1121.7254
 98  6 17 16 53  0.0030000  0  7G30G 4G 5G 8G 9G10G24
  -4607482.59046  -3492775.42846  24142763.1084   24142769.9794
      1773.5004       1381.9484
   9722582.53048   7516437.37847  22611337.8434   22611343.9254
     -3664.7664      -2855.6624
  -5646180.23948  -4347601.42247  21927641.7574   21927648.0624
       302.0314        235.3494
  -1101431.39747    912883.50046  22752903.7724   22752910.3354
     -1562.5784      -1217.5934
   9541350.78847   7374396.78546  23345112.0544   23345119.1834
     -3603.8284      -2808.1784
  -2113357.51246  -1558231.44445  24890568.3584   24890577.8194
      1875.2344       1461.2224
   -726564.95148   -532299.29047  21292162.7654   21292169.4214
     -1449.3914      -1129.3954
 98  6 17 16 53 15.0030000  0  7G30G 4G 5G 8G 9G10G24
  -4634058.40246  -3513483.81946  24137705.8514   24137713.0624
      1769.6254       1378.9294
   9777608.74648   7559314.93647  22621808.9054   22621815.0934
     -3672.4534      -2861.6524
  -5650651.64148  -4351085.62247  21926790.5464   21926796.8274
       293.7814        228.9204
  -1077906.94847    931214.22946  22757380.7104   22757387.3084
     -1574.3594      -1226.7744
   9595463.53547   7416562.54446  23355409.5154   23355416.5504
     -3611.5784      -2814.2174
  -2141470.51545  -1580137.62746  24885218.1714   24885227.8194
      1872.7974       1459.3224
   -704752.83248   -515302.83347  21296313.5224   21296320.2724
     -1459.2344      -1137.0664
 98  6 17 16 53 30.0030000  0  7G30G 4G 5G 8G 9G10G24
  -4660577.59246  -3534148.10146  24132659.3124   24132666.4054
      1766.1884       1376.2504
   9832750.95548   7602282.87247  22632302.1634   22632308.3044
     -3679.8914      -2867.4474
  -5654999.17348  -4354473.30347  21925963.5854   21925969.9954
       285.8914        222.7724
  -1054206.26447    949682.28646  22761890.3664   22761897.1284
     -1585.8124      -1235.6984
   9649693.60047   7458819.71246  23365729.3044   23365736.2454
     -3619.2034      -2820.1584
  -2169546.25945  -1602014.73346  24879875.7184   24879886.2104
      1870.6094       1457.6184
   -682793.56448   -498191.72047  21300492.2264   21300498.8944
     -1468.7194      -1144.4564
 98  6 17 16 53 45.0030000  0  7G30G 4G 5G 8G 9G10G24
  -4687044.91146  -3554771.95146  24127622.7964   24127630.0194
      1762.7034       1373.5354
   9888001.88348   7645335.52947  22642816.2024   22642822.4254
     -3686.9064      -2872.9144
  -5659233.77248  -4357772.97647  21925157.6474   21925163.9174
       278.7034        217.1714
  -1030336.25547    968282.28646  22766432.8744   22766439.6834
     -1596.9064      -1244.3434
   9704036.50547   7501164.80646  23376070.2414   23376077.1594
     -3626.5624      -2825.8934
  -2197593.64846  -1623869.79046  24874538.9604   24874548.6794
      1869.0474       1456.4004
   -660693.59048   -480970.96147  21304697.5774   21304704.1984
     -1478.0004      -1151.6884
 98  6 17 16 54  0.0030000  0  7G30G 4G 5G 8G 9G10G24
  -4713465.39446  -3575359.32646  24122595.1554   24122602.0154
      1759.4844       1371.0274
   9943350.58148   7688464.36847  22653348.4834   22653354.7534
     -3693.4844      -2878.0404
  -5663368.40148  -4360994.75647  21924370.9214   21924377.0264
       272.1094        212.0334
  -1006307.84347    987005.70946  22771005.1794   22771011.6594
     -1607.4844      -1252.5854
   9758482.73047   7543590.41046  23386431.1794   23386438.0224
     -3633.4694      -2831.2744
  -2225625.95945  -1645713.09945  24869203.5384   24869212.5544
      1868.0944       1455.6574
   -638459.97348   -463646.06247  21308928.4834   21308935.0694
     -1487.0624      -1158.7504
 98  6 17 16 54 15.0030000  0  7G30G 4G 5G 8G 9G10G24
  -4739832.37346  -3595904.99446  24117577.5074   24117585.0224
      1756.1094       1368.3974
   9998803.92248   7731674.75147  22663901.1014   22663907.1714
     -3700.3124      -2883.3604
  -5667400.15948  -4364136.38547  21923603.7884   21923609.9054
       265.4064        206.8104
   -982112.59347   1005859.13946  22775609.4834   22775615.9644
     -1618.6414      -1261.2784
   9813037.50347   7586100.60446  23396812.3354   23396819.2534
     -3640.5314      -2836.7784
  -2253639.56845  -1667541.81546  24863872.9764   24863883.5384
      1867.0164       1454.8174
   -616083.44148   -446209.80447  21313186.5224   21313193.1444
     -1496.4844      -1166.0924
 98  6 17 16 54 30.0030000  0  7G30G 4G 5G 8G 9G10G24
  -4766148.33146  -3616410.89746  24112569.4444   24112576.8544
      1752.7974       1365.8164
  10054361.45948   7774966.32747  22674473.1874   22674479.3274
     -3707.2974      -2888.8034
  -5671327.95348  -4367196.99347  21922856.3044   21922862.3864
       258.4064        201.3564
   -957745.75047   1024846.27746  22780246.2654   22780252.7924
     -1630.2034      -1270.2884
   9867700.34247   7628695.00146  23407214.4994   23407221.6874
     -3647.8444      -2842.4764
  -2281633.75046  -1689355.35746  24858546.1874   24858555.7534
      1865.5944       1453.7094
   -593563.23248   -428661.58747  21317472.3434   21317478.8944
     -1506.1874      -1173.6534
 98  6 17 16 54 45.0030000  0  7G30G 4G 5G 8G 9G10G24
  -4792420.11646  -3636882.39346  24107570.4834   24107577.7414
      1749.8754       1363.5394
  10110018.85148   7818335.70547  22685064.6324   22685070.8194
     -3713.8594      -2893.9164
  -5675156.65948  -4370180.38747  21922127.6164   21922133.7334
       251.8594        196.2544
   -933212.13847   1043963.37746  22784914.7654   22784921.5624
     -1641.1094      -1278.7874
   9922468.15047   7671371.19546  23417636.6244   23417643.8824
     -3654.7504      -2847.8574
  -2309611.72845  -1711156.31846  24853221.8664   24853231.8544
      1864.5944       1452.9304
   -570901.07748   -411002.76347  21321784.6714   21321791.3514
     -1515.6724      -1181.0434
 98  6 17 16 55  0.0030000  0  7G30G 4G 5G 8G 9G10G24
  -4818644.31846  -3657316.81646  24102579.8824   24102586.5624
      1745.9534       1360.4834
  10165775.62748   7861782.53147  22695674.8824   22695681.1514
     -3721.1414      -2899.5904
  -5678885.08748  -4373085.64947  21921418.0304   21921424.3124
       244.5314        190.5444
   -908514.10947   1063208.58846  22789614.7334   22789621.5074
     -1652.7034      -1287.8214
   9977341.23147   7714129.41746  23428078.4524   23428085.7454
     -3662.3594      -2853.7874
  -2337570.85845  -1732942.62646  24847901.1474   24847910.4214
      1862.5314       1451.3234
   -548092.59648   -393229.91847  21326124.9524   21326131.5974
     -1526.1874      -1189.2374
 98  6 17 16 55 15.0030000  0  7G30G 4G 5G 8G 9G10G24
  -4844812.71446  -3677707.74646  24097600.4444   24097607.1944
      1742.8284       1358.0484
  10221638.07148   7905311.69647  22706305.2264   22706311.4604
     -3727.5314      -2904.5704
  -5682506.74648  -4375907.71347  21920728.9294   21920735.0694
       237.9534        185.4184
   -883644.33947   1082587.62146  22794347.3824   22794354.1904
     -1663.6414      -1296.3434
  10032324.19747   7756973.25846  23438541.2574   23438548.3514
     -3669.0164      -2858.9734
  -2365502.96246  -1754707.82346  24842586.2414   24842595.5854
      1861.3754       1450.4224
   -525129.76148   -375336.79747  21330494.4524   21330501.1324
     -1535.8754      -1196.7864
 98  6 17 16 55 30.0040000  0  7G30G 4G 5G 8G 9G10G24
  -4870932.83146  -3698061.06046  24092630.0984   24092637.1454
      1739.1094       1355.1504
  10277603.21548   7948920.88747  22716954.8094   22716961.0204
     -3734.5164      -2910.0124
  -5686026.57248  -4378650.42347  21920059.0514   21920065.4734
       230.8594        179.8904
   -858604.14147   1102099.44746  22799112.3874   22799118.7504
     -1675.3124      -1305.4384
  10087412.29047   7799899.02046  23449024.0904   23449031.2194
     -3676.0624      -2864.4644
  -2393415.85646  -1776458.04646  24837274.6454   24837284.8204
      1859.5474       1448.9984
   -502017.32848   -357327.10647  21334892.6454   21334899.2544
     -1546.0944      -1204.7484
 98  6 17 16 55 45.0040000  0  7G30G 4G 5G 8G 9G10G24
  -4896991.49746  -3718366.48546  24087671.1684   24087678.0004
      1735.0784       1352.0094
  10333670.68648   7992609.81047  22727624.1604   22727630.4654
     -3741.3914      -2915.3694
  -5689439.33448  -4381309.71347  21919409.6684   21919416.0084
       223.8594        174.4364
   -833389.12547   1121747.50046  22803910.5514   22803916.8674
     -1686.9374      -1314.4974
  10142603.54647   7842905.16146  23459527.0354   23459534.0004
     -3683.0474      -2869.9074
  -2421296.00145  -1798182.77145  24831969.0744   24831978.4414
      1857.5474       1447.4394
   -478752.04048   -339198.30847  21339319.7304   21339326.5044
     -1556.1724      -1212.6014
 98  6 17 16 56  0.0040000  0  7G30G 4G 5G 8G 9G10G24
  -4922996.59346  -3738630.17246  24082722.5124   24082729.4774
      1732.2974       1349.8424
  10389833.76748   8036373.23747  22738311.6294   22738317.8984
     -3747.0784      -2919.8014
  -5692751.26148  -4383890.42947  21918779.4024   21918785.7664
       217.6254        169.5784
   -808006.37847   1141526.25546  22808740.6524   22808747.1214
     -1697.4694      -1322.7034
  10197891.72047   7885986.82746  23470047.9804   23470055.1684
     -3688.7344      -2874.3384
  -2449152.76746  -1819889.31345  24826667.8244   24826677.0274
      1856.5944       1446.6964
   -455344.10948   -320958.35847  21343774.3484   21343781.1094
     -1564.9374      -1219.4324
 98  6 17 16 56 15.0040000  0  7G30G 4G 5G 8G 9G10G24
  -4948958.53046  -3758860.23246  24077781.9734   24077788.6524
      1729.3284       1347.5284
  10446086.10548   8080206.21447  22749016.3714   22749022.6764
     -3753.1874      -2924.5624
  -5695962.94148  -4386393.03047  21918168.1914   21918174.4374
       210.6254        164.1234
   -782459.38647   1161432.99246  22813602.2074   22813608.8754
     -1708.7814      -1331.5184
  10253269.73747   7929138.49846  23480585.9494   23480593.0084
     -3694.9694      -2879.1964
  -2476989.04045  -1841579.83746  24821371.0744   24821380.5124
      1854.9224       1445.3944
   -431800.95748   -302613.04047  21348254.3874   21348261.2194
     -1574.0944      -1226.5674
 98  6 17 16 56 30.0040000  0  7G30G 4G 5G 8G 9G10G24
  -4974873.50346  -3779053.68446  24072850.5124   24072857.6874
      1726.7034       1345.4834
  10502430.86848   8124111.21047  22759738.1684   22759744.6484
     -3758.7504      -2928.8964
  -5699064.82048  -4388810.07047  21917578.0044   21917584.4024
       203.6564        158.6934
   -756739.94147   1181474.11546  22818496.5824   22818503.3554
     -1719.6874      -1340.0164
  10308743.56947   7972364.84146  23491142.4264   23491149.3794
     -3700.8124      -2883.7504
  -2504796.01645  -1863247.53145  24816078.8324   24816089.3484
      1853.3284       1444.1524
   -408118.45948   -284159.14047  21352761.0204   21352767.5944
     -1582.8284      -1233.3734
 98  6 17 16 56 45.0040000  0  7G30G 4G 5G 8G 9G10G24
  -5000749.94446  -3799217.11846  24067926.2074   24067933.2544
      1723.3594       1342.8774
  10558857.30048   8168079.84547  22770475.5984   22770482.1724
     -3764.8914      -2933.6814
  -5702064.64248  -4391147.58247  21917007.0514   21917013.3914
       196.2814        152.9464
   -730861.78647   1201638.89746  22823420.7154   22823427.5124
     -1730.7194      -1348.6124
  10364302.34247   8015657.36646  23501714.9264   23501722.0784
     -3707.0944      -2888.6444
  -2532578.27246  -1884895.98446  24810792.5824   24810801.8794
      1850.9064       1442.2654
   -384308.30048   -265605.76747  21357291.9104   21357298.3554
     -1591.9374      -1240.4714
 98  6 17 16 57  0.0040000  0  7G30G 4G 5G 8G 9G10G24
  -5026576.00946  -3819341.29846  24063011.7074   24063018.8834
      1719.9384       1340.2114
  10615375.97848   8212120.35447  22781230.7304   22781237.1764
     -3771.1094      -2938.5274
  -5704955.08448  -4393399.86747  21916457.1454   21916463.4614
       188.9384        147.2244
   -704820.75147   1221930.60446  22828376.5664   22828382.8714
     -1741.5624      -1357.0624
  10419952.97747   8059021.46946  23512304.7074   23512311.6954
     -3713.1724      -2893.3814
  -2560324.86945  -1906516.66246  24805512.1844   24805523.2154
      1848.4384       1440.3414
   -360362.90548   -246947.01347  21361848.5744   21361855.1134
     -1600.9064      -1247.4594
 98  6 17 16 57 15.0040000  0  7G30G 4G 5G 8G 9G10G24
  -5052346.17146  -3839421.91846  24058107.7234   24058114.6874
      1716.3914       1337.4474
  10671994.92448   8256239.00347  22792005.1684   22792011.7304
     -3777.8594      -2943.7874
  -5707730.08048  -4395562.19247  21915928.9964   21915935.1724
       181.3284        141.2954
   -678609.67347   1242354.81046  22833364.2234   22833370.7504
     -1753.0314      -1365.9984
  10475700.73047   8102461.25846  23522913.2624   23522920.3554
     -3719.6414      -2898.4214
  -2588027.07445  -1928102.70045  24800240.0124   24800250.7154
      1845.4534       1438.0154
   -336278.88948   -228180.24247  21366431.5594   21366438.0744
     -1609.9844      -1254.5334
 98  6 17 16 57 30.0040000  0  7G30G 4G 5G 8G 9G10G24
  -5078069.99046  -3859466.42146  24053212.9884   24053219.7034
      1713.5944       1335.2684
  10728709.16848   8300431.90447  22802797.2704   22802803.5864
     -3783.9064      -2948.4984
  -5710397.27348  -4397640.51647  21915421.4884   21915427.5824
       174.4844        135.9624
   -652231.21647   1262909.44346  22838383.6844   22838390.0944
     -1763.9844      -1374.5334
  10531540.90347   8145973.04146  23533539.2774   23533546.5354
     -3725.6094      -2903.0724
  -2615690.19146  -1949658.31746  24794976.3794   24794986.0984
      1843.0634       1436.1534
   -312065.62348   -209312.75847  21371039.5044   21371045.9844
     -1618.3124      -1261.0234
 98  6 17 16 57 45.0040000  0  7G30G 4G 5G 8G 9G10G24
  -5103753.45746  -3879479.49646  24048325.4024   24048332.3794
      1710.1564       1332.5894
  10785512.80948   8344694.46347  22813606.8874   22813613.0984
     -3790.6254      -2953.7344
  -5712964.94448  -4399641.29547  21914932.7854   21914939.0434
       167.2194        130.3004
   -625691.21647   1283589.95146  22843434.1914   22843440.8124
     -1775.3444      -1383.3854
  10587469.78447   8189553.95446  23544182.2704   23544189.4804
     -3732.2814      -2908.2714
  -2643318.87045  -1971187.09645  24789718.4494   24789727.4064
      1840.0944       1433.8394
   -287727.77848   -190348.19947  21375670.5984   21375677.0664
     -1627.4224      -1268.1214
 98  6 17 16 58  0.0040000  0  7G30G 4G 5G 8G 9G10G24
  -5129394.73746  -3899459.68846  24043445.9104   24043452.2624
      1708.1094       1330.9944
  10842406.88248   8389027.49547  22824433.6294   22824439.8054
     -3795.8754      -2957.8254
  -5715433.18848  -4401564.59347  21914463.1604   21914469.4534
       161.2504        125.6494
   -598991.77547   1304394.70546  22848514.9654   22848521.8094
     -1785.1414      -1391.0194
  10643488.59947   8233204.95546  23554842.3404   23554849.5394
     -3737.5164      -2912.3504
  -2670913.17645  -1992689.11746  24784467.5744   24784476.3794
      1838.5634       1432.6464
   -263263.90748   -171285.43847  21380326.0744   21380332.5904
     -1635.1094      -1274.1114
 98  6 17 16 58 15.0040000  0  7G30G 4G 5G 8G 9G10G24
  -5154992.08446  -3919405.64346  24038575.0904   24038581.6294
      1704.7974       1328.4134
  10899395.28648   8433434.03347  22835278.1214   22835284.3914
     -3802.6874      -2963.1334
  -5717797.03348  -4403406.54447  21914013.3484   21914019.4884
       153.8914        119.9154
   -572130.67647   1325325.41846  22853626.4264   22853633.1174
     -1796.3914      -1399.7854
  10699600.42647   8276928.41646  23565520.1684   23565527.3324
     -3744.1414      -2917.5124
  -2698469.47046  -2014161.46246  24779224.1214   24779234.2154
      1835.4694       1430.2354
   -238668.06048   -152119.83947  21385006.3874   21385012.9264
     -1644.4534      -1281.3924
 98  6 17 16 58 30.0040000  0  7G30G 4G 5G 8G 9G10G24
  -5180539.63846  -3939312.80846  24033713.5984   24033720.4064
      1701.7034       1326.0024
  10956485.27548   8477919.72647  22846141.8954   22846148.1764
     -3809.1094      -2968.1374
  -5720053.83648  -4405165.08647  21913583.9024   21913590.1844
       147.2664        114.7524
   -545103.10447   1346385.85246  22858769.5204   22858776.2584
     -1806.9844      -1408.0404
  10755809.92747   8320728.00646  23576216.5664   23576223.6374
     -3750.2194      -2922.2484
  -2725980.18046  -2035598.30646  24773988.9264   24773998.8204
      1832.8914       1428.2264
   -213931.82748   -132844.84647  21389713.3404   21389719.9024
     -1653.4844      -1288.4294
 98  6 17 16 58 45.0040000  0  7G30G 4G 5G 8G 9G10G24
  -5206038.78346  -3959182.24046  24028861.0594   24028867.8094
      1698.1414       1323.2264
  11013672.78348   8522481.40947  22857024.3164   22857030.8204
     -3816.0004      -2973.5064
  -5722210.55548  -4406845.63847  21913173.2774   21913179.7114
       140.2504        109.2864
   -517918.38747   1367568.73646  22863942.7854   22863949.6684
     -1817.7344      -1416.4164
  10812110.68247   8364598.70146  23586930.2384   23586937.2034
     -3756.6094      -2927.2284
  -2753452.36546  -2057005.18746  24768760.9494   24768769.9414
      1829.9534       1425.9384
   -189061.06548   -113465.02747  21394446.1054   21394452.6914
     -1662.6874      -1295.6014
 98  6 17 16 59  0.0040000  0  7G30G 4G 5G 8G 9G10G24
  -5231491.04046  -3979015.15046  24024017.7234   24024024.2854
      1695.0634       1320.8284
  11070959.04948   8567120.04247  22867925.5744   22867931.9494
     -3822.6254      -2978.6694
  -5724267.61748  -4408448.53747  21912782.0904   21912788.5234
       133.5164        104.0384
   -490576.39547   1388874.17846  22869145.5354   22869152.4064
     -1828.3754      -1424.7084
  10868502.12147   8408540.05646  23597661.1684   23597668.0274
     -3762.6724      -2931.9524
  -2780885.66646  -2078381.72946  24763540.6524   24763550.6764
      1827.4224       1423.9654
   -164057.16348    -93981.46047  21399204.4344   21399211.1024
     -1671.6724      -1302.6014
 98  6 17 16 59 15.0040000  0  7G30G 4G 5G 8G 9G10G24
  -5256892.66946  -3998808.59246  24019183.7234   24019190.4264
      1691.6414       1318.1624
  11128349.48348   8611839.84947  22878846.7544   22878853.3984
     -3829.5784      -2984.0874
  -5726216.03948  -4409966.78347  21912411.1604   21912417.4884
       126.1254         98.2794
   -463067.31847   1410309.81446  22874380.6764   22874387.3324
     -1839.6724      -1433.5114
  10924989.36947   8452556.04546  23608410.2234   23608417.1524
     -3769.1414      -2936.9934
  -2808276.07546  -2099724.84246  24758328.3634   24758337.7424
      1824.4694       1421.6644
   -138913.01248    -74388.60947  21403988.9884   21403995.6684
     -1681.0624      -1309.9194
 98  6 17 16 59 30.0040000  0  7G30G 4G 5G 8G 9G10G24
  -5282237.94146  -4018558.13046  24014360.9264   24014367.6644
      1687.8914       1315.2394
  11185847.43848   8656643.43847  22889788.2304   22889794.6054
     -3836.5164      -2989.4934
  -5728049.07148  -4411395.11347  21912062.5274   21912068.8914
       118.5004         92.3384
   -435383.42847   1431881.66346  22879648.7704   22879655.7934
     -1851.2344      -1442.5204
  10981578.70547   8496651.59346  23619178.8954   23619186.0824
     -3775.8124      -2942.1924
  -2835618.17246  -2121030.31246  24753125.4964   24753134.3014
      1821.4224       1419.2904
   -113623.08548    -54682.16747  21408801.4264   21408808.1174
     -1690.7034      -1317.4314
 98  6 17 16 59 45.0040000  0  7G30G 4G 5G 8G 9G10G24
  -5307524.88746  -4038262.21846  24009548.8794   24009555.1024
      1683.9384       1312.1594
  11243447.32148   8701526.44647  22900749.0744   22900755.6484
     -3843.2194      -2994.7164
  -5729766.90248  -4412733.67847  21911735.4024   21911741.7544
       110.7814         86.3234
   -407528.35947   1453586.89746  22884949.1684   22884956.2034
     -1862.4374      -1451.2504
  11038265.78047   8540823.30046  23629966.5744   23629973.7974
     -3782.1874      -2947.1594
  -2862914.82546  -2142300.42646  24747931.4884   24747940.2234
      1818.4064       1416.9404
    -88188.33648    -34862.88047  21413641.6994   21413648.2854
     -1700.2814      -1324.8944
 98  6 17 17  0  0.0040000  0  7G30G 4G 5G 8G 9G10G24
  -5332763.27046  -4057928.46846  24004746.1454   24004752.6954
      1680.7194       1309.6514
  11301136.72348   8746479.21747  22911726.9804   22911733.3324
     -3849.1724      -2999.3554
  -5731379.50548  -4413990.24347  21911428.4884   21911434.7584
       103.7504         80.8444
   -379518.83747   1475412.49046  22890279.1994   22890286.0704
     -1872.6414      -1459.2004
  11095035.54747   8585059.44646  23640768.9964   23640776.2544
     -3787.5944      -2951.3724
  -2890178.25246  -2163544.59246  24742742.6294   24742752.5004
      1816.2034       1415.2234
    -62622.86148    -14941.72347  21418506.6134   21418513.2584
     -1708.8914      -1331.6034
 98  6 17 17  0 15.0040000  0  7G30G 4G 5G 8G 9G10G24
  -5357947.50346  -4077552.51746  23999953.5904   23999959.9534
      1677.7034       1307.3014
  11358920.85548   8791505.80047  22922723.0434   22922729.5474
     -3854.8754      -3003.7994
  -5732878.68048  -4415158.42647  21911143.3094   21911149.6024
        96.6564         75.3174
   -351348.45547   1497363.43046  22895640.1374   22895646.9454
     -1882.9064      -1467.2004
  11151893.56947   8629364.36046  23651588.9734   23651596.1134
     -3792.9374      -2955.5364
  -2917400.33246  -2184756.54046  24737562.4344   24737571.5084
      1813.9534       1413.4704
    -36921.28248      5085.48647  21423397.4024   21423403.9654
     -1717.5004      -1338.3124
 98  6 17 17  0 30.0040000  0  7G30G 4G 5G 8G 9G10G24
  -5383077.98646  -4097134.69646  23995171.4574   23995178.1374
      1673.7504       1304.2214
  11416799.07948   8836605.70347  22933737.0204   22933743.4414
     -3861.4374      -3008.9124
  -5734262.69748  -4416236.87347  21910879.8874   21910886.0394
        88.6564         69.0834
   -323014.50347   1519441.82246  22901031.6374   22901038.3164
     -1894.1874      -1475.9904
  11208839.31247   8673737.63846  23662425.4654   23662432.8874
     -3799.0944      -2960.3334
  -2944580.25546  -2205935.68146  24732389.9654   24732398.8754
      1810.8134       1411.0234
    -11082.85948     25219.32447  21428314.2774   21428320.7114
     -1726.9064      -1345.6414
 98  6 17 17  0 45.0040000  0  7G30G 4G 5G 8G 9G10G24
  -5408150.04046  -4116671.32946  23990400.3794   23990407.3324
      1669.4384       1300.8604
  11474772.71548   8881779.95347  22944768.6604   22944775.0474
     -3868.1564      -3014.1484
  -5735528.62948  -4417223.30747  21910639.2624   21910645.4844
        80.2814         62.5574
   -294514.21347   1541649.83446  22906455.0434   22906461.7464
     -1905.6254      -1484.9034
  11265876.19047   8718181.92846  23673279.1684   23673286.2734
     -3805.6414      -2965.4344
  -2971714.56046  -2227079.25746  24727226.3794   24727235.7584
      1807.3134       1408.2954
     14894.69348     45461.58147  21433257.8164   21433264.2734
     -1736.5314      -1353.1414
 98  6 17 17  1  0.0040000  0  7G30G 4G 5G 8G 9G10G24
  -5433162.11646  -4136161.23046  23985640.8324   23985647.7034
      1665.3444       1297.6704
  11532842.70048   8927029.27847  22955819.1054   22955825.6334
     -3874.7034      -3019.2494
  -5736670.87648  -4418113.36447  21910421.7304   21910427.8954
        71.8444         55.9824
   -265844.47747   1563989.87546  22911910.9344   22911917.6484
     -1917.1724      -1493.9004
  11323008.45847   8762700.53446  23684151.1764   23684158.2344
     -3812.1874      -2970.5364
  -2998798.33246  -2248183.45846  24722072.7464   24722082.1724
      1803.6884       1405.4714
     41013.97848     65814.27147  21438228.0594   21438234.6564
     -1746.2814      -1360.7394
 98  6 17 17  1 15.0040000  0  7G30G 4G 5G 8G 9G10G24
  -5458124.26146  -4155612.23446  23980890.5044   23980897.9494
      1662.9534       1295.8084
  11590998.58648   8972345.54247  22966885.9104   22966892.2384
     -3879.3754      -3022.8904
  -5737699.13048  -4418914.59747  21910226.1764   21910232.5164
        65.3284         50.9054
   -237014.52547   1586454.75746  22917396.9574   22917403.5904
     -1926.6874      -1501.3154
  11380227.20847   8807286.53846  23695039.3164   23695046.5274
     -3816.9374      -2974.2374
  -3025840.52446  -2269255.24446  24716927.1524   24716936.1684
      1802.0314       1404.1804
     67269.63848     86273.23247  21443224.2934   21443230.9734
     -1754.3594      -1367.0334
 98  6 17 17  1 30.0040000  0  7G30G 4G 5G 8G 9G10G24
  -5483036.73246  -4175024.52246  23976149.9024   23976156.9494
      1658.9694       1292.7034
  11649236.65548   9017725.84247  22977968.4734   22977974.8124
     -3885.4374      -3027.6144
  -5738618.75348  -4419631.18147  21910051.0124   21910057.4804
        57.5784         44.8664
   -208031.79247   1609038.69546  22922912.3794   22922919.3204
     -1937.3754      -1509.6434
  11437530.89247   8851938.72346  23705944.0204   23705951.0314
     -3823.3284      -2979.2174
  -3052846.36846  -2290298.72845  24711787.6524   24711796.6804
      1799.0164       1401.8304
     93657.27548    106835.02847  21448245.7774   21448252.3984
     -1763.7194      -1374.3264
 98  6 17 17  1 45.0040000  0  7G30G 4G 5G 8G 9G10G24
  -5507888.72246  -4194389.68246  23971420.8244   23971427.9304
      1655.8444       1290.2684
  11707566.17748   9063177.40547  22989068.1764   22989074.5164
     -3890.6414      -3031.6684
  -5739421.70748  -4420256.85547  21909898.3794   21909904.6254
        50.6414         39.4604
   -178888.43247   1631747.80146  22928458.1214   22928465.0394
     -1947.1564      -1517.2654
  11494932.25747   8896667.02946  23716867.2854   23716874.4144
     -3828.9844      -2983.6244
  -3079806.18846  -2311306.35346  24706657.3164   24706666.4614
      1796.7974       1400.1014
    120186.07848    127506.82647  21453293.9344   21453300.5434
     -1772.2504      -1380.9744
 98  6 17 17  2  0.0040000  0  7G30G 4G 5G 8G 9G10G24
  -5532697.16246  -4213720.91446  23966699.7704   23966706.8874
      1652.2814       1287.4924
  11765973.05748   9108689.24447  23000182.6684   23000189.0664
     -3896.6874      -3036.3804
  -5740123.23348  -4420803.49247  21909764.6524   21909770.8754
        43.1884         33.6534
   -149603.65847   1654567.09046  22934030.8714   22934037.4924
     -1957.2194      -1525.1064
  11552416.66547   8941460.03246  23727806.0514   23727813.1334
     -3835.3124      -2988.5554
  -3106735.33746  -2332290.05646  24701532.9344   24701542.1484
      1794.0944       1397.9954
    146840.26248    148276.32047  21458366.0354   21458372.5514
     -1781.3594      -1388.0724
 98  6 17 17  2 15.0040000  0  7G30G 4G 5G 8G 9G10G24
  -5557455.46546  -4233013.07346  23961988.6374   23961995.4454
      1649.2034       1285.0934
  11824469.25548   9154270.68547  23011313.9184   23011320.3164
     -3902.4694      -3040.8854
  -5740714.49448  -4421264.20947  21909652.2854   21909658.4144
        35.9844         28.0404
   -120168.51047   1677503.55946  22939632.0434   22939638.7464
     -1967.2034      -1532.8864
  11609993.78947   8986325.29246  23738762.7704   23738770.0394
     -3841.3124      -2993.2314
  -3133626.07446  -2353243.85746  24696415.9804   24696424.5984
      1791.6724       1396.1084
    173630.54048    169151.86347  21463464.0354   21463470.7274
     -1790.3594      -1395.0854
 98  6 17 17  2 30.0040000  0  7G30G 4G 5G 8G 9G10G24
  -5582168.03346  -4252269.59146  23957285.8954   23957292.5864
      1645.5164       1282.2204
  11883051.35048   9199919.06047  23022461.6454   23022468.0434
     -3908.7504      -3045.7794
  -5741197.85848  -4421640.85647  21909560.3244   21909566.3484
        28.2344         22.0014
    -90581.95847   1700557.99846  22945262.0984   22945268.7194
     -1977.9064      -1541.2264
  11667661.23147   9031260.92946  23749736.2464   23749743.2814
     -3847.8914      -2998.3564
  -3160482.30146  -2374170.75246  24691305.3094   24691314.7934
      1788.9384       1393.9774
    200554.15548    190131.30347  21468587.6294   21468594.2974
     -1799.6724      -1402.3424
 98  6 17 17  2 45.0040000  0  7G30G 4G 5G 8G 9G10G24
  -5606823.56246  -4271481.67446  23952593.5664   23952600.3634
      1641.4384       1279.0424
  11941729.50448   9245642.28647  23033627.7704   23033634.0274
     -3915.4694      -3051.0154
  -5741564.66048  -4421926.66847  21909490.5434   21909496.6254
        20.2664         15.7914
    -60833.37647   1723738.70146  22950922.9654   22950929.7274
     -1988.9534      -1549.8344
  11725428.73347   9076274.53246  23760729.1994   23760736.4924
     -3854.9374      -3003.8474
  -3187296.20446  -2395064.65246  24686202.6604   24686211.4304
      1785.8134       1391.5424
    227616.75548    211219.04747  21473737.3164   21473743.9734
     -1809.1094      -1409.6964
 98  6 17 17  3  0.0040000  0  7G30G 4G 5G 8G 9G10G24
  -5631421.53746  -4290648.90646  23947913.3484   23947920.5124
      1638.2504       1276.5584
  12000504.76648   9291441.17347  23044812.5594   23044819.0864
     -3921.2814      -3055.5444
  -5741816.55248  -4422122.94147  21909442.4654   21909448.5704
        13.2974         10.3614
    -30924.77247   1747044.09546  22956614.4964   22956621.5784
     -1998.9374      -1557.6144
  11783297.44247   9121367.00046  23771741.5354   23771748.6994
     -3860.9064      -3008.4984
  -3214068.60946  -2415926.24146  24681107.9574   24681117.8164
      1783.8754       1390.0324
    254815.95048    232413.22447  21478913.1214   21478919.5904
     -1817.4844      -1416.2224
 98  6 17 17  3 15.0040000  0  7G30G 4G 5G 8G 9G10G24
  -5655958.72646  -4309768.76246  23943243.8244   23943250.8014
      1633.3444       1272.7354
  12059378.90948   9337317.11147  23056015.9494   23056022.6054
     -3928.6724      -3061.3034
  -5741952.90948  -4422229.18947  21909416.6054   21909422.6524
         4.8754          3.7994
      -852.86247   1770476.74746  22962337.1374   22962343.9574
     -2010.6874      -1566.7694
  11841267.29447   9166538.26946  23782772.8874   23782780.3324
     -3868.4064      -3014.3434
  -3240802.08646  -2436757.48346  24676020.9344   24676029.5864
      1780.6094       1387.4884
    282152.08248    253714.10347  21484114.8794   21484121.5474
     -1827.3444      -1423.9044
 98  6 17 17  3 30.0040000  0  7G30G 4G 5G 8G 9G10G24
  -5680435.63146  -4328841.65146  23938586.1764   23938593.1414
      1629.5474       1269.7774
  12118351.93748   9383270.10847  23067238.1604   23067244.6524
     -3935.1094      -3066.3194
  -5741976.72548  -4422247.74347  21909412.0204   21909418.2664
        -2.4534         -1.9124
     29381.55247   1794036.02046  22968090.5124   22968097.3324
     -2021.3444      -1575.0734
  11899335.14047   9211785.90746  23793822.7464   23793829.9344
     -3874.6874      -3019.2374
  -3267501.01446  -2457561.81046  24670940.0664   24670950.0904
      1778.4844       1385.8324
    309621.08648    275118.52247  21489342.3634   21489349.0434
     -1835.8914      -1430.5644
 98  6 17 17  3 45.0040000  0  7G30G 4G 5G 8G 9G10G24
  -5704853.76246  -4347868.74646  23933939.3954   23933946.3954
      1626.4534       1267.3664
  12177423.64248   9429299.99547  23078479.1054   23078485.3634
     -3940.9224      -3070.8484
  -5741887.11548  -4422177.91447  21909429.1214   21909435.3914
        -9.3124         -7.2564
     59780.87147   1817723.79046  22973875.5664   22973882.3874
     -2031.7504      -1583.1824
  11957498.36847   9257107.87146  23804890.8404   23804898.1454
     -3880.1724      -3023.5114
  -3294164.46546  -2478338.47346  24665866.4024   24665876.2384
      1776.8134       1384.5294
    337222.53548    296626.14147  21494594.6374   21494601.2584
     -1844.1254      -1436.9814
 98  6 17 17  4  0.0040000  0  7G30G 4G 5G 8G 9G10G24
  -5729231.78647  -4366864.58746  23929300.2304   23929306.7704
      1624.2664       1265.6624
  12236577.03948   9475393.53547  23089735.6604   23089741.9414
     -3945.8594      -3074.6964
  -5741700.07848  -4422032.16947  21909464.7704   21909471.0274
       -15.2974        -11.9204
     90332.20347   1841530.01046  22979689.1454   22979695.7544
     -2041.3914      -1590.6944
  12015735.84947   9302487.69846  23815973.0744   23815980.6134
     -3884.4534      -3026.8474
  -3320807.99546  -2499099.64146  24660795.8324   24660805.5164
      1776.0164       1383.9084
    364942.76748    318226.32247  21499869.7154   21499876.3244
     -1851.5944      -1442.8004
 98  6 17 17  4 15.0040000  0  7G30G 4G 5G 8G 9G10G24
  -5753563.81447  -4385824.58946  23924670.2624   23924676.9884
      1619.6564       1262.0704
  12295817.25748   9521554.73147  23101008.4804   23101014.7854
     -3953.1094      -3080.3454
  -5741410.63548  -4421806.62547  21909519.7464   21909526.0164
       -23.6414        -18.4214
    121042.81147   1865460.34246  22985533.0904   22985539.8984
     -2053.7664      -1600.3374
  12074048.72147   9347926.27146  23827069.7074   23827076.8124
     -3890.9064      -3031.8754
  -3347427.86246  -2519842.35646  24655730.7304   24655739.7344
      1772.9534       1381.5224
    392786.96148    339923.09347  21505168.1914   21505174.8014
     -1861.3444      -1450.3984
 98  6 17 17  4 30.0040000  0  7G30G 4G 5G 8G 9G10G24
  -5777816.05246  -4404722.40946  23920055.1054   23920061.8444
      1613.9694       1257.6384
  12355173.76048   9567806.53747  23112303.7234   23112310.1334
     -3961.0474      -3086.5304
  -5740986.29248  -4421475.96547  21909600.6374   21909606.8484
       -32.8754        -25.6174
    151951.17047   1889544.77146  22991414.9104   22991421.7074
     -2067.3284      -1610.9054
  12132469.01247   9393448.56046  23838186.6294   23838193.9454
     -3898.4374      -3037.7444
  -3373990.40746  -2540540.41746  24650675.9884   24650685.2034
      1768.7344       1378.2354
    420787.43948    361741.64847  21510496.6054   21510503.1914
     -1871.9844      -1458.6894
 98  6 17 17  4 45.0040000  0  7G30G 4G 5G 8G 9G10G24
  -5801987.00346  -4423556.90746  23915455.5124   23915461.9574
      1608.3914       1253.2914
  12414642.55648   9614145.83946  23123620.3554   23123627.0704
     -3968.6254      -3092.4354
  -5740431.03048  -4421043.28847  21909706.2304   21909712.5354
       -41.6414        -32.4474
    183054.94647   1913781.47046  22997333.6764   22997340.7234
     -2080.2194      -1620.9504
  12190996.15447   9439054.10546  23849324.2234   23849331.2704
     -3905.6254      -3043.3444
  -3400496.51646  -2561194.48746  24645631.7774   24645640.3714
      1764.9064       1375.2524
    448941.00848    383679.49047  21515853.8634   21515860.4734
     -1882.3594      -1466.7744
 98  6 17 17  5  0.0040000  0  7G30G 4G 5G 8G 9G10G24
  -5826085.47947  -4442334.91446  23910869.9024   23910876.3244
      1604.5004       1250.2604
  12474215.15048   9660566.02746  23134956.8244   23134963.5164
     -3974.6094      -3097.0984
  -5739753.55748  -4420515.38147  21909835.0274   21909841.1684
       -48.9374        -38.1334
    214338.95547   1938158.61446  23003286.8954   23003293.6684
     -2091.1874      -1629.4974
  12249618.56047   9484733.84946  23860479.5274   23860486.8674
     -3910.9224      -3047.4724
  -3426954.25246  -2581810.88546  24640597.1994   24640605.8164
      1762.5784       1373.4384
    477242.56948    405732.65347  21521239.5204   21521246.1524
     -1891.4534      -1473.8604
 98  6 17 17  5 15.0040000  0  7G30G 4G 5G 8G 9G10G24
  -5850128.48447  -4461069.70146  23906294.2624   23906301.0004
      1600.4694       1247.1194
  12533874.46348   9707053.78246  23146309.4264   23146316.1874
     -3980.6874      -3101.8344
  -5738968.63348  -4419903.75047  21909984.4494   21909990.7544
       -56.5164        -44.0384
    245784.88947   1962661.92646  23009270.7934   23009277.4494
     -2102.4224      -1638.2514
  12308316.36347   9530472.35046  23871649.3324   23871656.5904
     -3916.2194      -3051.5994
  -3453379.09546  -2602401.62646  24635568.4494   24635577.7464
      1759.9064       1371.3564
    505679.24348    427891.09647  21526650.7934   21526657.4614
     -1900.8914      -1481.2134
 98  6 17 17  5 30.0040000  0  7G30G 4G 5G 8G 9G10G24
  -5874110.38447  -4479756.87746  23901730.6524   23901737.3094
      1596.4844       1244.0144
  12593624.55148   9753612.27946  23157679.6054   23157686.2154
     -3986.6564      -3106.4854
  -5738067.65048  -4419201.68047  21910155.8554   21910162.0784
       -64.2974        -50.1014
    277400.05847   1987297.11846  23015286.9804   23015293.7894
     -2113.5624      -1646.9324
  12367094.44947   9576273.42146  23882834.6374   23882842.3984
     -3921.5314      -3055.7394
  -3479760.61946  -2622958.63846  24630548.2774   24630557.8554
      1756.9384       1369.0424
    534258.79148    450160.87747  21532089.3244   21532096.0274
     -1910.4064      -1488.6284
 98  6 17 17  5 45.0040000  0  7G30G 4G 5G 8G 9G10G24
  -5898040.45346  -4498403.66346  23897177.3014   23897184.0864
      1594.3754       1242.3704
  12653455.57148   9800233.83546  23169065.1524   23169071.3754
     -3990.5314      -3109.5054
  -5737057.17748  -4418414.29147  21910348.1134   21910354.2774
       -70.2194        -54.7164
    309173.27647   2012055.45546  23021333.1294   23021339.9614
     -2122.6564      -1654.0184
  12425944.57947   9622130.62646  23894033.3484   23894040.7584
     -3924.9844      -3058.4294
  -3506103.32746  -2643485.40146  24625535.4654   24625544.5744
      1755.5944       1367.9954
    562974.07148    472536.41547  21537553.8164   21537560.4964
     -1918.0474      -1494.5824
 98  6 17 17  6  0.0040000  0  7G30G 4G 5G 8G 9G10G24
  -5921911.31447  -4517004.31146  23892634.4654   23892641.2274
      1588.7034       1237.9504
  12713368.17248   9846918.96846  23180465.8874   23180472.1564
     -3997.4694      -3114.9114
  -5735933.04448  -4417538.34147  21910562.0354   21910568.2814
       -79.3284        -61.8144
    341108.20547   2036939.80146  23027410.1684   23027416.8594
     -2134.9534      -1663.6004
  12484873.66947   9668049.35646  23905247.3164   23905254.8794
     -3931.9374      -3063.8474
  -3532399.62346  -2663975.99246  24620531.3014   24620540.7154
      1750.8754       1364.3184
    591828.29248    495020.22447  21543044.3484   21543051.0164
     -1928.7814      -1502.9464
 98  6 17 17  6 15.0040000  0  7G30G 4G 5G 8G 9G10G24
  -5945712.17247  -4535550.41546  23888105.1214   23888112.1684
      1584.6884       1234.8214
  12773367.53848   9893671.70546  23191883.4734   23191889.6724
     -4002.3914      -3118.7464
  -5734688.20748  -4416568.32947  21910798.8164   21910805.0984
       -86.6874        -67.5494
    373208.79347   2061953.23646  23033518.6054   23033525.1804
     -2145.0944      -1671.5024
  12543890.51747   9714036.47546  23916477.6524   23916484.9344
     -3937.0004      -3067.7924
  -3558640.33246  -2684423.27246  24615537.9104   24615547.8404
      1747.9064       1362.0054
    620824.87548    517614.96347  21548562.2304   21548568.8284
     -1937.3914      -1509.6554
 98  6 17 17  6 30.0040000  0  7G30G 4G 5G 8G 9G10G24
  -5969441.70847  -4554040.94246  23883589.8164   23883596.5664
      1579.7504       1230.9744
  12833448.36847   9940487.91946  23203316.3094   23203322.6374
     -4007.8754      -3123.0194
  -5733322.23348  -4415503.92347  21911058.9574   21911065.2734
       -94.9064        -73.9534
    405469.69547   2087091.59146  23039657.6374   23039664.2584
     -2155.7814      -1679.8304
  12602994.52247   9760091.48946  23927724.7154   23927731.7274
     -3943.0164      -3072.4804
  -3584827.46746  -2704828.80446  24610554.6844   24610563.8634
      1744.1724       1359.0954
    649959.19348    540317.02747  21554106.4024   21554112.9414
     -1946.7034      -1516.9124
 98  6 17 17  6 45.0040000  0  7G30G 4G 5G 8G 9G10G24
  -5993106.69547  -4572481.16646  23879086.7384   23879093.2304
      1575.3594       1227.5534
  12893601.61747   9987360.57246  23214763.1374   23214769.4534
     -4012.7664      -3126.8304
  -5731842.96348  -4414351.24247  21911340.4494   21911346.7194
      -102.5624        -79.9194
    437878.20747   2112344.96946  23045824.5744   23045831.2894
     -2165.4844      -1687.3904
  12662178.61147   9806208.89346  23938987.5434   23938994.7074
     -3948.4064      -3076.6804
  -3610966.35346  -2725196.73146  24605580.3954   24605590.3364
      1740.8284       1356.4894
    679223.75448    563120.58447  21559675.4184   21559682.0164
     -1955.4064      -1523.6934
 98  6 17 17  7  0.0040000  0  7G30G 4G 5G 8G 9G10G24
  -6016699.53947  -4590865.18046  23874597.0124   23874603.7034
      1570.5784       1223.8274
  12953835.30747  10034295.88946  23226225.4344   23226231.9144
     -4018.2034      -3131.0674
  -5730242.08848  -4413103.79847  21911645.0514   21911651.2384
      -110.7194        -86.2744
    470437.16747   2137715.58046  23052020.6294   23052027.4264
     -2175.5624      -1695.2444
  12721448.99547   9852393.55546  23950265.9414   23950273.2814
     -3954.0944      -3081.1124
  -3637048.94446  -2745520.79046  24600617.0664   24600626.1414
      1736.9844       1353.4944
    708625.17348    586030.77947  21565270.1214   21565276.8244
     -1964.5314      -1530.8044
 98  6 17 17  7 15.0040000  0  7G30G 4G 5G 8G 9G10G24
  -6040225.67847  -4609197.21846  23870120.1764   23870126.7504
      1566.6564       1220.7714
  13014144.33847  10081289.92446  23237701.8404   23237708.4494
     -4022.5784      -3134.4764
  -5728524.22148  -4411765.19447  21911971.9264   21911978.0554
      -117.8594        -91.8384
    503145.41747   2163202.51446  23058244.7624   23058251.9264
     -2185.2034      -1702.7564
  12780800.32447   9898641.27346  23961560.1914   23961567.3554
     -3959.0624      -3084.9844
  -3663076.73846  -2765802.16346  24595664.1134   24595673.0354
      1733.8284       1351.0354
    738157.19348    609042.74147  21570889.9734   21570896.8164
     -1972.5784      -1537.0744
 98  6 17 17  7 30.0040000  0  7G30G 4G 5G 8G 9G10G24
  -6063684.97647  -4627477.17146  23865655.9024   23865662.6764
      1561.4694       1216.7294
  13074525.35448  10128340.04846  23249191.8554   23249198.3834
     -4027.9534      -3138.6654
  -5726693.27048  -4410338.47347  21912320.1604   21912326.4534
      -126.0164        -98.1944
    536006.56047   2188808.57646  23064497.7624   23064504.6684
     -2196.0784      -1711.2304
  12840235.07747   9944954.01346  23972870.3634   23972877.9614
     -3965.3444      -3089.8784
  -3689050.21646  -2786041.22546  24590721.4654   24590730.9614
      1729.5634       1347.7114
    767815.29848    632152.95347  21576533.8714   21576540.2584
     -1981.5314      -1544.0504
 98  6 17 17  7 45.0040000  0  7G30G 4G 5G 8G 9G10G24
  -6087061.99147  -4645693.00446  23861207.3244   23861213.5824
      1555.8594       1212.3584
  13134990.85048  10175455.99946  23260698.4184   23260704.9344
     -4033.7504      -3143.1824
  -5724735.60448  -4408813.01347  21912692.9264   21912699.0784
      -134.5944       -104.8784
    569033.93747   2214544.18046  23070783.0204   23070790.1724
     -2207.2194      -1719.9114
  12899768.64247   9991343.76446  23984199.2384   23984207.0354
     -3972.1094      -3095.1504
  -3714956.29646  -2806227.72546  24585791.7704   24585800.8794
      1724.9384       1344.1074
    797610.56548    655370.04647  21582203.4494   21582209.9534
     -1990.7974      -1551.2704
 98  6 17 17  8  0.0040000  0  7G30G 4G 5G 8G 9G10G24
  -6110363.14847  -4663849.73346  23856773.2774   23856779.9224
      1550.3594       1208.0724
  13195535.74048  10222633.82246  23272219.4264   23272225.6844
     -4039.5314      -3147.6874
  -5722658.26548  -4407194.30047  21913088.1054   21913094.2584
      -143.0314       -111.4534
    602221.06847   2240404.27146  23077098.3484   23077105.3124
     -2218.3914      -1728.6164
  12959395.37647  10037806.12646  23995545.8874   23995553.8714
     -3978.7344      -3100.3124
  -3740801.85146  -2826367.10346  24580873.5044   24580882.5784
      1720.5314       1340.6744
    827536.71748    678689.12647  21587898.3554   21587904.9534
     -2000.0004      -1558.4424
 98  6 17 17  8 15.0040000  0  7G30G 4G 5G 8G 9G10G24
  -6133591.37247  -4681949.62646  23852352.9414   23852359.2814
      1545.9384       1204.6274
  13256159.37047  10269873.00046  23283755.8324   23283762.1604
     -4044.5164      -3151.5714
  -5720462.24948  -4405483.11447  21913506.1604   21913512.2194
      -150.6254       -117.3704
    635568.45047   2266389.22646  23083444.2154   23083451.6604
     -2228.7344      -1736.6764
  13019111.52847  10084338.18846  24006909.7704   24006917.4964
     -3984.1874      -3104.5624
  -3766590.68946  -2846462.27746  24575965.9734   24575975.2344
      1717.1414       1338.0324
    857592.52848    702109.24147  21593617.7464   21593624.1684
     -2008.2974      -1564.9074
 98  6 17 17  8 30.0040000  0  7G30G 4G 5G 8G 9G10G24
  -6156750.54947  -4699995.71746  23847946.1994   23847952.9614
      1540.5944       1200.4634
  13316864.43648  10317175.63446  23295307.6844   23295313.9884
     -4050.8914      -3156.5384
  -5718147.03448  -4403679.04247  21913946.7624   21913952.7974
      -159.4224       -124.2254
    669076.01247   2292499.00146  23089820.5744   23089827.8324
     -2240.3594      -1745.7354
  13078911.53947  10130935.57946  24018289.3484   24018297.0164
     -3990.5784      -3109.5414
  -3792324.70646  -2866514.72146  24571069.0434   24571078.5164
      1712.7194       1334.5864
    887778.17648    725630.52747  21599362.0744   21599368.6254
     -2017.8914      -1572.3824
 98  6 17 17  8 45.0040000  0  7G30G 4G 5G 8G 9G10G24
  -6179833.82247  -4717982.66846  23843553.3954   23843559.8874
      1537.2974       1197.8944
  13377664.20147  10364552.05846  23306877.5204   23306883.5904
     -4055.7664      -3160.3374
  -5715704.47148  -4401775.74347  21914411.3634   21914417.6334
      -166.1564       -129.4724
    702755.92547   2318743.07746  23096229.5984   23096236.6214
     -2250.2974      -1753.4784
  13138804.77947  10177605.57746  24029686.5904   24029693.8244
     -3995.0944      -3113.0604
  -3817994.23946  -2886516.93146  24566184.2464   24566193.6844
      1709.8754       1332.3704
    918106.51648    749262.99747  21605133.1994   21605139.9264
     -2025.8124      -1578.5554
 98  6 17 17  9  0.0040000  0  7G30G 4G 5G 8G 9G10G24
  -6202856.59247  -4735922.46646  23839172.2934   23839178.7034
      1533.2664       1194.7524
  13438551.12648  10411996.40046  23318463.9104   23318470.1454
     -4061.6414      -3164.9154
  -5713148.34948  -4399783.95747  21914897.7854   21914904.0904
      -173.8124       -135.4384
    736599.34447   2345114.55346  23102669.8324   23102676.8444
     -2261.3284      -1762.0744
  13198778.33247  10224338.15846  24041099.3164   24041106.5624
     -4000.5004      -3117.2734
  -3843608.02646  -2906475.69146  24561310.5984   24561319.5664
      1706.1884       1329.4974
    948564.74648    772996.68647  21610929.1844   21610935.7464
     -2034.4534      -1585.2884
 98  6 17 17  9 15.0040000  0  7G30G 4G 5G 8G 9G10G24
  -6225821.35847  -4753817.08146  23834802.2384   23834808.7424
      1529.0474       1191.4654
  13499525.44448  10459508.84546  23330066.9104   23330073.4494
     -4067.9224      -3169.8094
  -5710479.94048  -4397704.67347  21915405.8324   21915412.1254
      -181.7034       -141.5874
    770608.30347   2371615.02246  23109141.5984   23109148.3594
     -2272.8594      -1771.0594
  13258830.28547  10271131.83646  24052526.5664   24052533.6024
     -4006.0944      -3121.6314
  -3869169.16046  -2926393.43446  24556445.9024   24556455.0234
      1702.3284       1326.4894
    979152.33748    796831.17347  21616749.9804   21616756.5434
     -2043.5624      -1592.3864
 98  6 17 17  9 30.0040000  0  7G30G 4G 5G 8G 9G10G24
  -6248728.78147  -4771666.99546  23830443.1454   23830449.9304
      1525.0314       1188.3364
  13560587.49548  10507089.64446  23341686.6994   23341693.1214
     -4073.9694      -3174.5214
  -5707698.46248  -4395537.28747  21915934.9804   21915941.2624
      -189.4534       -147.6264
    804783.61847   2398245.12546  23115644.8244   23115651.7894
     -2284.0314      -1779.7654
  13318960.24647  10317986.29846  24063969.0434   24063976.2304
     -4011.4694      -3125.8204
  -3894679.85346  -2946271.84046  24551591.7854   24551600.3324
      1698.8754       1323.7994
   1009870.98048    820767.78247  21622595.3794   21622601.9184
     -2052.5164      -1599.3634
 98  6 17 17  9 45.0040000  0  7G30G 4G 5G 8G 9G10G24
  -6271574.00547  -4789468.45446  23826095.7464   23826102.1214
      1521.5474       1185.6214
  13621741.94248  10554742.45046  23353323.9804   23353330.2154
     -4079.4064      -3178.7584
  -5704797.14048  -4393276.51347  21916486.8794   21916493.1024
      -196.8444       -153.3854
    839126.33947   2425005.66846  23122180.1374   23122187.3834
     -2294.4534      -1787.8864
  13379170.98347  10364903.72846  24075426.8714   24075434.5274
     -4016.0474      -3129.3874
  -3920137.90946  -2966109.28046  24546746.7154   24546755.2384
      1696.0634       1321.6074
   1040726.10848    844810.73847  21628466.6994   21628473.0744
     -2060.9694      -1605.9504
 98  6 17 17 10  0.0040000  0  7G30G 4G 5G 8G 9G10G24
  -6294361.32147  -4807224.78346  23821759.6054   23821766.1094
      1517.0004       1182.0784
  13682985.56748  10602464.73846  23364978.3164   23364984.4804
     -4086.1564      -3184.0184
  -5701777.71048  -4390923.70347  21917061.6374   21917067.9064
      -205.4224       -160.0694
    873632.57947   2451893.62446  23128746.4654   23128753.6874
     -2306.0784      -1796.9444
  13439456.25047  10411879.21546  24086898.8794   24086906.5824
     -4021.7194      -3133.8074
  -3945546.61646  -2985908.23246  24541912.0744   24541921.0084
      1692.0314       1318.4664
   1071716.23648    868958.88947  21634364.1214   21634370.7074
     -2070.7664      -1613.5844
 98  6 17 17 10 15.0040000  0  7G30G 4G 5G 8G 9G10G24
  -6317085.29947  -4824931.77346  23817435.1844   23817441.7234
      1512.7504       1178.7664
  13744324.77148  10650261.50746  23376650.7624   23376656.9264
     -4092.4694      -3188.9374
  -5698637.45248  -4388476.74447  21917659.0204   21917665.1724
      -213.3914       -166.2784
    908306.96447   2478912.60946  23135344.6604   23135351.7544
     -2317.2664      -1805.6624
  13499820.49747  10458916.24846  24098385.6294   24098393.2854
     -4026.9534      -3137.8864
  -3970902.02246  -3005665.65546  24537086.6294   24537095.0234
      1688.5474       1315.7514
   1102845.64748    893215.56947  21640287.8794   21640294.4414
     -2079.9064      -1620.7064
 98  6 17 17 10 30.0040000  0  7G30G 4G 5G 8G 9G10G24
  -6339744.08147  -4842587.95046  23813123.4344   23813130.0554
      1508.3284       1175.3214
  13805758.70948  10698132.09446  23388341.1914   23388347.4844
     -4098.8124      -3193.8804
  -5695376.94048  -4385936.07947  21918279.5594   21918285.6294
      -221.4064       -172.5244
    943149.00747   2506062.22946  23141975.0354   23141981.7384
     -2328.3444      -1814.2944
  13560264.07347  10506015.08346  24109887.7624   24109896.0044
     -4032.3124      -3142.0624
  -3996203.57246  -3025381.11746  24532272.0984   24532280.7504
      1684.9224       1312.9264
   1134111.65048    917578.68847  21646237.7774   21646244.2704
     -2088.9844      -1627.7804
 98  6 17 17 10 45.0040000  0  7G30G 4G 5G 8G 9G10G24
  -6362335.73647  -4860191.81846  23808824.2074   23808830.7584
      1503.9534       1171.9124
  13867286.94448  10746076.15646  23400049.6134   23400055.9884
     -4104.8444      -3198.5804
  -5691996.13548  -4383301.68047  21918923.0354   21918929.1994
      -229.3124       -178.6854
    978155.51647   2533340.01246  23148636.4804   23148643.3404
     -2339.1254      -1822.6954
  13620790.32947  10553178.36546  24121405.2384   24121412.9184
     -4037.8594      -3146.3844
  -4021450.72346  -3045054.17346  24527467.6684   24527476.3914
      1681.4064       1310.1874
   1165515.07348    942048.88747  21652213.3484   21652219.9224
     -2098.0784      -1634.8664
 98  6 17 17 11  0.0040000  0  7G30G 4G 5G 8G 9G10G24
  -6384861.57047  -4877744.39846  23804537.8954   23804544.2934
      1499.3594       1168.3324
  13928903.07648  10794088.71246  23411774.7934   23411781.2854
     -4110.7344      -3203.1704
  -5688496.16248  -4380574.41847  21919589.0354   21919595.1294
      -237.5314       -185.0894
   1013322.77047   2560743.04646  23155328.4964   23155335.4964
     -2349.9534      -1831.1324
  13681399.99847  10600406.64046  24132939.3014   24132946.7934
     -4043.5944      -3150.8524
  -4046645.65246  -3064686.56546  24522673.0204   24522682.3054
      1677.7974       1307.3744
   1197052.08448    966623.18047  21658214.6134   21658221.2344
     -2106.9374      -1641.7694
 98  6 17 17 11 15.0040000  0  7G30G 4G 5G 8G 9G10G24
  -6407327.59347  -4895250.37446  23800262.6684   23800269.3594
      1495.5004       1165.3254
  13990595.16048  10842160.45246  23423514.5904   23423521.1054
     -4115.4224      -3206.8224
  -5684880.62848  -4377757.11547  21920277.0044   21920283.0864
      -245.1094       -190.9944
   1048641.99447   2588264.49946  23162049.6844   23162056.7664
     -2359.8594      -1838.8514
  13742087.49547  10647695.56346  24144487.7464   24144494.4614
     -4048.6094      -3154.7614
  -4071797.49346  -3084285.33746  24517886.8554   24517896.0594
      1675.2034       1305.3534
   1228711.39648    991292.77547  21664239.3484   21664246.0274
     -2114.9064      -1647.9794
 98  6 17 17 11 30.0040000  0  7G30G 4G 5G 8G 9G10G24
  -6429717.94747  -4912697.38746  23796001.8244   23796008.3874
      1490.1414       1161.1494
  14052372.95348  10890298.97446  23435270.4804   23435276.9844
     -4121.2814      -3211.3884
  -5681135.05648  -4374838.48047  21920989.7854   21920995.8324
      -254.0624       -197.9714
   1084125.22447   2615913.75246  23168801.8874   23168809.0744
     -2370.8914      -1847.4474
  13802866.81447  10695056.02146  24156053.6054   24156060.9694
     -4055.0164      -3159.7524
  -4096893.59146  -3103840.73246  24513111.3094   24513120.0784
      1671.1884       1302.2244
   1260507.18248   1016068.70847  21670289.7774   21670296.5624
     -2124.1874      -1655.2114
 98  6 17 17 11 45.0040000  0  7G30G 4G 5G 8G 9G10G24
  -6452031.74347  -4930084.74346  23791756.0354   23791762.8204
      1484.8914       1157.0584
  14114231.75348  10938500.62346  23447042.0824   23447048.5274
     -4126.7034      -3215.6134
  -5677259.60148  -4371818.64047  21921727.3014   21921733.4304
      -262.8594       -204.8254
   1119767.33747   2643686.80146  23175584.5044   23175591.5744
     -2381.5314      -1855.7394
  13863737.49647  10742487.69546  24167637.0434   24167644.2074
     -4061.2194      -3164.5864
  -4121933.19746  -3123352.05546  24508346.5744   24508355.4964
      1667.2344       1299.1444
   1292435.79848   1040948.14647  21676365.7154   21676372.3364
     -2133.0944      -1662.1514
 98  6 17 17 12  0.0040000  0  8G30G 4G 5G 6G 8G 9G10G24
  -6474268.07547  -4947411.73846  23787524.1134   23787530.6174
      1479.5004       1152.8574
  14176170.98748  10986764.95046  23458828.4574   23458835.0554
     -4132.3594      -3220.0204
  -5673251.87248  -4368695.72447  21922489.9264   21922496.0084
      -271.9694       -211.9244
    -10518.80555                  26099315.1054
       955.2034
   1155568.14847   2671583.52346  23182396.8874   23182404.0624
     -2392.3754      -1864.1884
  13924699.95647  10789990.87146  24179237.5664   24179245.1764
     -4067.5944      -3169.5544
  -4146914.14646  -3142817.71746  24503592.8954   24503600.8554
      1663.0634       1295.8934
   1324495.17648   1065929.47947  21682466.3164   21682472.9964
     -2141.9694      -1669.0674
 98  6 17 17 12 15.0040000  0  8G30G 4G 5G 6G 8G 9G10G24
  -6496430.06547  -4964680.80046  23783306.8324   23783313.4184
      1475.1254       1149.4484
  14238190.34748  11035091.70846  23470630.4184   23470636.7934
     -4137.1094      -3223.7224
  -5669114.18348  -4365471.54747  21923277.1294   21923283.2934
      -280.0004       -218.1824
    -24838.95244                  26096590.0514
       953.9064
   1191524.42347   2699601.37846  23189239.5204   23189246.5904
     -2402.0474      -1871.7254
  13985751.58547  10837563.52146  24190855.4734   24190862.3674
     -4072.8754      -3173.6694
  -4171837.91546  -3162238.77946  24498849.9734   24498859.4694
      1659.8444       1293.3854
   1356681.02548   1091009.35947  21688591.2704   21688597.9024
     -2149.6874      -1675.0814
 98  6 17 17 12 30.0040000  0  8G30G 4G 5G 6G 8G 9G10G24
  -6518519.47547  -4981893.30946  23779103.4574   23779110.1024
      1470.0784       1145.5154
  14300286.22447  11083478.09546  23482446.6524   23482453.2274
     -4142.3914      -3227.8374
  -5664847.96148  -4362147.20847  21924088.8324   21924094.9264
      -288.9534       -225.1584
    -39133.89544                  26093869.7704
       952.1254
   1227632.65247   2727737.64346  23196110.5904   23196117.5314
     -2412.4694      -1879.8464
  14046888.71547  10885202.80246  24202489.7704   24202497.7194
     -4078.7664      -3178.2594
  -4196706.03646  -3181616.50446  24494117.3714   24494125.9534
      1655.7814       1290.2194
   1388988.27748   1116183.83647  21694739.0824   21694745.7384
     -2158.0314      -1681.5834
 98  6 17 17 12 45.0040000  0  8G30G 4G 5G 6G 8G 9G10G24
  -6540533.74647  -4999047.26446  23774914.1214   23774920.7304
      1464.9534       1141.5224
  14362460.42847  11131925.51146  23494278.0044   23494284.5434
     -4147.7194      -3231.9894
  -5660446.16148  -4358717.22647  21924926.5904   21924932.8484
      -298.1414       -232.3174
    -53407.45144                  26091152.6374
       950.8594
   1263895.78647   2755994.61146  23203011.2154   23203017.9064
     -2422.8284      -1887.9184
  14108111.81547  10932909.07946  24214140.1054   24214147.8094
     -4084.5004      -3182.7274
  -4221513.09946  -3200946.64346  24489397.0124   24489405.8284
      1651.5944       1286.9564
   1421420.71148   1141455.85947  21700910.8484   21700917.5394
     -2166.5784      -1688.2434
 98  6 17 17 13  0.0040000  0  8G30G 4G 5G 6G 8G 9G10G24
  -6562478.11247  -5016146.75246  23770738.3954   23770744.8524
      1460.4064       1137.9794
  14424708.14347  11180430.20446  23506123.4804   23506130.1254
     -4152.5314      -3235.7394
  -5655912.45848  -4355184.46647  21925789.4654   21925795.7344
      -306.9224       -239.1604
    -67668.00545                  26088440.5904
       950.0314
   1300310.03547   2784369.33146  23209940.4104   23209947.4804
     -2433.0314      -1895.8694
  14169413.76747  10980676.78246  24225805.5664   24225813.7974
     -4089.5784      -3186.6844
  -4246261.63946  -3220231.16946  24484687.5044   24484695.8984
      1647.6414       1283.8764
   1453975.73548   1166823.40647  21707105.7464   21707112.2154
     -2174.5944      -1694.4894
 98  6 17 17 13 15.0040000  0  8G30G 4G 5G 6G 8G 9G10G24
  -6584344.67247  -5033185.61846  23766577.2464   23766583.9374
      1455.3284       1134.0224
  14487037.01247  11228998.13346  23517984.1914   23517990.7664
     -4157.7974      -3239.8424
  -5651238.33948  -4351542.29247  21926678.7704   21926684.9924
      -316.0624       -246.2824
    -81908.75245     -7394.92655  26085730.0594   26085738.9804
       948.9384        739.4324
   1336886.07747   2812870.12146  23216900.9264   23216908.0904
     -2443.5474      -1904.0624
  14230797.69746  11028508.34346  24237486.3714   24237493.7814
     -4094.7194      -3190.6904
  -4270941.75546  -3239462.40146  24479990.4734   24479999.8164
      1643.2504       1280.4554
   1486658.56648   1192290.54047  21713324.9024   21713331.2894
     -2183.0164      -1701.0514
 98  6 17 17 13 30.0040000  0  8G30G 4G 5G 6G 8G 9G10G24
  -6606141.02347  -5050169.76646  23762429.6684   23762436.3954
      1449.8594       1129.7614
  14549438.72447  11277622.82246  23529858.7934   23529865.5204
     -4163.4374      -3244.2374
  -5646434.91448  -4347799.35447  21927592.7934   21927598.8164
      -325.3124       -253.4904
    -96139.86445    -18484.07945  26083021.3554   26083030.3124
       947.6254        738.4094
   1373612.60247   2841488.17146  23223889.6994   23223897.1914
     -2454.2504      -1912.4034
  14292249.27347  11076392.61546  24249180.1134   24249188.1334
     -4099.7344      -3194.5984
  -4295562.70446  -3258647.49646  24475305.6134   24475314.4654
      1638.5944       1276.8264
   1519464.05548   1217853.25847  21719567.7704   21719574.1684
     -2192.0624      -1708.1014
 98  6 17 17 13 45.0040000  0  8G30G 4G 5G 6G 8G 9G10G24
  -6627851.61647  -5067087.10246  23758298.4494   23758304.9414
      1445.0634       1126.0234
  14611929.74547  11326317.11146  23541750.7234   23541757.2274
     -4168.5474      -3248.2184
  -5641489.30748  -4343945.63147  21928534.0594   21928540.1414
      -333.9374       -260.2114
   -110350.28945    -29557.09445  26080317.6454   26080327.7034
       947.3134        738.1664
   1410501.75947   2870232.95646  23230909.7384   23230916.6684
     -2464.1564      -1920.1224
  14353778.94546  11124337.78546  24260888.9344   24260896.3914
     -4104.0314      -3197.9464
  -4320109.29246  -3277774.67246  24470634.2074   24470642.8714
      1634.4064       1273.5634
   1552409.33048   1243524.89547  21725837.1214   21725843.5314
     -2200.4534      -1714.6394
 98  6 17 17 14  0.0040000  0  8G30G 4G 5G 6G 8G 9G10G24
  -6649480.80147  -5083940.99246  23754182.4804   23754189.0434
      1439.3914       1121.6034
  14674509.03947  11375080.17546  23553659.0354   23553665.8094
     -4174.8284      -3253.1134
  -5636404.47448  -4339983.41847  21929501.5124   21929507.5234
      -343.5004       -267.6624
   -124546.05145    -40618.69245  26077615.4494   26077625.1564
       945.9224        737.0824
   1447552.37247   2899103.54246  23237959.8404   23237966.8284
     -2475.3754      -1928.8644
  14415382.11747  11172340.23246  24272611.5744   24272619.0204
     -4109.1724      -3201.9524
  -4344582.40246  -3296844.58246  24465977.3954   24465986.1294
      1629.2034       1269.5094
   1585490.75948   1269302.63247  21732132.2624   21732138.7424
     -2209.8914      -1721.9934
 98  6 17 17 14 15.0050000  0  8G30G 4G 5G 6G 8G 9G10G24
  -6671034.17247  -5100735.81846  23750080.8374   23750087.1884
      1434.5004       1117.7924
  14737178.48647  11423913.49246  23565584.6184   23565591.2744
     -4180.2504      -3257.3384
  -5631184.59848  -4335915.97747  21930494.8844   21930501.1064
      -352.1254       -274.3834
   -138729.14245    -51670.42645  26074917.0094   26074926.4704
       945.2664        736.5714
   1484765.78947   2928100.98646  23245041.5954   23245048.6304
     -2485.7974      -1936.9854
  14477057.79346  11220399.16346  24284348.1264   24284355.4784
     -4113.4064      -3205.2524
  -4368985.99546  -3315860.32446  24461333.8684   24461342.6264
      1624.6254       1265.9424
   1618708.52948   1295186.60047  21738453.4154   21738459.9894
     -2218.6254      -1728.7994
 98  6 17 17 14 30.0050000  0  8G30G 4G 5G 6G 8G 9G10G24
  -6692512.75047  -5117472.35746  23745993.4314   23746000.0054
      1429.8914       1114.2004
  14799923.81147  11472805.93746  23577524.7124   23577531.2164
     -4185.1414      -3261.1494
  -5625836.43048  -4331748.55947  21931512.5404   21931518.8564
      -360.4064       -280.8364
   -152899.93745    -62712.53745  26072220.4784   26072228.4504
       944.7504        736.1694
   1522133.25147   2957218.47146  23252152.0794   23252159.0204
     -2495.9844      -1944.9234
  14538792.68946  11268504.25246  24296096.1424   24296103.4814
     -4117.3914      -3208.3564
  -4393319.02846  -3334821.08546  24456703.3604   24456712.8454
      1620.3444       1262.6064
   1652056.65448   1321172.14847  21744799.3994   21744805.9034
     -2227.2034      -1735.4834
 98  6 17 17 14 45.0050000  0  8G30G 4G 5G 6G 8G 9G10G24
  -6713930.90147  -5134161.81246  23741917.5634   23741924.2084
      1425.3754       1110.6824
  14862732.81047  11521747.99646  23589476.9704   23589483.4384
     -4189.8444      -3264.8134
  -5620372.13548  -4327490.66347  21932552.3374   21932558.4544
      -368.6564       -287.2654
   -167070.80545    -73754.75745  26069524.1184   26069532.4784
       944.2194        735.7554
   1559645.37047   2986448.67246  23259290.4154   23259297.3924
     -2506.0944      -1952.8004
  14600579.91947  11316650.10646  24307853.8134   24307861.1774
     -4121.3914      -3211.4734
  -4417595.70746  -3353737.94246  24452083.2824   24452091.8414
      1616.0784       1259.2824
   1685525.78248   1347251.98847  21751168.5564   21751175.0364
     -2235.8444      -1742.2164
 98  6 17 17 15  0.0050000  0  8G30G 4G 5G 6G 8G 9G10G24
  -6735266.42547  -5150786.88046  23737857.9234   23737864.4854
      1419.5784       1106.1654
  14925626.66647  11570756.17646  23601445.2824   23601451.8104
     -4195.7974      -3269.4524
  -5614770.72648  -4323125.92847  21933618.3374   21933624.2784
      -377.9224       -294.4854
   -181217.59045    -84778.22545  26066831.5324   26066838.1884
       942.1724        734.1604
   1597323.76747   3015808.44346  23266460.4784   23266467.7244
     -2517.5474      -1961.7254
  14662442.80146  11364854.93446  24319626.2124   24319634.4544
     -4126.7974      -3215.6864
  -4441794.47946  -3372594.07846  24447478.4624   24447487.8534
      1610.6094       1255.0204
   1719140.96448   1373445.63347  21757564.9784   21757571.5874
     -2245.9374      -1750.0814
 98  6 17 17 15 15.0050000  0  8G30G 4G 5G 6G 8G 9G10G24
  -6756513.22447  -5167342.81146  23733814.7674   23733821.3174
      1414.5784       1102.2694
  14988611.47847  11619835.23046  23613430.8454   23613437.4664
     -4200.8444      -3273.3854
  -5609029.58448  -4318652.30647  21934710.7354   21934716.7594
      -386.2664       -300.9864
   -195330.22844    -95775.03045  26064145.9074   26064155.0284
       940.8134        733.1014
   1635175.52847   3045303.30646  23273663.7824   23273671.0754
     -2528.0474      -1969.9074
  14724389.67846  11413125.20746  24331413.8214   24331421.5954
     -4131.5004      -3219.3514
  -4465909.65646  -3391385.09446  24442889.4464   24442897.4894
      1606.1254       1251.5264
   1752908.55748   1399758.04247  21763990.7744   21763997.3374
     -2255.1094      -1757.2284
 98  6 17 17 15 30.0050000  0  8G30G 4G 5G 6G 8G 9G10G24
  -6777682.60847  -5183838.42646  23729786.4384   23729793.0714
      1407.9694       1097.1194
  15051672.66447  11668973.79646  23625431.0014   23625437.8454
     -4207.4064      -3278.4984
  -5603162.56948  -4314080.60047  21935827.3764   21935833.3414
      -396.0784       -308.6324
   -209420.53944   -106754.44145  26061464.0404   26061474.1924
       937.7974        730.7514
   1673183.65447   3074920.01346  23280896.2284   23280903.1924
     -2539.8284      -1979.0874
  14786409.95146  11461452.67746  24343216.4154   24343224.5524
     -4138.0164      -3224.4284
  -4489957.52346  -3410123.63046  24438313.6264   24438322.4424
      1600.1254       1246.8514
   1786815.76348   1426179.23747  21770443.0404   21770449.7674
     -2265.9534      -1765.6784
 98  6 17 17 15 45.0050000  0  8G30G 4G 5G 6G 8G 9G10G24
  -6798764.36247  -5200265.75346  23725774.4384   23725780.8494
      1403.1884       1093.3934
  15114822.44147  11718181.38646  23637448.1034   23637454.8064
     -4212.3124      -3282.3214
  -5597159.16648  -4309402.62347  21936969.8454   21936975.9624
      -404.0944       -314.8784
   -223473.87444   -117705.02945  26058789.3764   26058799.8214
       936.2194        729.5214
   1711359.92547   3104667.73346  23288160.9934   23288167.8994
     -2550.0944      -1987.0864
  14848519.85446  11509849.99146  24355035.2824   24355043.0794
     -4143.1254      -3228.4094
  -4513923.79946  -3428798.60446  24433752.3214   24433760.5874
      1595.6414       1243.3564
   1820873.78448   1452717.94947  21776923.9704   21776930.5204
     -2274.8124      -1772.5814
